<?xml version="1.0" encoding="UTF-8" standalone="no" ?>
<gpx xmlns="http://www.topografix.com/GPX/1/1" creator="www.cicloide.com" version="1.1" xmlns:xsi="http://www.w3.org/2001/XMLSchema-instance" xsi:schemaLocation="http://www.topografix.com/GPX/1/1 http://www.topografix.com/GPX/1/1/gpx.xsd">
  <trk>
    <name>www.cicloide.com 16336</name>
    <desc>www.cicloide.com 16336</desc>
    <trkseg>
      <trkpt lat="41.605479171" lon="2.539971693">
        <ele>114.05</ele>
        <time>2013-12-06T08:03:28Z</time>
      </trkpt>
      <trkpt lat="41.605487552" lon="2.540010082">
        <ele>114.05</ele>
        <time>2013-12-06T08:03:31Z</time>
      </trkpt>
      <trkpt lat="41.605547651" lon="2.540252486">
        <ele>114.05</ele>
        <time>2013-12-06T08:03:34Z</time>
      </trkpt>
      <trkpt lat="41.605552596" lon="2.540285679">
        <ele>114.05</ele>
        <time>2013-12-06T08:03:35Z</time>
      </trkpt>
      <trkpt lat="41.605574724" lon="2.540223317">
        <ele>114.05</ele>
        <time>2013-12-06T08:03:36Z</time>
      </trkpt>
      <trkpt lat="41.605617137" lon="2.540236142">
        <ele>114.05</ele>
        <time>2013-12-06T08:03:38Z</time>
      </trkpt>
      <trkpt lat="41.605640187" lon="2.540248966">
        <ele>114.05</ele>
        <time>2013-12-06T08:03:40Z</time>
      </trkpt>
      <trkpt lat="41.605654604" lon="2.540257515">
        <ele>114.05</ele>
        <time>2013-12-06T08:03:42Z</time>
      </trkpt>
      <trkpt lat="41.605662902" lon="2.540262628">
        <ele>114.05</ele>
        <time>2013-12-06T08:03:44Z</time>
      </trkpt>
      <trkpt lat="41.605668015" lon="2.540268831">
        <ele>114.05</ele>
        <time>2013-12-06T08:03:46Z</time>
      </trkpt>
      <trkpt lat="41.605672122" lon="2.540273273">
        <ele>114.05</ele>
        <time>2013-12-06T08:03:48Z</time>
      </trkpt>
      <trkpt lat="41.605681091" lon="2.540279727">
        <ele>114.05</ele>
        <time>2013-12-06T08:03:51Z</time>
      </trkpt>
      <trkpt lat="41.605687545" lon="2.540281152">
        <ele>114.05</ele>
        <time>2013-12-06T08:03:54Z</time>
      </trkpt>
      <trkpt lat="41.605691903" lon="2.540281069">
        <ele>114.05</ele>
        <time>2013-12-06T08:03:56Z</time>
      </trkpt>
      <trkpt lat="41.605695759" lon="2.540280482">
        <ele>114.05</ele>
        <time>2013-12-06T08:03:59Z</time>
      </trkpt>
      <trkpt lat="41.605701040" lon="2.540286768">
        <ele>114.05</ele>
        <time>2013-12-06T08:04:03Z</time>
      </trkpt>
      <trkpt lat="41.605704728" lon="2.540295234">
        <ele>114.05</ele>
        <time>2013-12-06T08:04:08Z</time>
      </trkpt>
      <trkpt lat="41.605691568" lon="2.540289786">
        <ele>114.05</ele>
        <time>2013-12-06T08:04:13Z</time>
      </trkpt>
      <trkpt lat="41.605680671" lon="2.540282661">
        <ele>114.05</ele>
        <time>2013-12-06T08:04:19Z</time>
      </trkpt>
      <trkpt lat="41.605683270" lon="2.540274279">
        <ele>114.05</ele>
        <time>2013-12-06T08:04:24Z</time>
      </trkpt>
      <trkpt lat="41.605688299" lon="2.540263467">
        <ele>114.05</ele>
        <time>2013-12-06T08:04:32Z</time>
      </trkpt>
      <trkpt lat="41.605689305" lon="2.540265562">
        <ele>114.05</ele>
        <time>2013-12-06T08:04:40Z</time>
      </trkpt>
      <trkpt lat="41.605698106" lon="2.540264640">
        <ele>114.05</ele>
        <time>2013-12-06T08:04:49Z</time>
      </trkpt>
      <trkpt lat="41.605706907" lon="2.540248631">
        <ele>114.05</ele>
        <time>2013-12-06T08:05:07Z</time>
      </trkpt>
      <trkpt lat="41.605688634" lon="2.540269585">
        <ele>114.05</ele>
        <time>2013-12-06T08:05:37Z</time>
      </trkpt>
      <trkpt lat="41.605681677" lon="2.540293306">
        <ele>114.05</ele>
        <time>2013-12-06T08:05:54Z</time>
      </trkpt>
      <trkpt lat="41.605700620" lon="2.540313339">
        <ele>114.05</ele>
        <time>2013-12-06T08:06:02Z</time>
      </trkpt>
      <trkpt lat="41.605724676" lon="2.540341754">
        <ele>114.05</ele>
        <time>2013-12-06T08:06:09Z</time>
      </trkpt>
      <trkpt lat="41.605821404" lon="2.540401433">
        <ele>114.05</ele>
        <time>2013-12-06T08:06:18Z</time>
      </trkpt>
      <trkpt lat="41.605850070" lon="2.540386597">
        <ele>114.53</ele>
        <time>2013-12-06T08:06:21Z</time>
      </trkpt>
      <trkpt lat="41.605980073" lon="2.540390452">
        <ele>114.53</ele>
        <time>2013-12-06T08:06:29Z</time>
      </trkpt>
      <trkpt lat="41.606138240" lon="2.540396655">
        <ele>114.53</ele>
        <time>2013-12-06T08:06:35Z</time>
      </trkpt>
      <trkpt lat="41.606377124" lon="2.540513080">
        <ele>114.53</ele>
        <time>2013-12-06T08:06:45Z</time>
      </trkpt>
      <trkpt lat="41.606637550" lon="2.540632187">
        <ele>115.50</ele>
        <time>2013-12-06T08:06:55Z</time>
      </trkpt>
      <trkpt lat="41.606870818" lon="2.540734278">
        <ele>116.46</ele>
        <time>2013-12-06T08:07:04Z</time>
      </trkpt>
      <trkpt lat="41.607098051" lon="2.540796472">
        <ele>117.42</ele>
        <time>2013-12-06T08:07:13Z</time>
      </trkpt>
      <trkpt lat="41.607324279" lon="2.540842908">
        <ele>118.38</ele>
        <time>2013-12-06T08:07:22Z</time>
      </trkpt>
      <trkpt lat="41.607536425" lon="2.540844081">
        <ele>119.34</ele>
        <time>2013-12-06T08:07:30Z</time>
      </trkpt>
      <trkpt lat="41.607697106" lon="2.540838130">
        <ele>119.82</ele>
        <time>2013-12-06T08:07:36Z</time>
      </trkpt>
      <trkpt lat="41.607939511" lon="2.540803764">
        <ele>120.30</ele>
        <time>2013-12-06T08:07:45Z</time>
      </trkpt>
      <trkpt lat="41.608146124" lon="2.540786665">
        <ele>121.26</ele>
        <time>2013-12-06T08:07:52Z</time>
      </trkpt>
      <trkpt lat="41.608401773" lon="2.540746767">
        <ele>121.74</ele>
        <time>2013-12-06T08:08:01Z</time>
      </trkpt>
      <trkpt lat="41.608584079" lon="2.540721789">
        <ele>122.71</ele>
        <time>2013-12-06T08:08:08Z</time>
      </trkpt>
      <trkpt lat="41.608803433" lon="2.540666971">
        <ele>123.67</ele>
        <time>2013-12-06T08:08:16Z</time>
      </trkpt>
      <trkpt lat="41.609081377" lon="2.540613830">
        <ele>124.63</ele>
        <time>2013-12-06T08:08:26Z</time>
      </trkpt>
      <trkpt lat="41.609253122" lon="2.540590445">
        <ele>125.59</ele>
        <time>2013-12-06T08:08:33Z</time>
      </trkpt>
      <trkpt lat="41.609413552" lon="2.540567394">
        <ele>126.07</ele>
        <time>2013-12-06T08:08:39Z</time>
      </trkpt>
      <trkpt lat="41.609643803" lon="2.540526575">
        <ele>127.03</ele>
        <time>2013-12-06T08:08:47Z</time>
      </trkpt>
      <trkpt lat="41.609811609" lon="2.540470081">
        <ele>127.99</ele>
        <time>2013-12-06T08:08:53Z</time>
      </trkpt>
      <trkpt lat="41.610062479" lon="2.540367235">
        <ele>128.95</ele>
        <time>2013-12-06T08:09:02Z</time>
      </trkpt>
      <trkpt lat="41.610313768" lon="2.540237147">
        <ele>129.92</ele>
        <time>2013-12-06T08:09:11Z</time>
      </trkpt>
      <trkpt lat="41.610565561" lon="2.540129691">
        <ele>131.36</ele>
        <time>2013-12-06T08:09:19Z</time>
      </trkpt>
      <trkpt lat="41.610833530" lon="2.540001448">
        <ele>132.32</ele>
        <time>2013-12-06T08:09:29Z</time>
      </trkpt>
      <trkpt lat="41.610985075" lon="2.539926849">
        <ele>132.80</ele>
        <time>2013-12-06T08:09:35Z</time>
      </trkpt>
      <trkpt lat="41.611157826" lon="2.539849736">
        <ele>133.76</ele>
        <time>2013-12-06T08:09:41Z</time>
      </trkpt>
      <trkpt lat="41.611325548" lon="2.539739095">
        <ele>134.72</ele>
        <time>2013-12-06T08:09:48Z</time>
      </trkpt>
      <trkpt lat="41.611506094" lon="2.539560979">
        <ele>135.68</ele>
        <time>2013-12-06T08:09:56Z</time>
      </trkpt>
      <trkpt lat="41.611685551" lon="2.539350761">
        <ele>136.64</ele>
        <time>2013-12-06T08:10:04Z</time>
      </trkpt>
      <trkpt lat="41.611831983" lon="2.539157558">
        <ele>137.61</ele>
        <time>2013-12-06T08:10:11Z</time>
      </trkpt>
      <trkpt lat="41.611952431" lon="2.538959243">
        <ele>138.57</ele>
        <time>2013-12-06T08:10:18Z</time>
      </trkpt>
      <trkpt lat="41.612140688" lon="2.538631678">
        <ele>139.53</ele>
        <time>2013-12-06T08:10:28Z</time>
      </trkpt>
      <trkpt lat="41.612258705" lon="2.538497064">
        <ele>140.49</ele>
        <time>2013-12-06T08:10:34Z</time>
      </trkpt>
      <trkpt lat="41.612425254" lon="2.538242338">
        <ele>141.45</ele>
        <time>2013-12-06T08:10:43Z</time>
      </trkpt>
      <trkpt lat="41.612577804" lon="2.538053243">
        <ele>142.89</ele>
        <time>2013-12-06T08:10:50Z</time>
      </trkpt>
      <trkpt lat="41.612828507" lon="2.537793152">
        <ele>143.85</ele>
        <time>2013-12-06T08:10:59Z</time>
      </trkpt>
      <trkpt lat="41.613060518" lon="2.537558207">
        <ele>144.82</ele>
        <time>2013-12-06T08:11:08Z</time>
      </trkpt>
      <trkpt lat="41.613236287" lon="2.537379757">
        <ele>145.78</ele>
        <time>2013-12-06T08:11:15Z</time>
      </trkpt>
      <trkpt lat="41.613430579" lon="2.537104244">
        <ele>146.74</ele>
        <time>2013-12-06T08:11:24Z</time>
      </trkpt>
      <trkpt lat="41.613557984" lon="2.536855636">
        <ele>147.70</ele>
        <time>2013-12-06T08:11:32Z</time>
      </trkpt>
      <trkpt lat="41.613600899" lon="2.536605101">
        <ele>148.66</ele>
        <time>2013-12-06T08:11:39Z</time>
      </trkpt>
      <trkpt lat="41.613707266" lon="2.536362110">
        <ele>149.62</ele>
        <time>2013-12-06T08:11:46Z</time>
      </trkpt>
      <trkpt lat="41.613812710" lon="2.536068240">
        <ele>150.58</ele>
        <time>2013-12-06T08:11:54Z</time>
      </trkpt>
      <trkpt lat="41.613878089" lon="2.535864392">
        <ele>151.06</ele>
        <time>2013-12-06T08:12:00Z</time>
      </trkpt>
      <trkpt lat="41.613977331" lon="2.535567505">
        <ele>152.51</ele>
        <time>2013-12-06T08:12:08Z</time>
      </trkpt>
      <trkpt lat="41.614089816" lon="2.535270367">
        <ele>153.47</ele>
        <time>2013-12-06T08:12:16Z</time>
      </trkpt>
      <trkpt lat="41.614232560" lon="2.534832245">
        <ele>155.39</ele>
        <time>2013-12-06T08:12:28Z</time>
      </trkpt>
      <trkpt lat="41.614354433" lon="2.534511050">
        <ele>156.83</ele>
        <time>2013-12-06T08:12:37Z</time>
      </trkpt>
      <trkpt lat="41.614444370" lon="2.534205195">
        <ele>157.31</ele>
        <time>2013-12-06T08:12:45Z</time>
      </trkpt>
      <trkpt lat="41.614559705" lon="2.533815688">
        <ele>159.24</ele>
        <time>2013-12-06T08:12:55Z</time>
      </trkpt>
      <trkpt lat="41.614684260" lon="2.533391731">
        <ele>160.68</ele>
        <time>2013-12-06T08:13:06Z</time>
      </trkpt>
      <trkpt lat="41.614774785" lon="2.533087636">
        <ele>161.16</ele>
        <time>2013-12-06T08:13:14Z</time>
      </trkpt>
      <trkpt lat="41.614871931" lon="2.532768788">
        <ele>162.12</ele>
        <time>2013-12-06T08:13:22Z</time>
      </trkpt>
      <trkpt lat="41.614988272" lon="2.532362936">
        <ele>163.56</ele>
        <time>2013-12-06T08:13:32Z</time>
      </trkpt>
      <trkpt lat="41.615070750" lon="2.531946691">
        <ele>164.52</ele>
        <time>2013-12-06T08:13:42Z</time>
      </trkpt>
      <trkpt lat="41.615104529" lon="2.531487027">
        <ele>165.48</ele>
        <time>2013-12-06T08:13:53Z</time>
      </trkpt>
      <trkpt lat="41.615123053" lon="2.531154769">
        <ele>166.45</ele>
        <time>2013-12-06T08:14:01Z</time>
      </trkpt>
      <trkpt lat="41.615180553" lon="2.530640958">
        <ele>167.89</ele>
        <time>2013-12-06T08:14:13Z</time>
      </trkpt>
      <trkpt lat="41.615192455" lon="2.530226724">
        <ele>169.81</ele>
        <time>2013-12-06T08:14:23Z</time>
      </trkpt>
      <trkpt lat="41.615189773" lon="2.529961772">
        <ele>170.77</ele>
        <time>2013-12-06T08:14:30Z</time>
      </trkpt>
      <trkpt lat="41.615202765" lon="2.529528344">
        <ele>171.25</ele>
        <time>2013-12-06T08:14:41Z</time>
      </trkpt>
      <trkpt lat="41.615211147" lon="2.529114530">
        <ele>173.17</ele>
        <time>2013-12-06T08:14:51Z</time>
      </trkpt>
      <trkpt lat="41.615265042" lon="2.528724939">
        <ele>174.14</ele>
        <time>2013-12-06T08:15:00Z</time>
      </trkpt>
      <trkpt lat="41.615338552" lon="2.528371139">
        <ele>174.14</ele>
        <time>2013-12-06T08:15:08Z</time>
      </trkpt>
      <trkpt lat="41.615419018" lon="2.527935363">
        <ele>175.58</ele>
        <time>2013-12-06T08:15:18Z</time>
      </trkpt>
      <trkpt lat="41.615483978" lon="2.527602099">
        <ele>176.54</ele>
        <time>2013-12-06T08:15:26Z</time>
      </trkpt>
      <trkpt lat="41.615556481" lon="2.527265649">
        <ele>177.50</ele>
        <time>2013-12-06T08:15:35Z</time>
      </trkpt>
      <trkpt lat="41.615611802" lon="2.526924087">
        <ele>178.94</ele>
        <time>2013-12-06T08:15:44Z</time>
      </trkpt>
      <trkpt lat="41.615596798" lon="2.526612699">
        <ele>181.35</ele>
        <time>2013-12-06T08:15:52Z</time>
      </trkpt>
      <trkpt lat="41.615574754" lon="2.526333666">
        <ele>181.83</ele>
        <time>2013-12-06T08:15:59Z</time>
      </trkpt>
      <trkpt lat="41.615543657" lon="2.526004508">
        <ele>182.31</ele>
        <time>2013-12-06T08:16:07Z</time>
      </trkpt>
      <trkpt lat="41.615543825" lon="2.525673675">
        <ele>183.75</ele>
        <time>2013-12-06T08:16:15Z</time>
      </trkpt>
      <trkpt lat="41.615529911" lon="2.525382487">
        <ele>184.23</ele>
        <time>2013-12-06T08:16:22Z</time>
      </trkpt>
      <trkpt lat="41.615545082" lon="2.525035644">
        <ele>185.19</ele>
        <time>2013-12-06T08:16:30Z</time>
      </trkpt>
      <trkpt lat="41.615576849" lon="2.524691148">
        <ele>187.11</ele>
        <time>2013-12-06T08:16:38Z</time>
      </trkpt>
      <trkpt lat="41.615611634" lon="2.524348496">
        <ele>188.08</ele>
        <time>2013-12-06T08:16:46Z</time>
      </trkpt>
      <trkpt lat="41.615634433" lon="2.524023194">
        <ele>190.00</ele>
        <time>2013-12-06T08:16:54Z</time>
      </trkpt>
      <trkpt lat="41.615665027" lon="2.523698060">
        <ele>190.96</ele>
        <time>2013-12-06T08:17:02Z</time>
      </trkpt>
      <trkpt lat="41.615696291" lon="2.523359599">
        <ele>191.92</ele>
        <time>2013-12-06T08:17:10Z</time>
      </trkpt>
      <trkpt lat="41.615716157" lon="2.523153907">
        <ele>192.40</ele>
        <time>2013-12-06T08:17:15Z</time>
      </trkpt>
      <trkpt lat="41.615726969" lon="2.522847297">
        <ele>193.84</ele>
        <time>2013-12-06T08:17:22Z</time>
      </trkpt>
      <trkpt lat="41.615753121" lon="2.522457706">
        <ele>195.28</ele>
        <time>2013-12-06T08:17:31Z</time>
      </trkpt>
      <trkpt lat="41.615792264" lon="2.522191329">
        <ele>196.73</ele>
        <time>2013-12-06T08:17:37Z</time>
      </trkpt>
      <trkpt lat="41.615842639" lon="2.521849012">
        <ele>197.21</ele>
        <time>2013-12-06T08:17:46Z</time>
      </trkpt>
      <trkpt lat="41.615917406" lon="2.521529745">
        <ele>197.69</ele>
        <time>2013-12-06T08:17:53Z</time>
      </trkpt>
      <trkpt lat="41.615983455" lon="2.521139819">
        <ele>198.65</ele>
        <time>2013-12-06T08:18:02Z</time>
      </trkpt>
      <trkpt lat="41.616079009" lon="2.520721059">
        <ele>200.09</ele>
        <time>2013-12-06T08:18:12Z</time>
      </trkpt>
      <trkpt lat="41.616158050" lon="2.520446384">
        <ele>200.57</ele>
        <time>2013-12-06T08:18:19Z</time>
      </trkpt>
      <trkpt lat="41.616251928" lon="2.520188809">
        <ele>201.05</ele>
        <time>2013-12-06T08:18:26Z</time>
      </trkpt>
      <trkpt lat="41.616376818" lon="2.520010861">
        <ele>201.05</ele>
        <time>2013-12-06T08:18:32Z</time>
      </trkpt>
      <trkpt lat="41.616563315" lon="2.519869626">
        <ele>199.13</ele>
        <time>2013-12-06T08:18:38Z</time>
      </trkpt>
      <trkpt lat="41.616837404" lon="2.519762840">
        <ele>201.53</ele>
        <time>2013-12-06T08:18:48Z</time>
      </trkpt>
      <trkpt lat="41.617095231" lon="2.519719925">
        <ele>202.49</ele>
        <time>2013-12-06T08:18:57Z</time>
      </trkpt>
      <trkpt lat="41.617364961" lon="2.519679776">
        <ele>203.94</ele>
        <time>2013-12-06T08:19:06Z</time>
      </trkpt>
      <trkpt lat="41.617601833" lon="2.519655217">
        <ele>205.38</ele>
        <time>2013-12-06T08:19:14Z</time>
      </trkpt>
      <trkpt lat="41.617766789" lon="2.519642560">
        <ele>205.86</ele>
        <time>2013-12-06T08:19:20Z</time>
      </trkpt>
      <trkpt lat="41.617788917" lon="2.519666029">
        <ele>206.34</ele>
        <time>2013-12-06T08:19:27Z</time>
      </trkpt>
      <trkpt lat="41.617800652" lon="2.519678937">
        <ele>207.30</ele>
        <time>2013-12-06T08:19:36Z</time>
      </trkpt>
      <trkpt lat="41.617816829" lon="2.519700479">
        <ele>207.30</ele>
        <time>2013-12-06T08:19:44Z</time>
      </trkpt>
      <trkpt lat="41.617827474" lon="2.519723864">
        <ele>207.30</ele>
        <time>2013-12-06T08:19:46Z</time>
      </trkpt>
      <trkpt lat="41.617908946" lon="2.519803828">
        <ele>207.78</ele>
        <time>2013-12-06T08:19:53Z</time>
      </trkpt>
      <trkpt lat="41.617931577" lon="2.519975657">
        <ele>209.22</ele>
        <time>2013-12-06T08:20:01Z</time>
      </trkpt>
      <trkpt lat="41.617825462" lon="2.520097530">
        <ele>210.67</ele>
        <time>2013-12-06T08:20:09Z</time>
      </trkpt>
      <trkpt lat="41.617735525" lon="2.520197358">
        <ele>212.59</ele>
        <time>2013-12-06T08:20:16Z</time>
      </trkpt>
      <trkpt lat="41.617735525" lon="2.520412019">
        <ele>214.51</ele>
        <time>2013-12-06T08:20:25Z</time>
      </trkpt>
      <trkpt lat="41.617689005" lon="2.520648053">
        <ele>215.95</ele>
        <time>2013-12-06T08:20:34Z</time>
      </trkpt>
      <trkpt lat="41.617732339" lon="2.520867827">
        <ele>216.43</ele>
        <time>2013-12-06T08:20:42Z</time>
      </trkpt>
      <trkpt lat="41.617814231" lon="2.521146692">
        <ele>217.40</ele>
        <time>2013-12-06T08:20:52Z</time>
      </trkpt>
      <trkpt lat="41.617853877" lon="2.521309469">
        <ele>218.36</ele>
        <time>2013-12-06T08:20:58Z</time>
      </trkpt>
      <trkpt lat="41.617923112" lon="2.521556065">
        <ele>219.80</ele>
        <time>2013-12-06T08:21:07Z</time>
      </trkpt>
      <trkpt lat="41.617960998" lon="2.521670226">
        <ele>221.24</ele>
        <time>2013-12-06T08:21:12Z</time>
      </trkpt>
      <trkpt lat="41.618027131" lon="2.521644829">
        <ele>222.20</ele>
        <time>2013-12-06T08:21:18Z</time>
      </trkpt>
      <trkpt lat="41.618029227" lon="2.521605602">
        <ele>222.68</ele>
        <time>2013-12-06T08:21:20Z</time>
      </trkpt>
      <trkpt lat="41.618066023" lon="2.521468138">
        <ele>224.61</ele>
        <time>2013-12-06T08:21:27Z</time>
      </trkpt>
      <trkpt lat="41.618121427" lon="2.521341656">
        <ele>226.53</ele>
        <time>2013-12-06T08:21:34Z</time>
      </trkpt>
      <trkpt lat="41.618209437" lon="2.521185668">
        <ele>227.97</ele>
        <time>2013-12-06T08:21:43Z</time>
      </trkpt>
      <trkpt lat="41.618280767" lon="2.520984000">
        <ele>230.37</ele>
        <time>2013-12-06T08:21:53Z</time>
      </trkpt>
      <trkpt lat="41.618317480" lon="2.520830527">
        <ele>232.30</ele>
        <time>2013-12-06T08:22:01Z</time>
      </trkpt>
      <trkpt lat="41.618385206" lon="2.520656770">
        <ele>233.74</ele>
        <time>2013-12-06T08:22:10Z</time>
      </trkpt>
      <trkpt lat="41.618509510" lon="2.520608993">
        <ele>235.18</ele>
        <time>2013-12-06T08:22:19Z</time>
      </trkpt>
      <trkpt lat="41.618672035" lon="2.520589547">
        <ele>237.10</ele>
        <time>2013-12-06T08:22:29Z</time>
      </trkpt>
      <trkpt lat="41.618822574" lon="2.520557696">
        <ele>239.02</ele>
        <time>2013-12-06T08:22:38Z</time>
      </trkpt>
      <trkpt lat="41.618941094" lon="2.520488210">
        <ele>240.95</ele>
        <time>2013-12-06T08:22:47Z</time>
      </trkpt>
      <trkpt lat="41.619059698" lon="2.520423167">
        <ele>242.87</ele>
        <time>2013-12-06T08:22:55Z</time>
      </trkpt>
      <trkpt lat="41.619229347" lon="2.520341443">
        <ele>245.75</ele>
        <time>2013-12-06T08:23:06Z</time>
      </trkpt>
      <trkpt lat="41.619373516" lon="2.520361141">
        <ele>247.20</ele>
        <time>2013-12-06T08:23:14Z</time>
      </trkpt>
      <trkpt lat="41.619486588" lon="2.520401038">
        <ele>249.60</ele>
        <time>2013-12-06T08:23:22Z</time>
      </trkpt>
      <trkpt lat="41.619620698" lon="2.520365164">
        <ele>251.52</ele>
        <time>2013-12-06T08:23:30Z</time>
      </trkpt>
      <trkpt lat="41.619749444" lon="2.520321410">
        <ele>253.93</ele>
        <time>2013-12-06T08:23:39Z</time>
      </trkpt>
      <trkpt lat="41.619904845" lon="2.520233316">
        <ele>257.29</ele>
        <time>2013-12-06T08:23:50Z</time>
      </trkpt>
      <trkpt lat="41.620050858" lon="2.520172799">
        <ele>259.21</ele>
        <time>2013-12-06T08:24:00Z</time>
      </trkpt>
      <trkpt lat="41.620197122" lon="2.520160394">
        <ele>261.14</ele>
        <time>2013-12-06T08:24:09Z</time>
      </trkpt>
      <trkpt lat="41.620310361" lon="2.520180510">
        <ele>262.10</ele>
        <time>2013-12-06T08:24:16Z</time>
      </trkpt>
      <trkpt lat="41.620438856" lon="2.520189479">
        <ele>263.54</ele>
        <time>2013-12-06T08:24:23Z</time>
      </trkpt>
      <trkpt lat="41.620559472" lon="2.520210434">
        <ele>264.98</ele>
        <time>2013-12-06T08:24:30Z</time>
      </trkpt>
      <trkpt lat="41.620694504" lon="2.520201298">
        <ele>266.90</ele>
        <time>2013-12-06T08:24:39Z</time>
      </trkpt>
      <trkpt lat="41.620828950" lon="2.520227952">
        <ele>268.83</ele>
        <time>2013-12-06T08:24:47Z</time>
      </trkpt>
      <trkpt lat="41.620952918" lon="2.520259049">
        <ele>269.79</ele>
        <time>2013-12-06T08:24:54Z</time>
      </trkpt>
      <trkpt lat="41.621068253" lon="2.520293247">
        <ele>271.23</ele>
        <time>2013-12-06T08:25:02Z</time>
      </trkpt>
      <trkpt lat="41.621078898" lon="2.520276651">
        <ele>271.23</ele>
        <time>2013-12-06T08:25:11Z</time>
      </trkpt>
      <trkpt lat="41.621088789" lon="2.520261815">
        <ele>271.23</ele>
        <time>2013-12-06T08:25:23Z</time>
      </trkpt>
      <trkpt lat="41.621149139" lon="2.520293834">
        <ele>271.71</ele>
        <time>2013-12-06T08:25:31Z</time>
      </trkpt>
      <trkpt lat="41.621234634" lon="2.520310681">
        <ele>272.67</ele>
        <time>2013-12-06T08:25:36Z</time>
      </trkpt>
      <trkpt lat="41.621349550" lon="2.520322751">
        <ele>274.59</ele>
        <time>2013-12-06T08:25:42Z</time>
      </trkpt>
      <trkpt lat="41.621475781" lon="2.520351501">
        <ele>276.04</ele>
        <time>2013-12-06T08:25:50Z</time>
      </trkpt>
      <trkpt lat="41.621590865" lon="2.520389723">
        <ele>277.48</ele>
        <time>2013-12-06T08:25:57Z</time>
      </trkpt>
      <trkpt lat="41.621733022" lon="2.520424843">
        <ele>279.88</ele>
        <time>2013-12-06T08:26:06Z</time>
      </trkpt>
      <trkpt lat="41.621841316" lon="2.520450240">
        <ele>282.77</ele>
        <time>2013-12-06T08:26:14Z</time>
      </trkpt>
      <trkpt lat="41.621870569" lon="2.520455102">
        <ele>283.25</ele>
        <time>2013-12-06T08:26:16Z</time>
      </trkpt>
      <trkpt lat="41.621968889" lon="2.520470273">
        <ele>284.69</ele>
        <time>2013-12-06T08:26:23Z</time>
      </trkpt>
      <trkpt lat="41.622086738" lon="2.520475805">
        <ele>287.09</ele>
        <time>2013-12-06T08:26:32Z</time>
      </trkpt>
      <trkpt lat="41.622132503" lon="2.520454934">
        <ele>287.57</ele>
        <time>2013-12-06T08:26:35Z</time>
      </trkpt>
      <trkpt lat="41.622203666" lon="2.520434817">
        <ele>289.01</ele>
        <time>2013-12-06T08:26:40Z</time>
      </trkpt>
      <trkpt lat="41.622323611" lon="2.520377653">
        <ele>290.46</ele>
        <time>2013-12-06T08:26:48Z</time>
      </trkpt>
      <trkpt lat="41.622458140" lon="2.520368265">
        <ele>292.38</ele>
        <time>2013-12-06T08:26:54Z</time>
      </trkpt>
      <trkpt lat="41.622495272" lon="2.520485779">
        <ele>293.34</ele>
        <time>2013-12-06T08:26:59Z</time>
      </trkpt>
      <trkpt lat="41.622467863" lon="2.520506818">
        <ele>293.34</ele>
        <time>2013-12-06T08:27:01Z</time>
      </trkpt>
      <trkpt lat="41.622437605" lon="2.520521319">
        <ele>294.30</ele>
        <time>2013-12-06T08:27:03Z</time>
      </trkpt>
      <trkpt lat="41.622292598" lon="2.520564066">
        <ele>296.70</ele>
        <time>2013-12-06T08:27:11Z</time>
      </trkpt>
      <trkpt lat="41.622156392" lon="2.520707816">
        <ele>298.15</ele>
        <time>2013-12-06T08:27:18Z</time>
      </trkpt>
      <trkpt lat="41.622032172" lon="2.520805800">
        <ele>300.55</ele>
        <time>2013-12-06T08:27:25Z</time>
      </trkpt>
      <trkpt lat="41.621923375" lon="2.520883333">
        <ele>301.99</ele>
        <time>2013-12-06T08:27:32Z</time>
      </trkpt>
      <trkpt lat="41.621759425" lon="2.521025825">
        <ele>302.95</ele>
        <time>2013-12-06T08:27:42Z</time>
      </trkpt>
      <trkpt lat="41.621631601" lon="2.521027669">
        <ele>304.39</ele>
        <time>2013-12-06T08:27:49Z</time>
      </trkpt>
      <trkpt lat="41.621476284" lon="2.520991460">
        <ele>304.88</ele>
        <time>2013-12-06T08:27:56Z</time>
      </trkpt>
      <trkpt lat="41.621332954" lon="2.521016019">
        <ele>306.32</ele>
        <time>2013-12-06T08:28:02Z</time>
      </trkpt>
      <trkpt lat="41.621176715" lon="2.521036890">
        <ele>307.28</ele>
        <time>2013-12-06T08:28:09Z</time>
      </trkpt>
      <trkpt lat="41.621155509" lon="2.521049965">
        <ele>307.28</ele>
        <time>2013-12-06T08:28:10Z</time>
      </trkpt>
      <trkpt lat="41.621157772" lon="2.521149961">
        <ele>308.24</ele>
        <time>2013-12-06T08:28:16Z</time>
      </trkpt>
      <trkpt lat="41.621279309" lon="2.521148285">
        <ele>310.16</ele>
        <time>2013-12-06T08:28:22Z</time>
      </trkpt>
      <trkpt lat="41.621361955" lon="2.521224644">
        <ele>312.09</ele>
        <time>2013-12-06T08:28:28Z</time>
      </trkpt>
      <trkpt lat="41.621449714" lon="2.521314666">
        <ele>313.53</ele>
        <time>2013-12-06T08:28:34Z</time>
      </trkpt>
      <trkpt lat="41.621591200" lon="2.521513820">
        <ele>316.41</ele>
        <time>2013-12-06T08:28:44Z</time>
      </trkpt>
      <trkpt lat="41.621688179" lon="2.521683218">
        <ele>317.85</ele>
        <time>2013-12-06T08:28:52Z</time>
      </trkpt>
      <trkpt lat="41.621786079" lon="2.521835517">
        <ele>320.26</ele>
        <time>2013-12-06T08:29:01Z</time>
      </trkpt>
      <trkpt lat="41.621838550" lon="2.521971556">
        <ele>321.70</ele>
        <time>2013-12-06T08:29:07Z</time>
      </trkpt>
      <trkpt lat="41.621910467" lon="2.522170207">
        <ele>323.62</ele>
        <time>2013-12-06T08:29:15Z</time>
      </trkpt>
      <trkpt lat="41.621951454" lon="2.522289816">
        <ele>324.58</ele>
        <time>2013-12-06T08:29:21Z</time>
      </trkpt>
      <trkpt lat="41.621941061" lon="2.522308676">
        <ele>325.06</ele>
        <time>2013-12-06T08:29:31Z</time>
      </trkpt>
      <trkpt lat="41.621947347" lon="2.522317141">
        <ele>324.58</ele>
        <time>2013-12-06T08:29:38Z</time>
      </trkpt>
      <trkpt lat="41.621970230" lon="2.522315633">
        <ele>324.58</ele>
        <time>2013-12-06T08:29:47Z</time>
      </trkpt>
      <trkpt lat="41.621974924" lon="2.522313789">
        <ele>325.06</ele>
        <time>2013-12-06T08:29:48Z</time>
      </trkpt>
      <trkpt lat="41.621991268" lon="2.522288811">
        <ele>325.06</ele>
        <time>2013-12-06T08:29:51Z</time>
      </trkpt>
      <trkpt lat="41.621979534" lon="2.522140116">
        <ele>326.50</ele>
        <time>2013-12-06T08:29:59Z</time>
      </trkpt>
      <trkpt lat="41.621967380" lon="2.522082113">
        <ele>327.47</ele>
        <time>2013-12-06T08:30:04Z</time>
      </trkpt>
      <trkpt lat="41.621970397" lon="2.522082281">
        <ele>327.47</ele>
        <time>2013-12-06T08:30:14Z</time>
      </trkpt>
      <trkpt lat="41.621977606" lon="2.522032995">
        <ele>327.47</ele>
        <time>2013-12-06T08:30:20Z</time>
      </trkpt>
      <trkpt lat="41.621994873" lon="2.521801654">
        <ele>328.91</ele>
        <time>2013-12-06T08:30:29Z</time>
      </trkpt>
      <trkpt lat="41.622061341" lon="2.521606356">
        <ele>330.35</ele>
        <time>2013-12-06T08:30:37Z</time>
      </trkpt>
      <trkpt lat="41.622131498" lon="2.521543576">
        <ele>331.31</ele>
        <time>2013-12-06T08:30:41Z</time>
      </trkpt>
      <trkpt lat="41.622278768" lon="2.521611385">
        <ele>333.23</ele>
        <time>2013-12-06T08:30:49Z</time>
      </trkpt>
      <trkpt lat="41.622393600" lon="2.521714986">
        <ele>334.20</ele>
        <time>2013-12-06T08:30:57Z</time>
      </trkpt>
      <trkpt lat="41.622409777" lon="2.521727223">
        <ele>334.20</ele>
        <time>2013-12-06T08:30:58Z</time>
      </trkpt>
      <trkpt lat="41.622599292" lon="2.521829985">
        <ele>336.60</ele>
        <time>2013-12-06T08:31:09Z</time>
      </trkpt>
      <trkpt lat="41.622691912" lon="2.521889413">
        <ele>338.04</ele>
        <time>2013-12-06T08:31:14Z</time>
      </trkpt>
      <trkpt lat="41.622837505" lon="2.521892598">
        <ele>339.48</ele>
        <time>2013-12-06T08:31:22Z</time>
      </trkpt>
      <trkpt lat="41.622966167" lon="2.521881953">
        <ele>340.44</ele>
        <time>2013-12-06T08:31:30Z</time>
      </trkpt>
      <trkpt lat="41.623111258" lon="2.521839708">
        <ele>342.37</ele>
        <time>2013-12-06T08:31:38Z</time>
      </trkpt>
      <trkpt lat="41.623164064" lon="2.521832919">
        <ele>342.85</ele>
        <time>2013-12-06T08:31:41Z</time>
      </trkpt>
      <trkpt lat="41.623315441" lon="2.521960827">
        <ele>343.33</ele>
        <time>2013-12-06T08:31:50Z</time>
      </trkpt>
      <trkpt lat="41.623429351" lon="2.522102146">
        <ele>344.29</ele>
        <time>2013-12-06T08:31:58Z</time>
      </trkpt>
      <trkpt lat="41.623562121" lon="2.522238519">
        <ele>345.73</ele>
        <time>2013-12-06T08:32:06Z</time>
      </trkpt>
      <trkpt lat="41.623728166" lon="2.522377072">
        <ele>346.21</ele>
        <time>2013-12-06T08:32:15Z</time>
      </trkpt>
      <trkpt lat="41.623898319" lon="2.522511518">
        <ele>346.69</ele>
        <time>2013-12-06T08:32:24Z</time>
      </trkpt>
      <trkpt lat="41.624025137" lon="2.522663230">
        <ele>347.65</ele>
        <time>2013-12-06T08:32:32Z</time>
      </trkpt>
      <trkpt lat="41.624163019" lon="2.522950143">
        <ele>348.13</ele>
        <time>2013-12-06T08:32:43Z</time>
      </trkpt>
      <trkpt lat="41.624227812" lon="2.523127755">
        <ele>348.62</ele>
        <time>2013-12-06T08:32:49Z</time>
      </trkpt>
      <trkpt lat="41.624315570" lon="2.523468899">
        <ele>349.10</ele>
        <time>2013-12-06T08:32:59Z</time>
      </trkpt>
      <trkpt lat="41.624399641" lon="2.523709124">
        <ele>351.02</ele>
        <time>2013-12-06T08:33:07Z</time>
      </trkpt>
      <trkpt lat="41.624507851" lon="2.523929233">
        <ele>352.46</ele>
        <time>2013-12-06T08:33:15Z</time>
      </trkpt>
      <trkpt lat="41.624613379" lon="2.524175828">
        <ele>354.38</ele>
        <time>2013-12-06T08:33:23Z</time>
      </trkpt>
      <trkpt lat="41.624702311" lon="2.524423765">
        <ele>355.34</ele>
        <time>2013-12-06T08:33:31Z</time>
      </trkpt>
      <trkpt lat="41.624756039" lon="2.524586626">
        <ele>356.79</ele>
        <time>2013-12-06T08:33:38Z</time>
      </trkpt>
      <trkpt lat="41.624778838" lon="2.524638845">
        <ele>356.79</ele>
        <time>2013-12-06T08:33:40Z</time>
      </trkpt>
      <trkpt lat="41.624847653" lon="2.524798939">
        <ele>356.79</ele>
        <time>2013-12-06T08:33:46Z</time>
      </trkpt>
      <trkpt lat="41.624862070" lon="2.524885776">
        <ele>357.75</ele>
        <time>2013-12-06T08:33:49Z</time>
      </trkpt>
      <trkpt lat="41.624952511" lon="2.525114099">
        <ele>358.23</ele>
        <time>2013-12-06T08:33:58Z</time>
      </trkpt>
      <trkpt lat="41.625003305" lon="2.525163887">
        <ele>358.23</ele>
        <time>2013-12-06T08:34:01Z</time>
      </trkpt>
      <trkpt lat="41.625106822" lon="2.525320042">
        <ele>358.71</ele>
        <time>2013-12-06T08:34:09Z</time>
      </trkpt>
      <trkpt lat="41.625187707" lon="2.525396485">
        <ele>358.71</ele>
        <time>2013-12-06T08:34:15Z</time>
      </trkpt>
      <trkpt lat="41.625308239" lon="2.525539396">
        <ele>359.19</ele>
        <time>2013-12-06T08:34:23Z</time>
      </trkpt>
      <trkpt lat="41.625410414" lon="2.525694294">
        <ele>359.67</ele>
        <time>2013-12-06T08:34:30Z</time>
      </trkpt>
      <trkpt lat="41.625452827" lon="2.525822118">
        <ele>360.15</ele>
        <time>2013-12-06T08:34:38Z</time>
      </trkpt>
      <trkpt lat="41.625459867" lon="2.525826309">
        <ele>360.15</ele>
        <time>2013-12-06T08:34:50Z</time>
      </trkpt>
      <trkpt lat="41.625512087" lon="2.525886743">
        <ele>360.15</ele>
        <time>2013-12-06T08:34:58Z</time>
      </trkpt>
      <trkpt lat="41.625541004" lon="2.525942398">
        <ele>360.15</ele>
        <time>2013-12-06T08:35:02Z</time>
      </trkpt>
      <trkpt lat="41.625581824" lon="2.525992774">
        <ele>360.15</ele>
        <time>2013-12-06T08:35:06Z</time>
      </trkpt>
      <trkpt lat="41.625714426" lon="2.526137948">
        <ele>360.15</ele>
        <time>2013-12-06T08:35:14Z</time>
      </trkpt>
      <trkpt lat="41.625939648" lon="2.526300725">
        <ele>360.15</ele>
        <time>2013-12-06T08:35:23Z</time>
      </trkpt>
      <trkpt lat="41.626154811" lon="2.526501136">
        <ele>360.15</ele>
        <time>2013-12-06T08:35:33Z</time>
      </trkpt>
      <trkpt lat="41.626252376" lon="2.526674725">
        <ele>360.15</ele>
        <time>2013-12-06T08:35:40Z</time>
      </trkpt>
      <trkpt lat="41.626338207" lon="2.526832054">
        <ele>360.63</ele>
        <time>2013-12-06T08:35:46Z</time>
      </trkpt>
      <trkpt lat="41.626346505" lon="2.526856948">
        <ele>360.63</ele>
        <time>2013-12-06T08:35:47Z</time>
      </trkpt>
      <trkpt lat="41.626354552" lon="2.526965074">
        <ele>361.11</ele>
        <time>2013-12-06T08:35:52Z</time>
      </trkpt>
      <trkpt lat="41.626442646" lon="2.527058533">
        <ele>361.11</ele>
        <time>2013-12-06T08:35:57Z</time>
      </trkpt>
      <trkpt lat="41.626456057" lon="2.527153500">
        <ele>362.07</ele>
        <time>2013-12-06T08:36:04Z</time>
      </trkpt>
      <trkpt lat="41.626446501" lon="2.527191470">
        <ele>362.07</ele>
        <time>2013-12-06T08:36:11Z</time>
      </trkpt>
      <trkpt lat="41.626477933" lon="2.527343517">
        <ele>362.07</ele>
        <time>2013-12-06T08:36:18Z</time>
      </trkpt>
      <trkpt lat="41.626541384" lon="2.527369417">
        <ele>362.55</ele>
        <time>2013-12-06T08:36:21Z</time>
      </trkpt>
      <trkpt lat="41.626704664" lon="2.527358940">
        <ele>364.48</ele>
        <time>2013-12-06T08:36:28Z</time>
      </trkpt>
      <trkpt lat="41.626827040" lon="2.527348127">
        <ele>366.40</ele>
        <time>2013-12-06T08:36:34Z</time>
      </trkpt>
      <trkpt lat="41.626964503" lon="2.527399760">
        <ele>368.80</ele>
        <time>2013-12-06T08:36:41Z</time>
      </trkpt>
      <trkpt lat="41.627082604" lon="2.527432952">
        <ele>370.24</ele>
        <time>2013-12-06T08:36:48Z</time>
      </trkpt>
      <trkpt lat="41.627102469" lon="2.527438233">
        <ele>370.73</ele>
        <time>2013-12-06T08:36:49Z</time>
      </trkpt>
      <trkpt lat="41.627260552" lon="2.527515095">
        <ele>372.17</ele>
        <time>2013-12-06T08:36:57Z</time>
      </trkpt>
      <trkpt lat="41.627399859" lon="2.527572846">
        <ele>374.09</ele>
        <time>2013-12-06T08:37:04Z</time>
      </trkpt>
      <trkpt lat="41.627563222" lon="2.527682314">
        <ele>375.53</ele>
        <time>2013-12-06T08:37:10Z</time>
      </trkpt>
      <trkpt lat="41.627675707" lon="2.527715422">
        <ele>376.01</ele>
        <time>2013-12-06T08:37:14Z</time>
      </trkpt>
      <trkpt lat="41.627746451" lon="2.527760182">
        <ele>376.49</ele>
        <time>2013-12-06T08:37:18Z</time>
      </trkpt>
      <trkpt lat="41.627805292" lon="2.527802678">
        <ele>377.94</ele>
        <time>2013-12-06T08:37:22Z</time>
      </trkpt>
      <trkpt lat="41.627896906" lon="2.527860010">
        <ele>377.94</ele>
        <time>2013-12-06T08:37:27Z</time>
      </trkpt>
      <trkpt lat="41.627949796" lon="2.527894879">
        <ele>378.42</ele>
        <time>2013-12-06T08:37:30Z</time>
      </trkpt>
      <trkpt lat="41.628083822" lon="2.527961934">
        <ele>379.86</ele>
        <time>2013-12-06T08:37:37Z</time>
      </trkpt>
      <trkpt lat="41.628149872" lon="2.528028738">
        <ele>380.34</ele>
        <time>2013-12-06T08:37:42Z</time>
      </trkpt>
      <trkpt lat="41.628195888" lon="2.528078526">
        <ele>380.82</ele>
        <time>2013-12-06T08:37:45Z</time>
      </trkpt>
      <trkpt lat="41.628228410" lon="2.528105181">
        <ele>380.82</ele>
        <time>2013-12-06T08:37:47Z</time>
      </trkpt>
      <trkpt lat="41.628322120" lon="2.528185982">
        <ele>382.26</ele>
        <time>2013-12-06T08:37:53Z</time>
      </trkpt>
      <trkpt lat="41.628358916" lon="2.528229317">
        <ele>382.74</ele>
        <time>2013-12-06T08:37:55Z</time>
      </trkpt>
      <trkpt lat="41.628510880" lon="2.528377509">
        <ele>383.70</ele>
        <time>2013-12-06T08:38:04Z</time>
      </trkpt>
      <trkpt lat="41.628609787" lon="2.528493179">
        <ele>384.66</ele>
        <time>2013-12-06T08:38:11Z</time>
      </trkpt>
      <trkpt lat="41.628657815" lon="2.528590242">
        <ele>384.66</ele>
        <time>2013-12-06T08:38:16Z</time>
      </trkpt>
      <trkpt lat="41.628746915" lon="2.528794592">
        <ele>384.66</ele>
        <time>2013-12-06T08:38:25Z</time>
      </trkpt>
      <trkpt lat="41.628803492" lon="2.528892996">
        <ele>384.66</ele>
        <time>2013-12-06T08:38:30Z</time>
      </trkpt>
      <trkpt lat="41.628930143" lon="2.529173119">
        <ele>384.66</ele>
        <time>2013-12-06T08:38:41Z</time>
      </trkpt>
      <trkpt lat="41.629020668" lon="2.529337488">
        <ele>384.66</ele>
        <time>2013-12-06T08:38:47Z</time>
      </trkpt>
      <trkpt lat="41.629172715" lon="2.529565057">
        <ele>384.66</ele>
        <time>2013-12-06T08:38:55Z</time>
      </trkpt>
      <trkpt lat="41.629255948" lon="2.529809473">
        <ele>384.66</ele>
        <time>2013-12-06T08:39:02Z</time>
      </trkpt>
      <trkpt lat="41.629349154" lon="2.530060511">
        <ele>386.59</ele>
        <time>2013-12-06T08:39:11Z</time>
      </trkpt>
      <trkpt lat="41.629383604" lon="2.530263018">
        <ele>387.55</ele>
        <time>2013-12-06T08:39:18Z</time>
      </trkpt>
      <trkpt lat="41.629396512" lon="2.530506764">
        <ele>389.47</ele>
        <time>2013-12-06T08:39:26Z</time>
      </trkpt>
      <trkpt lat="41.629413444" lon="2.530758388">
        <ele>391.39</ele>
        <time>2013-12-06T08:39:34Z</time>
      </trkpt>
      <trkpt lat="41.629429704" lon="2.530972211">
        <ele>392.36</ele>
        <time>2013-12-06T08:39:41Z</time>
      </trkpt>
      <trkpt lat="41.629436075" lon="2.531019485">
        <ele>392.36</ele>
        <time>2013-12-06T08:39:43Z</time>
      </trkpt>
      <trkpt lat="41.629481253" lon="2.531157032">
        <ele>392.84</ele>
        <time>2013-12-06T08:39:49Z</time>
      </trkpt>
      <trkpt lat="41.629629780" lon="2.531293238">
        <ele>392.84</ele>
        <time>2013-12-06T08:39:56Z</time>
      </trkpt>
      <trkpt lat="41.629761628" lon="2.531394994">
        <ele>391.39</ele>
        <time>2013-12-06T08:40:00Z</time>
      </trkpt>
      <trkpt lat="41.629849386" lon="2.531448890">
        <ele>390.91</ele>
        <time>2013-12-06T08:40:02Z</time>
      </trkpt>
      <trkpt lat="41.630332938" lon="2.531634633">
        <ele>388.51</ele>
        <time>2013-12-06T08:40:10Z</time>
      </trkpt>
      <trkpt lat="41.630655055" lon="2.531563051">
        <ele>387.07</ele>
        <time>2013-12-06T08:40:15Z</time>
      </trkpt>
      <trkpt lat="41.630835685" lon="2.531479400">
        <ele>386.59</ele>
        <time>2013-12-06T08:40:18Z</time>
      </trkpt>
      <trkpt lat="41.630953702" lon="2.531451991">
        <ele>386.59</ele>
        <time>2013-12-06T08:40:20Z</time>
      </trkpt>
      <trkpt lat="41.631160987" lon="2.531474035">
        <ele>386.11</ele>
        <time>2013-12-06T08:40:24Z</time>
      </trkpt>
      <trkpt lat="41.631464328" lon="2.531441011">
        <ele>385.63</ele>
        <time>2013-12-06T08:40:31Z</time>
      </trkpt>
      <trkpt lat="41.631631044" lon="2.531177651">
        <ele>384.66</ele>
        <time>2013-12-06T08:40:36Z</time>
      </trkpt>
      <trkpt lat="41.631743277" lon="2.531005487">
        <ele>384.18</ele>
        <time>2013-12-06T08:40:39Z</time>
      </trkpt>
      <trkpt lat="41.632019713" lon="2.530554373">
        <ele>381.78</ele>
        <time>2013-12-06T08:40:47Z</time>
      </trkpt>
      <trkpt lat="41.632051899" lon="2.530535011">
        <ele>381.30</ele>
        <time>2013-12-06T08:40:48Z</time>
      </trkpt>
      <trkpt lat="41.632246275" lon="2.530685717">
        <ele>379.86</ele>
        <time>2013-12-06T08:40:53Z</time>
      </trkpt>
      <trkpt lat="41.632349876" lon="2.530795688">
        <ele>378.90</ele>
        <time>2013-12-06T08:40:55Z</time>
      </trkpt>
      <trkpt lat="41.632632262" lon="2.531091821">
        <ele>378.42</ele>
        <time>2013-12-06T08:41:01Z</time>
      </trkpt>
      <trkpt lat="41.632910290" lon="2.531435982">
        <ele>376.97</ele>
        <time>2013-12-06T08:41:07Z</time>
      </trkpt>
      <trkpt lat="41.633127381" lon="2.531754326">
        <ele>376.97</ele>
        <time>2013-12-06T08:41:13Z</time>
      </trkpt>
      <trkpt lat="41.633188401" lon="2.531858849">
        <ele>378.42</ele>
        <time>2013-12-06T08:41:16Z</time>
      </trkpt>
      <trkpt lat="41.633246991" lon="2.532071414">
        <ele>379.86</ele>
        <time>2013-12-06T08:41:22Z</time>
      </trkpt>
      <trkpt lat="41.633247997" lon="2.532320943">
        <ele>382.26</ele>
        <time>2013-12-06T08:41:29Z</time>
      </trkpt>
      <trkpt lat="41.633236849" lon="2.532585057">
        <ele>385.15</ele>
        <time>2013-12-06T08:41:37Z</time>
      </trkpt>
      <trkpt lat="41.633226874" lon="2.532660578">
        <ele>386.59</ele>
        <time>2013-12-06T08:41:40Z</time>
      </trkpt>
      <trkpt lat="41.633293762" lon="2.532775158">
        <ele>387.55</ele>
        <time>2013-12-06T08:41:47Z</time>
      </trkpt>
      <trkpt lat="41.633307005" lon="2.532794269">
        <ele>387.55</ele>
        <time>2013-12-06T08:41:48Z</time>
      </trkpt>
      <trkpt lat="41.633461987" lon="2.533013540">
        <ele>384.66</ele>
        <time>2013-12-06T08:41:54Z</time>
      </trkpt>
      <trkpt lat="41.633647311" lon="2.533298860">
        <ele>380.34</ele>
        <time>2013-12-06T08:41:59Z</time>
      </trkpt>
      <trkpt lat="41.633744541" lon="2.533439592">
        <ele>378.42</ele>
        <time>2013-12-06T08:42:01Z</time>
      </trkpt>
      <trkpt lat="41.633844369" lon="2.533525925">
        <ele>377.45</ele>
        <time>2013-12-06T08:42:03Z</time>
      </trkpt>
      <trkpt lat="41.633962805" lon="2.533599686">
        <ele>378.90</ele>
        <time>2013-12-06T08:42:07Z</time>
      </trkpt>
      <trkpt lat="41.633982670" lon="2.533606140">
        <ele>378.90</ele>
        <time>2013-12-06T08:42:08Z</time>
      </trkpt>
      <trkpt lat="41.633999015" lon="2.533606475">
        <ele>378.90</ele>
        <time>2013-12-06T08:42:09Z</time>
      </trkpt>
      <trkpt lat="41.634121307" lon="2.533554675">
        <ele>379.38</ele>
        <time>2013-12-06T08:42:15Z</time>
      </trkpt>
      <trkpt lat="41.634304536" lon="2.533488542">
        <ele>376.49</ele>
        <time>2013-12-06T08:42:20Z</time>
      </trkpt>
      <trkpt lat="41.634521208" lon="2.533534223">
        <ele>374.57</ele>
        <time>2013-12-06T08:42:25Z</time>
      </trkpt>
      <trkpt lat="41.634622377" lon="2.533427103">
        <ele>373.61</ele>
        <time>2013-12-06T08:42:28Z</time>
      </trkpt>
      <trkpt lat="41.634662275" lon="2.533329034">
        <ele>373.61</ele>
        <time>2013-12-06T08:42:30Z</time>
      </trkpt>
      <trkpt lat="41.634654899" lon="2.533083025">
        <ele>371.69</ele>
        <time>2013-12-06T08:42:34Z</time>
      </trkpt>
      <trkpt lat="41.634629670" lon="2.532807093">
        <ele>370.24</ele>
        <time>2013-12-06T08:42:38Z</time>
      </trkpt>
      <trkpt lat="41.634623970" lon="2.532585140">
        <ele>368.32</ele>
        <time>2013-12-06T08:42:41Z</time>
      </trkpt>
      <trkpt lat="41.634702424" lon="2.532148779">
        <ele>366.88</ele>
        <time>2013-12-06T08:42:47Z</time>
      </trkpt>
      <trkpt lat="41.634827985" lon="2.531943673">
        <ele>368.32</ele>
        <time>2013-12-06T08:42:52Z</time>
      </trkpt>
      <trkpt lat="41.634984978" lon="2.531826913">
        <ele>371.69</ele>
        <time>2013-12-06T08:42:58Z</time>
      </trkpt>
      <trkpt lat="41.635006771" lon="2.531830350">
        <ele>371.69</ele>
        <time>2013-12-06T08:42:59Z</time>
      </trkpt>
      <trkpt lat="41.635155550" lon="2.531952139">
        <ele>373.61</ele>
        <time>2013-12-06T08:43:04Z</time>
      </trkpt>
      <trkpt lat="41.635282117" lon="2.532077700">
        <ele>374.57</ele>
        <time>2013-12-06T08:43:10Z</time>
      </trkpt>
      <trkpt lat="41.635400805" lon="2.532184066">
        <ele>374.57</ele>
        <time>2013-12-06T08:43:16Z</time>
      </trkpt>
      <trkpt lat="41.635541118" lon="2.532184988">
        <ele>374.57</ele>
        <time>2013-12-06T08:43:23Z</time>
      </trkpt>
      <trkpt lat="41.635587973" lon="2.532102427">
        <ele>374.57</ele>
        <time>2013-12-06T08:43:27Z</time>
      </trkpt>
      <trkpt lat="41.635593672" lon="2.531947194">
        <ele>374.57</ele>
        <time>2013-12-06T08:43:33Z</time>
      </trkpt>
      <trkpt lat="41.635640527" lon="2.531662963">
        <ele>374.57</ele>
        <time>2013-12-06T08:43:41Z</time>
      </trkpt>
      <trkpt lat="41.635681682" lon="2.531446962">
        <ele>376.49</ele>
        <time>2013-12-06T08:43:46Z</time>
      </trkpt>
      <trkpt lat="41.635712779" lon="2.531248311">
        <ele>377.94</ele>
        <time>2013-12-06T08:43:50Z</time>
      </trkpt>
      <trkpt lat="41.635828701" lon="2.530989561">
        <ele>381.30</ele>
        <time>2013-12-06T08:43:56Z</time>
      </trkpt>
      <trkpt lat="41.635957112" lon="2.530951675">
        <ele>381.78</ele>
        <time>2013-12-06T08:44:01Z</time>
      </trkpt>
      <trkpt lat="41.636113937" lon="2.530907167">
        <ele>383.22</ele>
        <time>2013-12-06T08:44:07Z</time>
      </trkpt>
      <trkpt lat="41.636227679" lon="2.530905826">
        <ele>383.22</ele>
        <time>2013-12-06T08:44:13Z</time>
      </trkpt>
      <trkpt lat="41.636263638" lon="2.530916555">
        <ele>383.22</ele>
        <time>2013-12-06T08:44:15Z</time>
      </trkpt>
      <trkpt lat="41.636305547" lon="2.530967768">
        <ele>383.22</ele>
        <time>2013-12-06T08:44:23Z</time>
      </trkpt>
      <trkpt lat="41.636322479" lon="2.530973636">
        <ele>383.22</ele>
        <time>2013-12-06T08:44:43Z</time>
      </trkpt>
      <trkpt lat="41.636318707" lon="2.530982437">
        <ele>383.22</ele>
        <time>2013-12-06T08:44:53Z</time>
      </trkpt>
      <trkpt lat="41.636311331" lon="2.530974390">
        <ele>383.22</ele>
        <time>2013-12-06T08:45:06Z</time>
      </trkpt>
      <trkpt lat="41.636310325" lon="2.530962572">
        <ele>383.22</ele>
        <time>2013-12-06T08:45:20Z</time>
      </trkpt>
      <trkpt lat="41.636318539" lon="2.530966846">
        <ele>383.22</ele>
        <time>2013-12-06T08:45:28Z</time>
      </trkpt>
      <trkpt lat="41.636338740" lon="2.531043206">
        <ele>383.22</ele>
        <time>2013-12-06T08:45:32Z</time>
      </trkpt>
      <trkpt lat="41.636363466" lon="2.531355683">
        <ele>383.22</ele>
        <time>2013-12-06T08:45:41Z</time>
      </trkpt>
      <trkpt lat="41.636368076" lon="2.531658186">
        <ele>383.22</ele>
        <time>2013-12-06T08:45:49Z</time>
      </trkpt>
      <trkpt lat="41.636446196" lon="2.531947613">
        <ele>382.74</ele>
        <time>2013-12-06T08:45:56Z</time>
      </trkpt>
      <trkpt lat="41.636536888" lon="2.532160513">
        <ele>382.74</ele>
        <time>2013-12-06T08:46:02Z</time>
      </trkpt>
      <trkpt lat="41.636512413" lon="2.532443989">
        <ele>382.74</ele>
        <time>2013-12-06T08:46:10Z</time>
      </trkpt>
      <trkpt lat="41.636488859" lon="2.532544321">
        <ele>382.74</ele>
        <time>2013-12-06T08:46:15Z</time>
      </trkpt>
      <trkpt lat="41.636503109" lon="2.532579441">
        <ele>382.74</ele>
        <time>2013-12-06T08:46:24Z</time>
      </trkpt>
      <trkpt lat="41.636450638" lon="2.532758311">
        <ele>382.74</ele>
        <time>2013-12-06T08:46:31Z</time>
      </trkpt>
      <trkpt lat="41.636543510" lon="2.532960482">
        <ele>382.74</ele>
        <time>2013-12-06T08:46:37Z</time>
      </trkpt>
      <trkpt lat="41.636730426" lon="2.533219483">
        <ele>382.74</ele>
        <time>2013-12-06T08:46:44Z</time>
      </trkpt>
      <trkpt lat="41.636746268" lon="2.533506060">
        <ele>382.74</ele>
        <time>2013-12-06T08:46:50Z</time>
      </trkpt>
      <trkpt lat="41.636670914" lon="2.533758439">
        <ele>382.74</ele>
        <time>2013-12-06T08:46:56Z</time>
      </trkpt>
      <trkpt lat="41.636583575" lon="2.533969915">
        <ele>382.74</ele>
        <time>2013-12-06T08:47:01Z</time>
      </trkpt>
      <trkpt lat="41.636696898" lon="2.534155825">
        <ele>382.74</ele>
        <time>2013-12-06T08:47:06Z</time>
      </trkpt>
      <trkpt lat="41.636781723" lon="2.534181725">
        <ele>382.74</ele>
        <time>2013-12-06T08:47:08Z</time>
      </trkpt>
      <trkpt lat="41.636881719" lon="2.534234196">
        <ele>381.30</ele>
        <time>2013-12-06T08:47:10Z</time>
      </trkpt>
      <trkpt lat="41.637210960" lon="2.534463609">
        <ele>379.86</ele>
        <time>2013-12-06T08:47:16Z</time>
      </trkpt>
      <trkpt lat="41.637324284" lon="2.534538794">
        <ele>378.90</ele>
        <time>2013-12-06T08:47:18Z</time>
      </trkpt>
      <trkpt lat="41.637668529" lon="2.534700817">
        <ele>377.94</ele>
        <time>2013-12-06T08:47:24Z</time>
      </trkpt>
      <trkpt lat="41.637788893" lon="2.534863509">
        <ele>376.49</ele>
        <time>2013-12-06T08:47:27Z</time>
      </trkpt>
      <trkpt lat="41.637867515" lon="2.534961661">
        <ele>375.53</ele>
        <time>2013-12-06T08:47:30Z</time>
      </trkpt>
      <trkpt lat="41.638041272" lon="2.534880022">
        <ele>374.57</ele>
        <time>2013-12-06T08:47:35Z</time>
      </trkpt>
      <trkpt lat="41.638221902" lon="2.534710959">
        <ele>374.09</ele>
        <time>2013-12-06T08:47:39Z</time>
      </trkpt>
      <trkpt lat="41.638489620" lon="2.534640467">
        <ele>373.13</ele>
        <time>2013-12-06T08:47:44Z</time>
      </trkpt>
      <trkpt lat="41.638539324" lon="2.534657985">
        <ele>373.13</ele>
        <time>2013-12-06T08:47:45Z</time>
      </trkpt>
      <trkpt lat="41.638990103" lon="2.534898630">
        <ele>372.17</ele>
        <time>2013-12-06T08:47:55Z</time>
      </trkpt>
      <trkpt lat="41.639197807" lon="2.534954202">
        <ele>372.17</ele>
        <time>2013-12-06T08:48:01Z</time>
      </trkpt>
      <trkpt lat="41.639340215" lon="2.534967277">
        <ele>373.61</ele>
        <time>2013-12-06T08:48:06Z</time>
      </trkpt>
      <trkpt lat="41.639393608" lon="2.534982616">
        <ele>374.09</ele>
        <time>2013-12-06T08:48:08Z</time>
      </trkpt>
      <trkpt lat="41.639546159" lon="2.534989825">
        <ele>376.01</ele>
        <time>2013-12-06T08:48:14Z</time>
      </trkpt>
      <trkpt lat="41.639669121" lon="2.535013881">
        <ele>376.97</ele>
        <time>2013-12-06T08:48:20Z</time>
      </trkpt>
      <trkpt lat="41.639852014" lon="2.535060987">
        <ele>378.90</ele>
        <time>2013-12-06T08:48:29Z</time>
      </trkpt>
      <trkpt lat="41.639938096" lon="2.535090156">
        <ele>379.38</ele>
        <time>2013-12-06T08:48:33Z</time>
      </trkpt>
      <trkpt lat="41.640137167" lon="2.535231056">
        <ele>380.82</ele>
        <time>2013-12-06T08:48:42Z</time>
      </trkpt>
      <trkpt lat="41.640291394" lon="2.535283359">
        <ele>381.78</ele>
        <time>2013-12-06T08:48:49Z</time>
      </trkpt>
      <trkpt lat="41.640530781" lon="2.535247568">
        <ele>381.78</ele>
        <time>2013-12-06T08:48:59Z</time>
      </trkpt>
      <trkpt lat="41.640683331" lon="2.535236672">
        <ele>382.74</ele>
        <time>2013-12-06T08:49:06Z</time>
      </trkpt>
      <trkpt lat="41.640811994" lon="2.535281683">
        <ele>383.70</ele>
        <time>2013-12-06T08:49:13Z</time>
      </trkpt>
      <trkpt lat="41.640965299" lon="2.535408082">
        <ele>383.70</ele>
        <time>2013-12-06T08:49:21Z</time>
      </trkpt>
      <trkpt lat="41.641093793" lon="2.535598602">
        <ele>383.70</ele>
        <time>2013-12-06T08:49:27Z</time>
      </trkpt>
      <trkpt lat="41.641194963" lon="2.535831284">
        <ele>384.18</ele>
        <time>2013-12-06T08:49:35Z</time>
      </trkpt>
      <trkpt lat="41.641283560" lon="2.536079137">
        <ele>385.63</ele>
        <time>2013-12-06T08:49:43Z</time>
      </trkpt>
      <trkpt lat="41.641345502" lon="2.536296312">
        <ele>387.07</ele>
        <time>2013-12-06T08:49:51Z</time>
      </trkpt>
      <trkpt lat="41.641416413" lon="2.536554642">
        <ele>388.99</ele>
        <time>2013-12-06T08:50:00Z</time>
      </trkpt>
      <trkpt lat="41.641499226" lon="2.536738541">
        <ele>390.43</ele>
        <time>2013-12-06T08:50:08Z</time>
      </trkpt>
      <trkpt lat="41.641620093" lon="2.536920261">
        <ele>391.87</ele>
        <time>2013-12-06T08:50:17Z</time>
      </trkpt>
      <trkpt lat="41.641658063" lon="2.537113967">
        <ele>392.36</ele>
        <time>2013-12-06T08:50:25Z</time>
      </trkpt>
      <trkpt lat="41.641598887" lon="2.537366849">
        <ele>392.36</ele>
        <time>2013-12-06T08:50:32Z</time>
      </trkpt>
      <trkpt lat="41.641613555" lon="2.537654264">
        <ele>392.36</ele>
        <time>2013-12-06T08:50:40Z</time>
      </trkpt>
      <trkpt lat="41.641632750" lon="2.537903374">
        <ele>393.32</ele>
        <time>2013-12-06T08:50:47Z</time>
      </trkpt>
      <trkpt lat="41.641738278" lon="2.538198417">
        <ele>393.80</ele>
        <time>2013-12-06T08:50:56Z</time>
      </trkpt>
      <trkpt lat="41.641892002" lon="2.538413916">
        <ele>393.80</ele>
        <time>2013-12-06T08:51:03Z</time>
      </trkpt>
      <trkpt lat="41.641990070" lon="2.538482648">
        <ele>392.84</ele>
        <time>2013-12-06T08:51:06Z</time>
      </trkpt>
      <trkpt lat="41.642230212" lon="2.538561689">
        <ele>392.36</ele>
        <time>2013-12-06T08:51:14Z</time>
      </trkpt>
      <trkpt lat="41.642450069" lon="2.538581051">
        <ele>393.80</ele>
        <time>2013-12-06T08:51:22Z</time>
      </trkpt>
      <trkpt lat="41.642653163" lon="2.538758999">
        <ele>394.76</ele>
        <time>2013-12-06T08:51:31Z</time>
      </trkpt>
      <trkpt lat="41.642711333" lon="2.538817337">
        <ele>394.76</ele>
        <time>2013-12-06T08:51:33Z</time>
      </trkpt>
      <trkpt lat="41.642853406" lon="2.538931918">
        <ele>393.32</ele>
        <time>2013-12-06T08:51:37Z</time>
      </trkpt>
      <trkpt lat="41.643087177" lon="2.539069381">
        <ele>391.39</ele>
        <time>2013-12-06T08:51:44Z</time>
      </trkpt>
      <trkpt lat="41.643286332" lon="2.539199636">
        <ele>388.99</ele>
        <time>2013-12-06T08:51:51Z</time>
      </trkpt>
      <trkpt lat="41.643398230" lon="2.539381355">
        <ele>386.59</ele>
        <time>2013-12-06T08:51:57Z</time>
      </trkpt>
      <trkpt lat="41.643534687" lon="2.539505240">
        <ele>384.66</ele>
        <time>2013-12-06T08:52:02Z</time>
      </trkpt>
      <trkpt lat="41.643788994" lon="2.539638177">
        <ele>381.30</ele>
        <time>2013-12-06T08:52:09Z</time>
      </trkpt>
      <trkpt lat="41.643884213" lon="2.539705064">
        <ele>380.82</ele>
        <time>2013-12-06T08:52:12Z</time>
      </trkpt>
      <trkpt lat="41.644091916" lon="2.539943194">
        <ele>376.97</ele>
        <time>2013-12-06T08:52:19Z</time>
      </trkpt>
      <trkpt lat="41.644236001" lon="2.540144779">
        <ele>374.57</ele>
        <time>2013-12-06T08:52:24Z</time>
      </trkpt>
      <trkpt lat="41.644298949" lon="2.540268244">
        <ele>373.13</ele>
        <time>2013-12-06T08:52:27Z</time>
      </trkpt>
      <trkpt lat="41.644322586" lon="2.540448455">
        <ele>370.73</ele>
        <time>2013-12-06T08:52:32Z</time>
      </trkpt>
      <trkpt lat="41.644458122" lon="2.540469326">
        <ele>367.84</ele>
        <time>2013-12-06T08:52:36Z</time>
      </trkpt>
      <trkpt lat="41.644570858" lon="2.540296910">
        <ele>365.92</ele>
        <time>2013-12-06T08:52:41Z</time>
      </trkpt>
      <trkpt lat="41.644591059" lon="2.540174283">
        <ele>364.48</ele>
        <time>2013-12-06T08:52:43Z</time>
      </trkpt>
      <trkpt lat="41.644613774" lon="2.540058445">
        <ele>363.52</ele>
        <time>2013-12-06T08:52:45Z</time>
      </trkpt>
      <trkpt lat="41.644731455" lon="2.539902961">
        <ele>361.11</ele>
        <time>2013-12-06T08:52:50Z</time>
      </trkpt>
      <trkpt lat="41.644765235" lon="2.539913857">
        <ele>360.63</ele>
        <time>2013-12-06T08:52:51Z</time>
      </trkpt>
      <trkpt lat="41.645056254" lon="2.540064229">
        <ele>357.27</ele>
        <time>2013-12-06T08:52:58Z</time>
      </trkpt>
      <trkpt lat="41.645326235" lon="2.540184761">
        <ele>355.34</ele>
        <time>2013-12-06T08:53:05Z</time>
      </trkpt>
      <trkpt lat="41.645408965" lon="2.540198255">
        <ele>354.86</ele>
        <time>2013-12-06T08:53:07Z</time>
      </trkpt>
      <trkpt lat="41.645675509" lon="2.540262126">
        <ele>352.94</ele>
        <time>2013-12-06T08:53:14Z</time>
      </trkpt>
      <trkpt lat="41.645876507" lon="2.540357344">
        <ele>354.86</ele>
        <time>2013-12-06T08:53:21Z</time>
      </trkpt>
      <trkpt lat="41.646018832" lon="2.540532274">
        <ele>356.79</ele>
        <time>2013-12-06T08:53:29Z</time>
      </trkpt>
      <trkpt lat="41.646177166" lon="2.540684406">
        <ele>359.19</ele>
        <time>2013-12-06T08:53:38Z</time>
      </trkpt>
      <trkpt lat="41.646326448" lon="2.540750371">
        <ele>361.59</ele>
        <time>2013-12-06T08:53:46Z</time>
      </trkpt>
      <trkpt lat="41.646474388" lon="2.540811895">
        <ele>364.96</ele>
        <time>2013-12-06T08:53:55Z</time>
      </trkpt>
      <trkpt lat="41.646609169" lon="2.540871741">
        <ele>367.36</ele>
        <time>2013-12-06T08:54:04Z</time>
      </trkpt>
      <trkpt lat="41.646761720" lon="2.540877106">
        <ele>369.76</ele>
        <time>2013-12-06T08:54:14Z</time>
      </trkpt>
      <trkpt lat="41.646871774" lon="2.540839052">
        <ele>371.21</ele>
        <time>2013-12-06T08:54:21Z</time>
      </trkpt>
      <trkpt lat="41.647064139" lon="2.540817343">
        <ele>372.17</ele>
        <time>2013-12-06T08:54:32Z</time>
      </trkpt>
      <trkpt lat="41.647219288" lon="2.540822037">
        <ele>373.13</ele>
        <time>2013-12-06T08:54:40Z</time>
      </trkpt>
      <trkpt lat="41.647370079" lon="2.540827150">
        <ele>374.09</ele>
        <time>2013-12-06T08:54:48Z</time>
      </trkpt>
      <trkpt lat="41.647543500" lon="2.540899653">
        <ele>377.45</ele>
        <time>2013-12-06T08:54:59Z</time>
      </trkpt>
      <trkpt lat="41.647679706" lon="2.541013898">
        <ele>379.38</ele>
        <time>2013-12-06T08:55:09Z</time>
      </trkpt>
      <trkpt lat="41.647794035" lon="2.541132754">
        <ele>381.78</ele>
        <time>2013-12-06T08:55:18Z</time>
      </trkpt>
      <trkpt lat="41.647945664" lon="2.541271642">
        <ele>383.70</ele>
        <time>2013-12-06T08:55:29Z</time>
      </trkpt>
      <trkpt lat="41.648070806" lon="2.541321514">
        <ele>385.63</ele>
        <time>2013-12-06T08:55:37Z</time>
      </trkpt>
      <trkpt lat="41.648231487" lon="2.541339619">
        <ele>386.11</ele>
        <time>2013-12-06T08:55:46Z</time>
      </trkpt>
      <trkpt lat="41.648391749" lon="2.541385301">
        <ele>387.55</ele>
        <time>2013-12-06T08:55:54Z</time>
      </trkpt>
      <trkpt lat="41.648541030" lon="2.541411201">
        <ele>388.99</ele>
        <time>2013-12-06T08:56:01Z</time>
      </trkpt>
      <trkpt lat="41.648751081" lon="2.541449171">
        <ele>389.95</ele>
        <time>2013-12-06T08:56:11Z</time>
      </trkpt>
      <trkpt lat="41.648926347" lon="2.541565847">
        <ele>391.39</ele>
        <time>2013-12-06T08:56:20Z</time>
      </trkpt>
      <trkpt lat="41.649067246" lon="2.541748740">
        <ele>392.36</ele>
        <time>2013-12-06T08:56:29Z</time>
      </trkpt>
      <trkpt lat="41.649102115" lon="2.541885365">
        <ele>392.84</ele>
        <time>2013-12-06T08:56:35Z</time>
      </trkpt>
      <trkpt lat="41.649102702" lon="2.542050153">
        <ele>393.32</ele>
        <time>2013-12-06T08:56:41Z</time>
      </trkpt>
      <trkpt lat="41.649079652" lon="2.542265149">
        <ele>394.28</ele>
        <time>2013-12-06T08:56:48Z</time>
      </trkpt>
      <trkpt lat="41.649113012" lon="2.542481654">
        <ele>394.76</ele>
        <time>2013-12-06T08:56:55Z</time>
      </trkpt>
      <trkpt lat="41.649180570" lon="2.542711234">
        <ele>395.72</ele>
        <time>2013-12-06T08:57:02Z</time>
      </trkpt>
      <trkpt lat="41.649276040" lon="2.542965457">
        <ele>396.20</ele>
        <time>2013-12-06T08:57:10Z</time>
      </trkpt>
      <trkpt lat="41.649356506" lon="2.543221776">
        <ele>397.16</ele>
        <time>2013-12-06T08:57:18Z</time>
      </trkpt>
      <trkpt lat="41.649424148" lon="2.543528302">
        <ele>398.60</ele>
        <time>2013-12-06T08:57:28Z</time>
      </trkpt>
      <trkpt lat="41.649469494" lon="2.543824770">
        <ele>400.53</ele>
        <time>2013-12-06T08:57:38Z</time>
      </trkpt>
      <trkpt lat="41.649474020" lon="2.544027360">
        <ele>401.01</ele>
        <time>2013-12-06T08:57:45Z</time>
      </trkpt>
      <trkpt lat="41.649501345" lon="2.544270435">
        <ele>402.45</ele>
        <time>2013-12-06T08:57:53Z</time>
      </trkpt>
      <trkpt lat="41.649597821" lon="2.544478390">
        <ele>402.93</ele>
        <time>2013-12-06T08:58:00Z</time>
      </trkpt>
      <trkpt lat="41.649749114" lon="2.544709899">
        <ele>404.37</ele>
        <time>2013-12-06T08:58:09Z</time>
      </trkpt>
      <trkpt lat="41.649928235" lon="2.544776786">
        <ele>405.33</ele>
        <time>2013-12-06T08:58:17Z</time>
      </trkpt>
      <trkpt lat="41.650096628" lon="2.544715012">
        <ele>407.26</ele>
        <time>2013-12-06T08:58:25Z</time>
      </trkpt>
      <trkpt lat="41.650316401" lon="2.544675533">
        <ele>408.70</ele>
        <time>2013-12-06T08:58:35Z</time>
      </trkpt>
      <trkpt lat="41.650565763" lon="2.544723896">
        <ele>410.62</ele>
        <time>2013-12-06T08:58:46Z</time>
      </trkpt>
      <trkpt lat="41.650723594" lon="2.544827748">
        <ele>412.06</ele>
        <time>2013-12-06T08:58:54Z</time>
      </trkpt>
      <trkpt lat="41.650893831" lon="2.545006702">
        <ele>414.47</ele>
        <time>2013-12-06T08:59:05Z</time>
      </trkpt>
      <trkpt lat="41.651029701" lon="2.545085911">
        <ele>415.91</ele>
        <time>2013-12-06T08:59:13Z</time>
      </trkpt>
      <trkpt lat="41.651230196" lon="2.545036039">
        <ele>417.35</ele>
        <time>2013-12-06T08:59:22Z</time>
      </trkpt>
      <trkpt lat="41.651393057" lon="2.544953393">
        <ele>418.79</ele>
        <time>2013-12-06T08:59:31Z</time>
      </trkpt>
      <trkpt lat="41.651589529" lon="2.544996979">
        <ele>421.68</ele>
        <time>2013-12-06T08:59:41Z</time>
      </trkpt>
      <trkpt lat="41.651748533" lon="2.544946855">
        <ele>423.60</ele>
        <time>2013-12-06T08:59:50Z</time>
      </trkpt>
      <trkpt lat="41.651864287" lon="2.544821965">
        <ele>425.52</ele>
        <time>2013-12-06T08:59:59Z</time>
      </trkpt>
      <trkpt lat="41.651974174" lon="2.544715766">
        <ele>427.44</ele>
        <time>2013-12-06T09:00:08Z</time>
      </trkpt>
      <trkpt lat="41.651987418" lon="2.544706714">
        <ele>427.92</ele>
        <time>2013-12-06T09:00:09Z</time>
      </trkpt>
      <trkpt lat="41.652060843" lon="2.544643263">
        <ele>429.37</ele>
        <time>2013-12-06T09:00:15Z</time>
      </trkpt>
      <trkpt lat="41.652187829" lon="2.544581991">
        <ele>431.29</ele>
        <time>2013-12-06T09:00:24Z</time>
      </trkpt>
      <trkpt lat="41.652334764" lon="2.544517785">
        <ele>433.21</ele>
        <time>2013-12-06T09:00:34Z</time>
      </trkpt>
      <trkpt lat="41.652486476" lon="2.544468919">
        <ele>433.69</ele>
        <time>2013-12-06T09:00:43Z</time>
      </trkpt>
      <trkpt lat="41.652651683" lon="2.544459112">
        <ele>434.65</ele>
        <time>2013-12-06T09:00:52Z</time>
      </trkpt>
      <trkpt lat="41.652800881" lon="2.544461711">
        <ele>436.10</ele>
        <time>2013-12-06T09:01:01Z</time>
      </trkpt>
      <trkpt lat="41.652970196" lon="2.544454921">
        <ele>437.54</ele>
        <time>2013-12-06T09:01:11Z</time>
      </trkpt>
      <trkpt lat="41.653114532" lon="2.544425668">
        <ele>439.94</ele>
        <time>2013-12-06T09:01:20Z</time>
      </trkpt>
      <trkpt lat="41.653279404" lon="2.544390883">
        <ele>442.34</ele>
        <time>2013-12-06T09:01:30Z</time>
      </trkpt>
      <trkpt lat="41.653392225" lon="2.544380322">
        <ele>444.27</ele>
        <time>2013-12-06T09:01:38Z</time>
      </trkpt>
      <trkpt lat="41.653482162" lon="2.544439834">
        <ele>445.23</ele>
        <time>2013-12-06T09:01:44Z</time>
      </trkpt>
      <trkpt lat="41.653604370" lon="2.544548798">
        <ele>447.15</ele>
        <time>2013-12-06T09:01:54Z</time>
      </trkpt>
      <trkpt lat="41.653685256" lon="2.544641921">
        <ele>449.07</ele>
        <time>2013-12-06T09:02:01Z</time>
      </trkpt>
      <trkpt lat="41.653714928" lon="2.544651142">
        <ele>449.07</ele>
        <time>2013-12-06T09:02:03Z</time>
      </trkpt>
      <trkpt lat="41.653762788" lon="2.544566652">
        <ele>450.03</ele>
        <time>2013-12-06T09:02:09Z</time>
      </trkpt>
      <trkpt lat="41.653782318" lon="2.544393482">
        <ele>452.44</ele>
        <time>2013-12-06T09:02:18Z</time>
      </trkpt>
      <trkpt lat="41.653885583" lon="2.544188041">
        <ele>452.44</ele>
        <time>2013-12-06T09:02:26Z</time>
      </trkpt>
      <trkpt lat="41.653988429" lon="2.543976985">
        <ele>451.96</ele>
        <time>2013-12-06T09:02:33Z</time>
      </trkpt>
      <trkpt lat="41.654108039" lon="2.543840360">
        <ele>452.44</ele>
        <time>2013-12-06T09:02:41Z</time>
      </trkpt>
      <trkpt lat="41.654226727" lon="2.543813035">
        <ele>452.44</ele>
        <time>2013-12-06T09:02:46Z</time>
      </trkpt>
      <trkpt lat="41.654408027" lon="2.543768611">
        <ele>451.48</ele>
        <time>2013-12-06T09:02:51Z</time>
      </trkpt>
      <trkpt lat="41.654486566" lon="2.543738017">
        <ele>451.00</ele>
        <time>2013-12-06T09:02:53Z</time>
      </trkpt>
      <trkpt lat="41.654661412" lon="2.543621592">
        <ele>451.00</ele>
        <time>2013-12-06T09:02:59Z</time>
      </trkpt>
      <trkpt lat="41.654817902" lon="2.543530481">
        <ele>451.00</ele>
        <time>2013-12-06T09:03:06Z</time>
      </trkpt>
      <trkpt lat="41.654878839" lon="2.543479435">
        <ele>451.00</ele>
        <time>2013-12-06T09:03:08Z</time>
      </trkpt>
      <trkpt lat="41.654949498" lon="2.543396874">
        <ele>451.00</ele>
        <time>2013-12-06T09:03:10Z</time>
      </trkpt>
      <trkpt lat="41.655080507" lon="2.543307942">
        <ele>450.52</ele>
        <time>2013-12-06T09:03:13Z</time>
      </trkpt>
      <trkpt lat="41.655210092" lon="2.543154385">
        <ele>450.03</ele>
        <time>2013-12-06T09:03:18Z</time>
      </trkpt>
      <trkpt lat="41.655356859" lon="2.542880045">
        <ele>451.96</ele>
        <time>2013-12-06T09:03:28Z</time>
      </trkpt>
      <trkpt lat="41.655465069" lon="2.542816594">
        <ele>451.96</ele>
        <time>2013-12-06T09:03:33Z</time>
      </trkpt>
      <trkpt lat="41.655562802" lon="2.542827156">
        <ele>449.55</ele>
        <time>2013-12-06T09:03:36Z</time>
      </trkpt>
      <trkpt lat="41.655785928" lon="2.542893876">
        <ele>445.71</ele>
        <time>2013-12-06T09:03:42Z</time>
      </trkpt>
      <trkpt lat="41.655996398" lon="2.542970151">
        <ele>442.34</ele>
        <time>2013-12-06T09:03:48Z</time>
      </trkpt>
      <trkpt lat="41.656097149" lon="2.543000661">
        <ele>441.38</ele>
        <time>2013-12-06T09:03:51Z</time>
      </trkpt>
      <trkpt lat="41.656287921" lon="2.543072326">
        <ele>439.46</ele>
        <time>2013-12-06T09:03:56Z</time>
      </trkpt>
      <trkpt lat="41.656465701" lon="2.542911897">
        <ele>439.46</ele>
        <time>2013-12-06T09:04:04Z</time>
      </trkpt>
      <trkpt lat="41.656505766" lon="2.542798322">
        <ele>440.42</ele>
        <time>2013-12-06T09:04:08Z</time>
      </trkpt>
      <trkpt lat="41.656555220" lon="2.542546446">
        <ele>440.90</ele>
        <time>2013-12-06T09:04:14Z</time>
      </trkpt>
      <trkpt lat="41.656580198" lon="2.542349974">
        <ele>438.98</ele>
        <time>2013-12-06T09:04:19Z</time>
      </trkpt>
      <trkpt lat="41.656602661" lon="2.542142019">
        <ele>435.13</ele>
        <time>2013-12-06T09:04:25Z</time>
      </trkpt>
      <trkpt lat="41.656556561" lon="2.542044873">
        <ele>432.73</ele>
        <time>2013-12-06T09:04:28Z</time>
      </trkpt>
      <trkpt lat="41.656610540" lon="2.541936578">
        <ele>430.81</ele>
        <time>2013-12-06T09:04:33Z</time>
      </trkpt>
      <trkpt lat="41.656626130" lon="2.541941691">
        <ele>430.81</ele>
        <time>2013-12-06T09:04:34Z</time>
      </trkpt>
      <trkpt lat="41.656800055" lon="2.542056020">
        <ele>428.40</ele>
        <time>2013-12-06T09:04:42Z</time>
      </trkpt>
      <trkpt lat="41.656917485" lon="2.542168422">
        <ele>427.44</ele>
        <time>2013-12-06T09:04:48Z</time>
      </trkpt>
      <trkpt lat="41.656922682" lon="2.542187868">
        <ele>427.44</ele>
        <time>2013-12-06T09:04:49Z</time>
      </trkpt>
      <trkpt lat="41.656943134" lon="2.542266993">
        <ele>427.44</ele>
        <time>2013-12-06T09:04:53Z</time>
      </trkpt>
      <trkpt lat="41.657029803" lon="2.542509481">
        <ele>426.96</ele>
        <time>2013-12-06T09:05:01Z</time>
      </trkpt>
      <trkpt lat="41.657145054" lon="2.542726657">
        <ele>425.04</ele>
        <time>2013-12-06T09:05:07Z</time>
      </trkpt>
      <trkpt lat="41.657342280" lon="2.542958500">
        <ele>421.68</ele>
        <time>2013-12-06T09:05:13Z</time>
      </trkpt>
      <trkpt lat="41.657376395" lon="2.542957075">
        <ele>421.19</ele>
        <time>2013-12-06T09:05:14Z</time>
      </trkpt>
      <trkpt lat="41.657436577" lon="2.542942826">
        <ele>421.19</ele>
        <time>2013-12-06T09:05:16Z</time>
      </trkpt>
      <trkpt lat="41.657469182" lon="2.542869652">
        <ele>422.64</ele>
        <time>2013-12-06T09:05:20Z</time>
      </trkpt>
      <trkpt lat="41.657457867" lon="2.542824138">
        <ele>423.60</ele>
        <time>2013-12-06T09:05:22Z</time>
      </trkpt>
      <trkpt lat="41.657441941" lon="2.542619452">
        <ele>425.52</ele>
        <time>2013-12-06T09:05:29Z</time>
      </trkpt>
      <trkpt lat="41.657490640" lon="2.542444186">
        <ele>426.48</ele>
        <time>2013-12-06T09:05:36Z</time>
      </trkpt>
      <trkpt lat="41.657570352" lon="2.542238830">
        <ele>426.96</ele>
        <time>2013-12-06T09:05:44Z</time>
      </trkpt>
      <trkpt lat="41.657574962" lon="2.541967759">
        <ele>426.96</ele>
        <time>2013-12-06T09:05:51Z</time>
      </trkpt>
      <trkpt lat="41.657610669" lon="2.541795511">
        <ele>428.40</ele>
        <time>2013-12-06T09:05:58Z</time>
      </trkpt>
      <trkpt lat="41.657672024" lon="2.541622592">
        <ele>429.37</ele>
        <time>2013-12-06T09:06:05Z</time>
      </trkpt>
      <trkpt lat="41.657684010" lon="2.541527793">
        <ele>429.85</ele>
        <time>2013-12-06T09:06:09Z</time>
      </trkpt>
      <trkpt lat="41.657737990" lon="2.541455457">
        <ele>430.81</ele>
        <time>2013-12-06T09:06:14Z</time>
      </trkpt>
      <trkpt lat="41.657929349" lon="2.541515723">
        <ele>428.89</ele>
        <time>2013-12-06T09:06:22Z</time>
      </trkpt>
      <trkpt lat="41.657966648" lon="2.541533409">
        <ele>428.89</ele>
        <time>2013-12-06T09:06:23Z</time>
      </trkpt>
      <trkpt lat="41.658027836" lon="2.541576073">
        <ele>428.40</ele>
        <time>2013-12-06T09:06:25Z</time>
      </trkpt>
      <trkpt lat="41.658208047" lon="2.541674476">
        <ele>424.56</ele>
        <time>2013-12-06T09:06:29Z</time>
      </trkpt>
      <trkpt lat="41.658259596" lon="2.541718649">
        <ele>424.56</ele>
        <time>2013-12-06T09:06:30Z</time>
      </trkpt>
      <trkpt lat="41.658349282" lon="2.541787883">
        <ele>423.60</ele>
        <time>2013-12-06T09:06:32Z</time>
      </trkpt>
      <trkpt lat="41.658538881" lon="2.541945631">
        <ele>422.64</ele>
        <time>2013-12-06T09:06:37Z</time>
      </trkpt>
      <trkpt lat="41.658587915" lon="2.542026013">
        <ele>421.68</ele>
        <time>2013-12-06T09:06:39Z</time>
      </trkpt>
      <trkpt lat="41.658789500" lon="2.542124333">
        <ele>418.31</ele>
        <time>2013-12-06T09:06:44Z</time>
      </trkpt>
      <trkpt lat="41.658850185" lon="2.542048980">
        <ele>417.35</ele>
        <time>2013-12-06T09:06:46Z</time>
      </trkpt>
      <trkpt lat="41.658841216" lon="2.541872624">
        <ele>416.87</ele>
        <time>2013-12-06T09:06:50Z</time>
      </trkpt>
      <trkpt lat="41.658819172" lon="2.541810850">
        <ele>416.39</ele>
        <time>2013-12-06T09:06:52Z</time>
      </trkpt>
      <trkpt lat="41.658728898" lon="2.541620162">
        <ele>418.79</ele>
        <time>2013-12-06T09:06:59Z</time>
      </trkpt>
      <trkpt lat="41.658719175" lon="2.541592501">
        <ele>418.79</ele>
        <time>2013-12-06T09:07:00Z</time>
      </trkpt>
      <trkpt lat="41.658746165" lon="2.541402903">
        <ele>418.79</ele>
        <time>2013-12-06T09:07:06Z</time>
      </trkpt>
      <trkpt lat="41.658831493" lon="2.541245993">
        <ele>419.27</ele>
        <time>2013-12-06T09:07:12Z</time>
      </trkpt>
      <trkpt lat="41.658824704" lon="2.541060669">
        <ele>419.75</ele>
        <time>2013-12-06T09:07:18Z</time>
      </trkpt>
      <trkpt lat="41.658690090" lon="2.540889846">
        <ele>421.68</ele>
        <time>2013-12-06T09:07:26Z</time>
      </trkpt>
      <trkpt lat="41.658593615" lon="2.540721621">
        <ele>424.56</ele>
        <time>2013-12-06T09:07:33Z</time>
      </trkpt>
      <trkpt lat="41.658474592" lon="2.540532610">
        <ele>426.48</ele>
        <time>2013-12-06T09:07:42Z</time>
      </trkpt>
      <trkpt lat="41.658459839" lon="2.540437140">
        <ele>427.44</ele>
        <time>2013-12-06T09:07:46Z</time>
      </trkpt>
      <trkpt lat="41.658522033" lon="2.540288026">
        <ele>428.89</ele>
        <time>2013-12-06T09:07:55Z</time>
      </trkpt>
      <trkpt lat="41.658613899" lon="2.540177385">
        <ele>430.33</ele>
        <time>2013-12-06T09:08:03Z</time>
      </trkpt>
      <trkpt lat="41.658753457" lon="2.540009411">
        <ele>432.25</ele>
        <time>2013-12-06T09:08:15Z</time>
      </trkpt>
      <trkpt lat="41.658854543" lon="2.539902710">
        <ele>433.69</ele>
        <time>2013-12-06T09:08:23Z</time>
      </trkpt>
      <trkpt lat="41.658870972" lon="2.539876139">
        <ele>434.65</ele>
        <time>2013-12-06T09:08:25Z</time>
      </trkpt>
      <trkpt lat="41.658878348" lon="2.539811598">
        <ele>435.61</ele>
        <time>2013-12-06T09:08:29Z</time>
      </trkpt>
      <trkpt lat="41.658862841" lon="2.539685451">
        <ele>436.10</ele>
        <time>2013-12-06T09:08:34Z</time>
      </trkpt>
      <trkpt lat="41.658782543" lon="2.539660808">
        <ele>437.06</ele>
        <time>2013-12-06T09:08:39Z</time>
      </trkpt>
      <trkpt lat="41.658632423" lon="2.539628035">
        <ele>437.06</ele>
        <time>2013-12-06T09:08:46Z</time>
      </trkpt>
      <trkpt lat="41.658487081" lon="2.539494259">
        <ele>437.06</ele>
        <time>2013-12-06T09:08:53Z</time>
      </trkpt>
      <trkpt lat="41.658356071" lon="2.539474059">
        <ele>437.06</ele>
        <time>2013-12-06T09:08:59Z</time>
      </trkpt>
      <trkpt lat="41.658152056" lon="2.539431814">
        <ele>437.54</ele>
        <time>2013-12-06T09:09:08Z</time>
      </trkpt>
      <trkpt lat="41.658013838" lon="2.539253364">
        <ele>438.50</ele>
        <time>2013-12-06T09:09:17Z</time>
      </trkpt>
      <trkpt lat="41.658088102" lon="2.539062927">
        <ele>438.98</ele>
        <time>2013-12-06T09:09:25Z</time>
      </trkpt>
      <trkpt lat="41.658175022" lon="2.538937953">
        <ele>440.42</ele>
        <time>2013-12-06T09:09:32Z</time>
      </trkpt>
      <trkpt lat="41.658274264" lon="2.538771739">
        <ele>442.34</ele>
        <time>2013-12-06T09:09:41Z</time>
      </trkpt>
      <trkpt lat="41.658285244" lon="2.538705019">
        <ele>442.82</ele>
        <time>2013-12-06T09:09:44Z</time>
      </trkpt>
      <trkpt lat="41.658278874" lon="2.538616926">
        <ele>443.79</ele>
        <time>2013-12-06T09:09:48Z</time>
      </trkpt>
      <trkpt lat="41.658236462" lon="2.538407546">
        <ele>445.23</ele>
        <time>2013-12-06T09:09:58Z</time>
      </trkpt>
      <trkpt lat="41.658213328" lon="2.538321128">
        <ele>445.71</ele>
        <time>2013-12-06T09:10:02Z</time>
      </trkpt>
      <trkpt lat="41.658199414" lon="2.538189616">
        <ele>446.67</ele>
        <time>2013-12-06T09:10:08Z</time>
      </trkpt>
      <trkpt lat="41.658214250" lon="2.537968502">
        <ele>446.67</ele>
        <time>2013-12-06T09:10:15Z</time>
      </trkpt>
      <trkpt lat="41.658285663" lon="2.537734982">
        <ele>446.67</ele>
        <time>2013-12-06T09:10:22Z</time>
      </trkpt>
      <trkpt lat="41.658327657" lon="2.537602380">
        <ele>446.67</ele>
        <time>2013-12-06T09:10:27Z</time>
      </trkpt>
      <trkpt lat="41.658220285" lon="2.537351342">
        <ele>447.63</ele>
        <time>2013-12-06T09:10:36Z</time>
      </trkpt>
      <trkpt lat="41.658157756" lon="2.537178675">
        <ele>450.03</ele>
        <time>2013-12-06T09:10:44Z</time>
      </trkpt>
      <trkpt lat="41.658135041" lon="2.537036434">
        <ele>451.48</ele>
        <time>2013-12-06T09:10:51Z</time>
      </trkpt>
      <trkpt lat="41.658122468" lon="2.536894277">
        <ele>452.92</ele>
        <time>2013-12-06T09:10:58Z</time>
      </trkpt>
      <trkpt lat="41.658111236" lon="2.536810374">
        <ele>454.36</ele>
        <time>2013-12-06T09:11:02Z</time>
      </trkpt>
      <trkpt lat="41.658111068" lon="2.536583392">
        <ele>456.28</ele>
        <time>2013-12-06T09:11:12Z</time>
      </trkpt>
      <trkpt lat="41.658174436" lon="2.536442325">
        <ele>456.76</ele>
        <time>2013-12-06T09:11:19Z</time>
      </trkpt>
      <trkpt lat="41.658293794" lon="2.536250798">
        <ele>455.32</ele>
        <time>2013-12-06T09:11:25Z</time>
      </trkpt>
      <trkpt lat="41.658318018" lon="2.535960617">
        <ele>454.84</ele>
        <time>2013-12-06T09:11:32Z</time>
      </trkpt>
      <trkpt lat="41.658317263" lon="2.535910409">
        <ele>454.36</ele>
        <time>2013-12-06T09:11:38Z</time>
      </trkpt>
      <trkpt lat="41.658332937" lon="2.535881408">
        <ele>454.36</ele>
        <time>2013-12-06T09:11:44Z</time>
      </trkpt>
      <trkpt lat="41.658350791" lon="2.535889622">
        <ele>454.36</ele>
        <time>2013-12-06T09:11:51Z</time>
      </trkpt>
      <trkpt lat="41.658362945" lon="2.535908230">
        <ele>454.36</ele>
        <time>2013-12-06T09:11:55Z</time>
      </trkpt>
      <trkpt lat="41.658505269" lon="2.536004119">
        <ele>455.80</ele>
        <time>2013-12-06T09:12:04Z</time>
      </trkpt>
      <trkpt lat="41.658694365" lon="2.536094224">
        <ele>457.72</ele>
        <time>2013-12-06T09:12:14Z</time>
      </trkpt>
      <trkpt lat="41.658872564" lon="2.536173014">
        <ele>458.69</ele>
        <time>2013-12-06T09:12:22Z</time>
      </trkpt>
      <trkpt lat="41.658965352" lon="2.536191287">
        <ele>458.69</ele>
        <time>2013-12-06T09:12:28Z</time>
      </trkpt>
      <trkpt lat="41.658990833" lon="2.536201010">
        <ele>457.72</ele>
        <time>2013-12-06T09:12:30Z</time>
      </trkpt>
      <trkpt lat="41.659005920" lon="2.536209056">
        <ele>457.72</ele>
        <time>2013-12-06T09:12:31Z</time>
      </trkpt>
      <trkpt lat="41.659094098" lon="2.536280889">
        <ele>455.32</ele>
        <time>2013-12-06T09:12:35Z</time>
      </trkpt>
      <trkpt lat="41.659215049" lon="2.536355488">
        <ele>453.88</ele>
        <time>2013-12-06T09:12:38Z</time>
      </trkpt>
      <trkpt lat="41.659317476" lon="2.536516421">
        <ele>451.48</ele>
        <time>2013-12-06T09:12:41Z</time>
      </trkpt>
      <trkpt lat="41.659578488" lon="2.536768465">
        <ele>447.63</ele>
        <time>2013-12-06T09:12:47Z</time>
      </trkpt>
      <trkpt lat="41.659657613" lon="2.536811715">
        <ele>447.15</ele>
        <time>2013-12-06T09:12:49Z</time>
      </trkpt>
      <trkpt lat="41.659729111" lon="2.536916573">
        <ele>443.31</ele>
        <time>2013-12-06T09:12:53Z</time>
      </trkpt>
      <trkpt lat="41.659781163" lon="2.537021347">
        <ele>440.42</ele>
        <time>2013-12-06T09:12:56Z</time>
      </trkpt>
      <trkpt lat="41.659816283" lon="2.537094353">
        <ele>438.50</ele>
        <time>2013-12-06T09:12:58Z</time>
      </trkpt>
      <trkpt lat="41.659977299" lon="2.537181692">
        <ele>435.13</ele>
        <time>2013-12-06T09:13:04Z</time>
      </trkpt>
      <trkpt lat="41.660037230" lon="2.537206503">
        <ele>434.17</ele>
        <time>2013-12-06T09:13:06Z</time>
      </trkpt>
      <trkpt lat="41.660074110" lon="2.537228966">
        <ele>433.69</ele>
        <time>2013-12-06T09:13:07Z</time>
      </trkpt>
      <trkpt lat="41.660212244" lon="2.537340613">
        <ele>430.33</ele>
        <time>2013-12-06T09:13:11Z</time>
      </trkpt>
      <trkpt lat="41.660273348" lon="2.537377661">
        <ele>429.85</ele>
        <time>2013-12-06T09:13:13Z</time>
      </trkpt>
      <trkpt lat="41.660367058" lon="2.537354946">
        <ele>426.96</ele>
        <time>2013-12-06T09:13:17Z</time>
      </trkpt>
      <trkpt lat="41.660414164" lon="2.537387887">
        <ele>425.52</ele>
        <time>2013-12-06T09:13:20Z</time>
      </trkpt>
      <trkpt lat="41.660435873" lon="2.537423175">
        <ele>425.04</ele>
        <time>2013-12-06T09:13:22Z</time>
      </trkpt>
      <trkpt lat="41.660494463" lon="2.537512442">
        <ele>422.16</ele>
        <time>2013-12-06T09:13:25Z</time>
      </trkpt>
      <trkpt lat="41.660591860" lon="2.537494170">
        <ele>420.23</ele>
        <time>2013-12-06T09:13:31Z</time>
      </trkpt>
      <trkpt lat="41.660687582" lon="2.537430886">
        <ele>416.87</ele>
        <time>2013-12-06T09:13:37Z</time>
      </trkpt>
      <trkpt lat="41.660702837" lon="2.537410854">
        <ele>416.39</ele>
        <time>2013-12-06T09:13:38Z</time>
      </trkpt>
      <trkpt lat="41.660721780" lon="2.537331728">
        <ele>414.95</ele>
        <time>2013-12-06T09:13:43Z</time>
      </trkpt>
      <trkpt lat="41.660745249" lon="2.537158055">
        <ele>411.58</ele>
        <time>2013-12-06T09:13:49Z</time>
      </trkpt>
      <trkpt lat="41.660766204" lon="2.537051773">
        <ele>410.14</ele>
        <time>2013-12-06T09:13:53Z</time>
      </trkpt>
      <trkpt lat="41.660788751" lon="2.537010115">
        <ele>409.66</ele>
        <time>2013-12-06T09:14:00Z</time>
      </trkpt>
      <trkpt lat="41.660784476" lon="2.536995279">
        <ele>409.66</ele>
        <time>2013-12-06T09:14:18Z</time>
      </trkpt>
      <trkpt lat="41.660804928" lon="2.537002571">
        <ele>409.66</ele>
        <time>2013-12-06T09:14:36Z</time>
      </trkpt>
      <trkpt lat="41.660818255" lon="2.536973234">
        <ele>409.66</ele>
        <time>2013-12-06T09:14:43Z</time>
      </trkpt>
      <trkpt lat="41.660826554" lon="2.536956303">
        <ele>409.66</ele>
        <time>2013-12-06T09:14:49Z</time>
      </trkpt>
      <trkpt lat="41.660962508" lon="2.536784306">
        <ele>407.26</ele>
        <time>2013-12-06T09:14:56Z</time>
      </trkpt>
      <trkpt lat="41.661044232" lon="2.536630750">
        <ele>404.37</ele>
        <time>2013-12-06T09:15:01Z</time>
      </trkpt>
      <trkpt lat="41.661058397" lon="2.536608538">
        <ele>404.37</ele>
        <time>2013-12-06T09:15:13Z</time>
      </trkpt>
      <trkpt lat="41.661063426" lon="2.536597390">
        <ele>404.37</ele>
        <time>2013-12-06T09:15:26Z</time>
      </trkpt>
      <trkpt lat="41.661067282" lon="2.536582470">
        <ele>403.41</ele>
        <time>2013-12-06T09:15:34Z</time>
      </trkpt>
      <trkpt lat="41.661122267" lon="2.536522372">
        <ele>403.41</ele>
        <time>2013-12-06T09:15:38Z</time>
      </trkpt>
      <trkpt lat="41.661163674" lon="2.536475852">
        <ele>401.97</ele>
        <time>2013-12-06T09:15:40Z</time>
      </trkpt>
      <trkpt lat="41.661251516" lon="2.536451629">
        <ele>401.01</ele>
        <time>2013-12-06T09:15:44Z</time>
      </trkpt>
      <trkpt lat="41.661443881" lon="2.536443750">
        <ele>399.57</ele>
        <time>2013-12-06T09:15:50Z</time>
      </trkpt>
      <trkpt lat="41.661461818" lon="2.536378957">
        <ele>399.57</ele>
        <time>2013-12-06T09:15:52Z</time>
      </trkpt>
      <trkpt lat="41.661443881" lon="2.536148120">
        <ele>399.57</ele>
        <time>2013-12-06T09:15:58Z</time>
      </trkpt>
      <trkpt lat="41.661438684" lon="2.535908146">
        <ele>397.64</ele>
        <time>2013-12-06T09:16:02Z</time>
      </trkpt>
      <trkpt lat="41.661512948" lon="2.535624167">
        <ele>395.72</ele>
        <time>2013-12-06T09:16:07Z</time>
      </trkpt>
      <trkpt lat="41.661642951" lon="2.535326358">
        <ele>396.68</ele>
        <time>2013-12-06T09:16:15Z</time>
      </trkpt>
      <trkpt lat="41.661756107" lon="2.535219573">
        <ele>397.64</ele>
        <time>2013-12-06T09:16:20Z</time>
      </trkpt>
      <trkpt lat="41.661895665" lon="2.535307499">
        <ele>397.64</ele>
        <time>2013-12-06T09:16:25Z</time>
      </trkpt>
      <trkpt lat="41.662071937" lon="2.535498271">
        <ele>397.64</ele>
        <time>2013-12-06T09:16:32Z</time>
      </trkpt>
      <trkpt lat="41.662163551" lon="2.535561470">
        <ele>397.64</ele>
        <time>2013-12-06T09:16:35Z</time>
      </trkpt>
      <trkpt lat="41.662288944" lon="2.535461977">
        <ele>397.64</ele>
        <time>2013-12-06T09:16:40Z</time>
      </trkpt>
      <trkpt lat="41.662295063" lon="2.535415290">
        <ele>397.64</ele>
        <time>2013-12-06T09:16:41Z</time>
      </trkpt>
      <trkpt lat="41.662400172" lon="2.535187470">
        <ele>398.12</ele>
        <time>2013-12-06T09:16:47Z</time>
      </trkpt>
      <trkpt lat="41.662525984" lon="2.535138268">
        <ele>400.05</ele>
        <time>2013-12-06T09:16:52Z</time>
      </trkpt>
      <trkpt lat="41.662701166" lon="2.535130054">
        <ele>402.93</ele>
        <time>2013-12-06T09:16:59Z</time>
      </trkpt>
      <trkpt lat="41.662830750" lon="2.535122259">
        <ele>404.85</ele>
        <time>2013-12-06T09:17:05Z</time>
      </trkpt>
      <trkpt lat="41.662927142" lon="2.535222842">
        <ele>404.85</ele>
        <time>2013-12-06T09:17:11Z</time>
      </trkpt>
      <trkpt lat="41.663056810" lon="2.535431383">
        <ele>404.85</ele>
        <time>2013-12-06T09:17:20Z</time>
      </trkpt>
      <trkpt lat="41.663202404" lon="2.535637075">
        <ele>405.81</ele>
        <time>2013-12-06T09:17:29Z</time>
      </trkpt>
      <trkpt lat="41.663324528" lon="2.535814772">
        <ele>406.29</ele>
        <time>2013-12-06T09:17:36Z</time>
      </trkpt>
      <trkpt lat="41.663455873" lon="2.535991462">
        <ele>408.70</ele>
        <time>2013-12-06T09:17:45Z</time>
      </trkpt>
      <trkpt lat="41.663521922" lon="2.536125489">
        <ele>409.66</ele>
        <time>2013-12-06T09:17:52Z</time>
      </trkpt>
      <trkpt lat="41.663617141" lon="2.536337048">
        <ele>410.14</ele>
        <time>2013-12-06T09:18:00Z</time>
      </trkpt>
      <trkpt lat="41.663738008" lon="2.536562437">
        <ele>411.58</ele>
        <time>2013-12-06T09:18:08Z</time>
      </trkpt>
      <trkpt lat="41.663843620" lon="2.536646843">
        <ele>412.54</ele>
        <time>2013-12-06T09:18:14Z</time>
      </trkpt>
      <trkpt lat="41.663986363" lon="2.536537124">
        <ele>413.98</ele>
        <time>2013-12-06T09:18:21Z</time>
      </trkpt>
      <trkpt lat="41.664055849" lon="2.536459005">
        <ele>414.95</ele>
        <time>2013-12-06T09:18:25Z</time>
      </trkpt>
      <trkpt lat="41.664134807" lon="2.536542824">
        <ele>415.91</ele>
        <time>2013-12-06T09:18:30Z</time>
      </trkpt>
      <trkpt lat="41.664211418" lon="2.536632426">
        <ele>415.91</ele>
        <time>2013-12-06T09:18:34Z</time>
      </trkpt>
      <trkpt lat="41.664333793" lon="2.536850272">
        <ele>415.91</ele>
        <time>2013-12-06T09:18:42Z</time>
      </trkpt>
      <trkpt lat="41.664356592" lon="2.537101478">
        <ele>414.47</ele>
        <time>2013-12-06T09:18:48Z</time>
      </trkpt>
      <trkpt lat="41.664436807" lon="2.537383780">
        <ele>414.47</ele>
        <time>2013-12-06T09:18:55Z</time>
      </trkpt>
      <trkpt lat="41.664507131" lon="2.537633812">
        <ele>413.50</ele>
        <time>2013-12-06T09:19:01Z</time>
      </trkpt>
      <trkpt lat="41.664579718" lon="2.537933968">
        <ele>412.54</ele>
        <time>2013-12-06T09:19:07Z</time>
      </trkpt>
      <trkpt lat="41.664692203" lon="2.538191209">
        <ele>412.06</ele>
        <time>2013-12-06T09:19:13Z</time>
      </trkpt>
      <trkpt lat="41.664727994" lon="2.538362870">
        <ele>412.06</ele>
        <time>2013-12-06T09:19:17Z</time>
      </trkpt>
      <trkpt lat="41.664746267" lon="2.538600162">
        <ele>412.06</ele>
        <time>2013-12-06T09:19:23Z</time>
      </trkpt>
      <trkpt lat="41.664932261" lon="2.538809039">
        <ele>412.06</ele>
        <time>2013-12-06T09:19:31Z</time>
      </trkpt>
      <trkpt lat="41.664967465" lon="2.539076673">
        <ele>411.58</ele>
        <time>2013-12-06T09:19:37Z</time>
      </trkpt>
      <trkpt lat="41.664948103" lon="2.539308433">
        <ele>411.10</ele>
        <time>2013-12-06T09:19:42Z</time>
      </trkpt>
      <trkpt lat="41.665123704" lon="2.539448243">
        <ele>410.14</ele>
        <time>2013-12-06T09:19:48Z</time>
      </trkpt>
      <trkpt lat="41.665171062" lon="2.539459223">
        <ele>409.66</ele>
        <time>2013-12-06T09:19:49Z</time>
      </trkpt>
      <trkpt lat="41.665335347" lon="2.539520579">
        <ele>409.18</ele>
        <time>2013-12-06T09:19:52Z</time>
      </trkpt>
      <trkpt lat="41.665644220" lon="2.539502558">
        <ele>406.77</ele>
        <time>2013-12-06T09:19:57Z</time>
      </trkpt>
      <trkpt lat="41.665853097" lon="2.539343134">
        <ele>405.81</ele>
        <time>2013-12-06T09:20:01Z</time>
      </trkpt>
      <trkpt lat="41.666078235" lon="2.539325699">
        <ele>403.41</ele>
        <time>2013-12-06T09:20:05Z</time>
      </trkpt>
      <trkpt lat="41.666128023" lon="2.539351348">
        <ele>402.93</ele>
        <time>2013-12-06T09:20:06Z</time>
      </trkpt>
      <trkpt lat="41.666214189" lon="2.539401723">
        <ele>401.49</ele>
        <time>2013-12-06T09:20:08Z</time>
      </trkpt>
      <trkpt lat="41.666348300" lon="2.539348666">
        <ele>399.57</ele>
        <time>2013-12-06T09:20:13Z</time>
      </trkpt>
      <trkpt lat="41.666376715" lon="2.539361993">
        <ele>399.57</ele>
        <time>2013-12-06T09:20:27Z</time>
      </trkpt>
      <trkpt lat="41.666373110" lon="2.539342715">
        <ele>399.57</ele>
        <time>2013-12-06T09:20:29Z</time>
      </trkpt>
      <trkpt lat="41.666357017" lon="2.539238444">
        <ele>398.12</ele>
        <time>2013-12-06T09:20:33Z</time>
      </trkpt>
      <trkpt lat="41.666341930" lon="2.538997548">
        <ele>393.32</ele>
        <time>2013-12-06T09:20:38Z</time>
      </trkpt>
      <trkpt lat="41.666340086" lon="2.538788084">
        <ele>389.47</ele>
        <time>2013-12-06T09:20:42Z</time>
      </trkpt>
      <trkpt lat="41.666340337" lon="2.538528329">
        <ele>385.63</ele>
        <time>2013-12-06T09:20:46Z</time>
      </trkpt>
      <trkpt lat="41.666337487" lon="2.538471248">
        <ele>385.15</ele>
        <time>2013-12-06T09:20:47Z</time>
      </trkpt>
      <trkpt lat="41.666366237" lon="2.538254995">
        <ele>383.70</ele>
        <time>2013-12-06T09:20:51Z</time>
      </trkpt>
      <trkpt lat="41.666393562" lon="2.538071850">
        <ele>381.78</ele>
        <time>2013-12-06T09:20:54Z</time>
      </trkpt>
      <trkpt lat="41.666463383" lon="2.537758870">
        <ele>378.42</ele>
        <time>2013-12-06T09:20:59Z</time>
      </trkpt>
      <trkpt lat="41.666517447" lon="2.537413955">
        <ele>372.65</ele>
        <time>2013-12-06T09:21:05Z</time>
      </trkpt>
      <trkpt lat="41.666544269" lon="2.537379002">
        <ele>372.17</ele>
        <time>2013-12-06T09:21:06Z</time>
      </trkpt>
      <trkpt lat="41.666603780" lon="2.537324688">
        <ele>370.24</ele>
        <time>2013-12-06T09:21:08Z</time>
      </trkpt>
      <trkpt lat="41.666629848" lon="2.537241371">
        <ele>369.28</ele>
        <time>2013-12-06T09:21:10Z</time>
      </trkpt>
      <trkpt lat="41.666578383" lon="2.537026459">
        <ele>366.88</ele>
        <time>2013-12-06T09:21:14Z</time>
      </trkpt>
      <trkpt lat="41.666516106" lon="2.536939707">
        <ele>364.48</ele>
        <time>2013-12-06T09:21:16Z</time>
      </trkpt>
      <trkpt lat="41.666457851" lon="2.536716413">
        <ele>360.15</ele>
        <time>2013-12-06T09:21:20Z</time>
      </trkpt>
      <trkpt lat="41.666336733" lon="2.536558582">
        <ele>356.31</ele>
        <time>2013-12-06T09:21:24Z</time>
      </trkpt>
      <trkpt lat="41.666286693" lon="2.536361439">
        <ele>352.94</ele>
        <time>2013-12-06T09:21:27Z</time>
      </trkpt>
      <trkpt lat="41.666305133" lon="2.536237555">
        <ele>351.02</ele>
        <time>2013-12-06T09:21:29Z</time>
      </trkpt>
      <trkpt lat="41.666231875" lon="2.536075365">
        <ele>346.69</ele>
        <time>2013-12-06T09:21:34Z</time>
      </trkpt>
      <trkpt lat="41.666148727" lon="2.536025325">
        <ele>345.25</ele>
        <time>2013-12-06T09:21:37Z</time>
      </trkpt>
      <trkpt lat="41.666168089" lon="2.535879312">
        <ele>343.81</ele>
        <time>2013-12-06T09:21:40Z</time>
      </trkpt>
      <trkpt lat="41.666178231" lon="2.535449488">
        <ele>341.89</ele>
        <time>2013-12-06T09:21:46Z</time>
      </trkpt>
      <trkpt lat="41.666007995" lon="2.535270199">
        <ele>340.44</ele>
        <time>2013-12-06T09:21:50Z</time>
      </trkpt>
      <trkpt lat="41.665917470" lon="2.535171796">
        <ele>339.00</ele>
        <time>2013-12-06T09:21:53Z</time>
      </trkpt>
      <trkpt lat="41.665904227" lon="2.535137598">
        <ele>338.04</ele>
        <time>2013-12-06T09:21:54Z</time>
      </trkpt>
      <trkpt lat="41.665877405" lon="2.535048330">
        <ele>337.56</ele>
        <time>2013-12-06T09:21:56Z</time>
      </trkpt>
      <trkpt lat="41.665826778" lon="2.534813721">
        <ele>336.12</ele>
        <time>2013-12-06T09:22:00Z</time>
      </trkpt>
      <trkpt lat="41.665808589" lon="2.534755550">
        <ele>335.16</ele>
        <time>2013-12-06T09:22:01Z</time>
      </trkpt>
      <trkpt lat="41.665685878" lon="2.534436619">
        <ele>333.71</ele>
        <time>2013-12-06T09:22:07Z</time>
      </trkpt>
      <trkpt lat="41.665587977" lon="2.534211816">
        <ele>332.27</ele>
        <time>2013-12-06T09:22:12Z</time>
      </trkpt>
      <trkpt lat="41.665504494" lon="2.533869583">
        <ele>330.83</ele>
        <time>2013-12-06T09:22:19Z</time>
      </trkpt>
      <trkpt lat="41.665447078" lon="2.533672525">
        <ele>329.87</ele>
        <time>2013-12-06T09:22:23Z</time>
      </trkpt>
      <trkpt lat="41.665416148" lon="2.533529529">
        <ele>329.39</ele>
        <time>2013-12-06T09:22:27Z</time>
      </trkpt>
      <trkpt lat="41.665381615" lon="2.533271451">
        <ele>327.95</ele>
        <time>2013-12-06T09:22:36Z</time>
      </trkpt>
      <trkpt lat="41.665311794" lon="2.533048241">
        <ele>326.50</ele>
        <time>2013-12-06T09:22:42Z</time>
      </trkpt>
      <trkpt lat="41.665179779" lon="2.532818576">
        <ele>325.54</ele>
        <time>2013-12-06T09:22:48Z</time>
      </trkpt>
      <trkpt lat="41.665109958" lon="2.532502663">
        <ele>325.06</ele>
        <time>2013-12-06T09:22:55Z</time>
      </trkpt>
      <trkpt lat="41.665147676" lon="2.532309879">
        <ele>324.58</ele>
        <time>2013-12-06T09:23:00Z</time>
      </trkpt>
      <trkpt lat="41.665275081" lon="2.532078119">
        <ele>324.10</ele>
        <time>2013-12-06T09:23:06Z</time>
      </trkpt>
      <trkpt lat="41.665330904" lon="2.531881647">
        <ele>320.74</ele>
        <time>2013-12-06T09:23:10Z</time>
      </trkpt>
      <trkpt lat="41.665392176" lon="2.531655336">
        <ele>318.81</ele>
        <time>2013-12-06T09:23:15Z</time>
      </trkpt>
      <trkpt lat="41.665393936" lon="2.531607391">
        <ele>317.85</ele>
        <time>2013-12-06T09:23:16Z</time>
      </trkpt>
      <trkpt lat="41.665279440" lon="2.531480741">
        <ele>314.01</ele>
        <time>2013-12-06T09:23:20Z</time>
      </trkpt>
      <trkpt lat="41.665197129" lon="2.531420475">
        <ele>313.05</ele>
        <time>2013-12-06T09:23:23Z</time>
      </trkpt>
      <trkpt lat="41.665235183" lon="2.531280413">
        <ele>310.64</ele>
        <time>2013-12-06T09:23:27Z</time>
      </trkpt>
      <trkpt lat="41.665265023" lon="2.531262644">
        <ele>309.68</ele>
        <time>2013-12-06T09:23:28Z</time>
      </trkpt>
      <trkpt lat="41.665320762" lon="2.531234732">
        <ele>308.24</ele>
        <time>2013-12-06T09:23:30Z</time>
      </trkpt>
      <trkpt lat="41.665321684" lon="2.531074973">
        <ele>306.32</ele>
        <time>2013-12-06T09:23:35Z</time>
      </trkpt>
      <trkpt lat="41.665292515" lon="2.530906916">
        <ele>304.88</ele>
        <time>2013-12-06T09:23:41Z</time>
      </trkpt>
      <trkpt lat="41.665295533" lon="2.530847153">
        <ele>304.39</ele>
        <time>2013-12-06T09:23:43Z</time>
      </trkpt>
      <trkpt lat="41.665340963" lon="2.530579519">
        <ele>302.95</ele>
        <time>2013-12-06T09:23:50Z</time>
      </trkpt>
      <trkpt lat="41.665351440" lon="2.530468207">
        <ele>302.47</ele>
        <time>2013-12-06T09:23:52Z</time>
      </trkpt>
      <trkpt lat="41.665207942" lon="2.530183641">
        <ele>298.63</ele>
        <time>2013-12-06T09:23:57Z</time>
      </trkpt>
      <trkpt lat="41.665176845" lon="2.530131003">
        <ele>297.18</ele>
        <time>2013-12-06T09:23:58Z</time>
      </trkpt>
      <trkpt lat="41.665130158" lon="2.529782316">
        <ele>292.86</ele>
        <time>2013-12-06T09:24:03Z</time>
      </trkpt>
      <trkpt lat="41.665120686" lon="2.529688439">
        <ele>292.86</ele>
        <time>2013-12-06T09:24:04Z</time>
      </trkpt>
      <trkpt lat="41.665026390" lon="2.529447710">
        <ele>289.97</ele>
        <time>2013-12-06T09:24:07Z</time>
      </trkpt>
      <trkpt lat="41.664899320" lon="2.529226009">
        <ele>288.53</ele>
        <time>2013-12-06T09:24:10Z</time>
      </trkpt>
      <trkpt lat="41.664821452" lon="2.529008834">
        <ele>287.09</ele>
        <time>2013-12-06T09:24:13Z</time>
      </trkpt>
      <trkpt lat="41.664757582" lon="2.528875813">
        <ele>286.61</ele>
        <time>2013-12-06T09:24:15Z</time>
      </trkpt>
      <trkpt lat="41.664679798" lon="2.528759388">
        <ele>286.61</ele>
        <time>2013-12-06T09:24:17Z</time>
      </trkpt>
      <trkpt lat="41.664510651" lon="2.528603401">
        <ele>286.13</ele>
        <time>2013-12-06T09:24:21Z</time>
      </trkpt>
      <trkpt lat="41.664356760" lon="2.528475745">
        <ele>286.61</ele>
        <time>2013-12-06T09:24:25Z</time>
      </trkpt>
      <trkpt lat="41.664256931" lon="2.528343646">
        <ele>286.61</ele>
        <time>2013-12-06T09:24:28Z</time>
      </trkpt>
      <trkpt lat="41.664040175" lon="2.528035611">
        <ele>286.61</ele>
        <time>2013-12-06T09:24:36Z</time>
      </trkpt>
      <trkpt lat="41.663986782" lon="2.527957911">
        <ele>286.61</ele>
        <time>2013-12-06T09:24:38Z</time>
      </trkpt>
      <trkpt lat="41.663711605" lon="2.527822543">
        <ele>286.61</ele>
        <time>2013-12-06T09:24:45Z</time>
      </trkpt>
      <trkpt lat="41.663624181" lon="2.527797062">
        <ele>286.13</ele>
        <time>2013-12-06T09:24:47Z</time>
      </trkpt>
      <trkpt lat="41.663392003" lon="2.527581731">
        <ele>284.21</ele>
        <time>2013-12-06T09:24:53Z</time>
      </trkpt>
      <trkpt lat="41.663367276" lon="2.527381906">
        <ele>280.36</ele>
        <time>2013-12-06T09:24:56Z</time>
      </trkpt>
      <trkpt lat="41.663387560" lon="2.527312169">
        <ele>279.40</ele>
        <time>2013-12-06T09:24:57Z</time>
      </trkpt>
      <trkpt lat="41.663456459" lon="2.527112093">
        <ele>276.52</ele>
        <time>2013-12-06T09:25:00Z</time>
      </trkpt>
      <trkpt lat="41.663485293" lon="2.526980581">
        <ele>275.07</ele>
        <time>2013-12-06T09:25:02Z</time>
      </trkpt>
      <trkpt lat="41.663514798" lon="2.526735746">
        <ele>273.63</ele>
        <time>2013-12-06T09:25:06Z</time>
      </trkpt>
      <trkpt lat="41.663607501" lon="2.526522426">
        <ele>272.67</ele>
        <time>2013-12-06T09:25:12Z</time>
      </trkpt>
      <trkpt lat="41.663688471" lon="2.526448330">
        <ele>272.67</ele>
        <time>2013-12-06T09:25:16Z</time>
      </trkpt>
      <trkpt lat="41.663644801" lon="2.526355375">
        <ele>270.75</ele>
        <time>2013-12-06T09:25:21Z</time>
      </trkpt>
      <trkpt lat="41.663632731" lon="2.526352441">
        <ele>270.75</ele>
        <time>2013-12-06T09:25:26Z</time>
      </trkpt>
      <trkpt lat="41.663626528" lon="2.526346574">
        <ele>270.75</ele>
        <time>2013-12-06T09:25:28Z</time>
      </trkpt>
      <trkpt lat="41.663575902" lon="2.526314974">
        <ele>269.79</ele>
        <time>2013-12-06T09:25:31Z</time>
      </trkpt>
      <trkpt lat="41.663520330" lon="2.526324110">
        <ele>269.31</ele>
        <time>2013-12-06T09:25:37Z</time>
      </trkpt>
      <trkpt lat="41.663512534" lon="2.526316315">
        <ele>269.31</ele>
        <time>2013-12-06T09:25:45Z</time>
      </trkpt>
      <trkpt lat="41.663511277" lon="2.526324613">
        <ele>269.31</ele>
        <time>2013-12-06T09:26:05Z</time>
      </trkpt>
      <trkpt lat="41.663517815" lon="2.526325032">
        <ele>269.79</ele>
        <time>2013-12-06T09:26:23Z</time>
      </trkpt>
      <trkpt lat="41.663506751" lon="2.526319752">
        <ele>269.79</ele>
        <time>2013-12-06T09:26:40Z</time>
      </trkpt>
      <trkpt lat="41.663501470" lon="2.526287314">
        <ele>269.79</ele>
        <time>2013-12-06T09:26:58Z</time>
      </trkpt>
      <trkpt lat="41.663501889" lon="2.526307514">
        <ele>269.79</ele>
        <time>2013-12-06T09:27:26Z</time>
      </trkpt>
      <trkpt lat="41.663488143" lon="2.526333917">
        <ele>270.27</ele>
        <time>2013-12-06T09:27:49Z</time>
      </trkpt>
      <trkpt lat="41.663503733" lon="2.526335007">
        <ele>270.27</ele>
        <time>2013-12-06T09:28:03Z</time>
      </trkpt>
      <trkpt lat="41.663510439" lon="2.526317656">
        <ele>270.27</ele>
        <time>2013-12-06T09:28:20Z</time>
      </trkpt>
      <trkpt lat="41.663519827" lon="2.526314555">
        <ele>270.27</ele>
        <time>2013-12-06T09:28:40Z</time>
      </trkpt>
      <trkpt lat="41.663496106" lon="2.526309526">
        <ele>270.75</ele>
        <time>2013-12-06T09:29:03Z</time>
      </trkpt>
      <trkpt lat="41.663479761" lon="2.526291505">
        <ele>270.75</ele>
        <time>2013-12-06T09:29:16Z</time>
      </trkpt>
      <trkpt lat="41.663488227" lon="2.526296282">
        <ele>270.75</ele>
        <time>2013-12-06T09:29:29Z</time>
      </trkpt>
      <trkpt lat="41.663507757" lon="2.526317321">
        <ele>270.75</ele>
        <time>2013-12-06T09:29:44Z</time>
      </trkpt>
      <trkpt lat="41.663512032" lon="2.526314555">
        <ele>270.75</ele>
        <time>2013-12-06T09:30:08Z</time>
      </trkpt>
      <trkpt lat="41.663502308" lon="2.526321093">
        <ele>270.75</ele>
        <time>2013-12-06T09:30:27Z</time>
      </trkpt>
      <trkpt lat="41.663487137" lon="2.526291672">
        <ele>271.23</ele>
        <time>2013-12-06T09:30:46Z</time>
      </trkpt>
      <trkpt lat="41.663490909" lon="2.526292259">
        <ele>271.23</ele>
        <time>2013-12-06T09:30:59Z</time>
      </trkpt>
      <trkpt lat="41.663478336" lon="2.526292343">
        <ele>270.75</ele>
        <time>2013-12-06T09:31:18Z</time>
      </trkpt>
      <trkpt lat="41.663480264" lon="2.526285637">
        <ele>271.23</ele>
        <time>2013-12-06T09:31:34Z</time>
      </trkpt>
      <trkpt lat="41.663476660" lon="2.526279854">
        <ele>271.23</ele>
        <time>2013-12-06T09:31:52Z</time>
      </trkpt>
      <trkpt lat="41.663477414" lon="2.526288403">
        <ele>271.23</ele>
        <time>2013-12-06T09:32:08Z</time>
      </trkpt>
      <trkpt lat="41.663475319" lon="2.526293516">
        <ele>271.23</ele>
        <time>2013-12-06T09:32:28Z</time>
      </trkpt>
      <trkpt lat="41.663484623" lon="2.526308185">
        <ele>271.71</ele>
        <time>2013-12-06T09:32:50Z</time>
      </trkpt>
      <trkpt lat="41.663484958" lon="2.526306257">
        <ele>271.71</ele>
        <time>2013-12-06T09:33:07Z</time>
      </trkpt>
      <trkpt lat="41.663479258" lon="2.526307598">
        <ele>271.71</ele>
        <time>2013-12-06T09:33:19Z</time>
      </trkpt>
      <trkpt lat="41.663475570" lon="2.526303491">
        <ele>271.23</ele>
        <time>2013-12-06T09:33:35Z</time>
      </trkpt>
      <trkpt lat="41.663481521" lon="2.526328720">
        <ele>271.71</ele>
        <time>2013-12-06T09:33:55Z</time>
      </trkpt>
      <trkpt lat="41.663475570" lon="2.526316650">
        <ele>271.71</ele>
        <time>2013-12-06T09:34:16Z</time>
      </trkpt>
      <trkpt lat="41.663490239" lon="2.526310029">
        <ele>271.71</ele>
        <time>2013-12-06T09:34:36Z</time>
      </trkpt>
      <trkpt lat="41.663487892" lon="2.526298881">
        <ele>271.71</ele>
        <time>2013-12-06T09:34:53Z</time>
      </trkpt>
      <trkpt lat="41.663486970" lon="2.526292008">
        <ele>271.71</ele>
        <time>2013-12-06T09:34:54Z</time>
      </trkpt>
      <trkpt lat="41.663488059" lon="2.526107941">
        <ele>271.71</ele>
        <time>2013-12-06T09:35:03Z</time>
      </trkpt>
      <trkpt lat="41.663429386" lon="2.525904680">
        <ele>271.23</ele>
        <time>2013-12-06T09:35:09Z</time>
      </trkpt>
      <trkpt lat="41.663375574" lon="2.525774928">
        <ele>269.79</ele>
        <time>2013-12-06T09:35:14Z</time>
      </trkpt>
      <trkpt lat="41.663385549" lon="2.525763361">
        <ele>269.79</ele>
        <time>2013-12-06T09:35:26Z</time>
      </trkpt>
      <trkpt lat="41.663391919" lon="2.525768306">
        <ele>269.79</ele>
        <time>2013-12-06T09:35:44Z</time>
      </trkpt>
      <trkpt lat="41.663378592" lon="2.525781298">
        <ele>269.79</ele>
        <time>2013-12-06T09:35:57Z</time>
      </trkpt>
      <trkpt lat="41.663370042" lon="2.525768055">
        <ele>269.79</ele>
        <time>2013-12-06T09:36:10Z</time>
      </trkpt>
      <trkpt lat="41.663352356" lon="2.525729414">
        <ele>269.31</ele>
        <time>2013-12-06T09:36:18Z</time>
      </trkpt>
      <trkpt lat="41.663296533" lon="2.525650541">
        <ele>268.83</ele>
        <time>2013-12-06T09:36:22Z</time>
      </trkpt>
      <trkpt lat="41.663241296" lon="2.525525063">
        <ele>267.86</ele>
        <time>2013-12-06T09:36:28Z</time>
      </trkpt>
      <trkpt lat="41.663196453" lon="2.525443591">
        <ele>266.90</ele>
        <time>2013-12-06T09:36:30Z</time>
      </trkpt>
      <trkpt lat="41.663088410" lon="2.525140083">
        <ele>264.98</ele>
        <time>2013-12-06T09:36:37Z</time>
      </trkpt>
      <trkpt lat="41.663120848" lon="2.524961129">
        <ele>263.54</ele>
        <time>2013-12-06T09:36:41Z</time>
      </trkpt>
      <trkpt lat="41.663204835" lon="2.524782846">
        <ele>263.06</ele>
        <time>2013-12-06T09:36:44Z</time>
      </trkpt>
      <trkpt lat="41.663417819" lon="2.524458885">
        <ele>261.62</ele>
        <time>2013-12-06T09:36:51Z</time>
      </trkpt>
      <trkpt lat="41.663511026" lon="2.524082203">
        <ele>259.21</ele>
        <time>2013-12-06T09:36:58Z</time>
      </trkpt>
      <trkpt lat="41.663515049" lon="2.523894532">
        <ele>258.73</ele>
        <time>2013-12-06T09:37:03Z</time>
      </trkpt>
      <trkpt lat="41.663509433" lon="2.523528494">
        <ele>257.77</ele>
        <time>2013-12-06T09:37:10Z</time>
      </trkpt>
      <trkpt lat="41.663536758" lon="2.523426654">
        <ele>256.81</ele>
        <time>2013-12-06T09:37:12Z</time>
      </trkpt>
      <trkpt lat="41.663726860" lon="2.523267565">
        <ele>255.85</ele>
        <time>2013-12-06T09:37:18Z</time>
      </trkpt>
      <trkpt lat="41.663758208" lon="2.523236720">
        <ele>255.85</ele>
        <time>2013-12-06T09:37:19Z</time>
      </trkpt>
      <trkpt lat="41.663901203" lon="2.523110237">
        <ele>254.89</ele>
        <time>2013-12-06T09:37:23Z</time>
      </trkpt>
      <trkpt lat="41.664015616" lon="2.522914101">
        <ele>252.96</ele>
        <time>2013-12-06T09:37:27Z</time>
      </trkpt>
      <trkpt lat="41.664066746" lon="2.522694159">
        <ele>252.00</ele>
        <time>2013-12-06T09:37:31Z</time>
      </trkpt>
      <trkpt lat="41.664270175" lon="2.522598438">
        <ele>251.52</ele>
        <time>2013-12-06T09:37:38Z</time>
      </trkpt>
      <trkpt lat="41.664432197" lon="2.522346730">
        <ele>250.56</ele>
        <time>2013-12-06T09:37:44Z</time>
      </trkpt>
      <trkpt lat="41.664538647" lon="2.522087561">
        <ele>250.56</ele>
        <time>2013-12-06T09:37:51Z</time>
      </trkpt>
      <trkpt lat="41.664626070" lon="2.521906177">
        <ele>252.00</ele>
        <time>2013-12-06T09:37:57Z</time>
      </trkpt>
      <trkpt lat="41.664675188" lon="2.521696378">
        <ele>255.37</ele>
        <time>2013-12-06T09:38:04Z</time>
      </trkpt>
      <trkpt lat="41.664708967" lon="2.521434611">
        <ele>255.85</ele>
        <time>2013-12-06T09:38:10Z</time>
      </trkpt>
      <trkpt lat="41.664743417" lon="2.521205701">
        <ele>254.41</ele>
        <time>2013-12-06T09:38:14Z</time>
      </trkpt>
      <trkpt lat="41.664705195" lon="2.520776296">
        <ele>253.44</ele>
        <time>2013-12-06T09:38:22Z</time>
      </trkpt>
      <trkpt lat="41.664695724" lon="2.520498185">
        <ele>252.48</ele>
        <time>2013-12-06T09:38:28Z</time>
      </trkpt>
      <trkpt lat="41.664713074" lon="2.520334067">
        <ele>252.48</ele>
        <time>2013-12-06T09:38:34Z</time>
      </trkpt>
      <trkpt lat="41.664713745" lon="2.520304144">
        <ele>251.52</ele>
        <time>2013-12-06T09:38:37Z</time>
      </trkpt>
      <trkpt lat="41.664802342" lon="2.520255445">
        <ele>252.00</ele>
        <time>2013-12-06T09:38:42Z</time>
      </trkpt>
      <trkpt lat="41.664955395" lon="2.520175146">
        <ele>252.96</ele>
        <time>2013-12-06T09:38:49Z</time>
      </trkpt>
      <trkpt lat="41.665080956" lon="2.520058135">
        <ele>252.96</ele>
        <time>2013-12-06T09:38:55Z</time>
      </trkpt>
      <trkpt lat="41.665177432" lon="2.520029050">
        <ele>253.93</ele>
        <time>2013-12-06T09:38:59Z</time>
      </trkpt>
      <trkpt lat="41.665232585" lon="2.520180343">
        <ele>255.37</ele>
        <time>2013-12-06T09:39:05Z</time>
      </trkpt>
      <trkpt lat="41.665216072" lon="2.520270197">
        <ele>255.85</ele>
        <time>2013-12-06T09:39:08Z</time>
      </trkpt>
      <trkpt lat="41.665185981" lon="2.520471363">
        <ele>258.73</ele>
        <time>2013-12-06T09:39:16Z</time>
      </trkpt>
      <trkpt lat="41.665281535" lon="2.520585273">
        <ele>261.62</ele>
        <time>2013-12-06T09:39:22Z</time>
      </trkpt>
      <trkpt lat="41.665427380" lon="2.520662218">
        <ele>263.06</ele>
        <time>2013-12-06T09:39:29Z</time>
      </trkpt>
      <trkpt lat="41.665590157" lon="2.520823151">
        <ele>264.02</ele>
        <time>2013-12-06T09:39:39Z</time>
      </trkpt>
      <trkpt lat="41.665757292" lon="2.520943347">
        <ele>264.02</ele>
        <time>2013-12-06T09:39:46Z</time>
      </trkpt>
      <trkpt lat="41.665979748" lon="2.521012750">
        <ele>264.02</ele>
        <time>2013-12-06T09:39:53Z</time>
      </trkpt>
      <trkpt lat="41.666196001" lon="2.521173012">
        <ele>264.02</ele>
        <time>2013-12-06T09:40:01Z</time>
      </trkpt>
      <trkpt lat="41.666341091" lon="2.521390941">
        <ele>264.98</ele>
        <time>2013-12-06T09:40:09Z</time>
      </trkpt>
      <trkpt lat="41.666456762" lon="2.521466965">
        <ele>264.98</ele>
        <time>2013-12-06T09:40:14Z</time>
      </trkpt>
      <trkpt lat="41.666628926" lon="2.521435700">
        <ele>265.46</ele>
        <time>2013-12-06T09:40:21Z</time>
      </trkpt>
      <trkpt lat="41.666669411" lon="2.521406531">
        <ele>265.94</ele>
        <time>2013-12-06T09:40:23Z</time>
      </trkpt>
      <trkpt lat="41.666696065" lon="2.521291532">
        <ele>266.42</ele>
        <time>2013-12-06T09:40:30Z</time>
      </trkpt>
      <trkpt lat="41.666628339" lon="2.521080056">
        <ele>266.42</ele>
        <time>2013-12-06T09:40:39Z</time>
      </trkpt>
      <trkpt lat="41.666517531" lon="2.520917867">
        <ele>266.42</ele>
        <time>2013-12-06T09:40:45Z</time>
      </trkpt>
      <trkpt lat="41.666497330" lon="2.520882830">
        <ele>264.98</ele>
        <time>2013-12-06T09:40:46Z</time>
      </trkpt>
      <trkpt lat="41.666438489" lon="2.520714102">
        <ele>263.06</ele>
        <time>2013-12-06T09:40:49Z</time>
      </trkpt>
      <trkpt lat="41.666236988" lon="2.520519642">
        <ele>260.65</ele>
        <time>2013-12-06T09:40:54Z</time>
      </trkpt>
      <trkpt lat="41.666131795" lon="2.520450072">
        <ele>258.25</ele>
        <time>2013-12-06T09:40:56Z</time>
      </trkpt>
      <trkpt lat="41.666021489" lon="2.520400535">
        <ele>256.81</ele>
        <time>2013-12-06T09:40:58Z</time>
      </trkpt>
      <trkpt lat="41.665851002" lon="2.520139272">
        <ele>253.93</ele>
        <time>2013-12-06T09:41:02Z</time>
      </trkpt>
      <trkpt lat="41.665809260" lon="2.520060649">
        <ele>253.93</ele>
        <time>2013-12-06T09:41:03Z</time>
      </trkpt>
      <trkpt lat="41.665630809" lon="2.519667706">
        <ele>251.04</ele>
        <time>2013-12-06T09:41:08Z</time>
      </trkpt>
      <trkpt lat="41.665561407" lon="2.519497134">
        <ele>250.08</ele>
        <time>2013-12-06T09:41:10Z</time>
      </trkpt>
      <trkpt lat="41.665492508" lon="2.519366125">
        <ele>250.08</ele>
        <time>2013-12-06T09:41:12Z</time>
      </trkpt>
      <trkpt lat="41.665399720" lon="2.519099329">
        <ele>252.00</ele>
        <time>2013-12-06T09:41:18Z</time>
      </trkpt>
      <trkpt lat="41.665393014" lon="2.518727759">
        <ele>252.48</ele>
        <time>2013-12-06T09:41:26Z</time>
      </trkpt>
      <trkpt lat="41.665368875" lon="2.518477475">
        <ele>253.44</ele>
        <time>2013-12-06T09:41:32Z</time>
      </trkpt>
      <trkpt lat="41.665357224" lon="2.518172290">
        <ele>253.44</ele>
        <time>2013-12-06T09:41:39Z</time>
      </trkpt>
      <trkpt lat="41.665354961" lon="2.517867608">
        <ele>252.48</ele>
        <time>2013-12-06T09:41:45Z</time>
      </trkpt>
      <trkpt lat="41.665353200" lon="2.517805331">
        <ele>252.00</ele>
        <time>2013-12-06T09:41:46Z</time>
      </trkpt>
      <trkpt lat="41.665323445" lon="2.517525543">
        <ele>249.60</ele>
        <time>2013-12-06T09:41:51Z</time>
      </trkpt>
      <trkpt lat="41.665286648" lon="2.517228153">
        <ele>246.23</ele>
        <time>2013-12-06T09:41:56Z</time>
      </trkpt>
      <trkpt lat="41.665273991" lon="2.517026065">
        <ele>243.83</ele>
        <time>2013-12-06T09:41:59Z</time>
      </trkpt>
      <trkpt lat="41.665333335" lon="2.516756335">
        <ele>240.95</ele>
        <time>2013-12-06T09:42:03Z</time>
      </trkpt>
      <trkpt lat="41.665560820" lon="2.516333804">
        <ele>236.62</ele>
        <time>2013-12-06T09:42:09Z</time>
      </trkpt>
      <trkpt lat="41.665800207" lon="2.516155604">
        <ele>234.70</ele>
        <time>2013-12-06T09:42:13Z</time>
      </trkpt>
      <trkpt lat="41.665935910" lon="2.515998192">
        <ele>233.74</ele>
        <time>2013-12-06T09:42:16Z</time>
      </trkpt>
      <trkpt lat="41.666154510" lon="2.515808929">
        <ele>232.30</ele>
        <time>2013-12-06T09:42:20Z</time>
      </trkpt>
      <trkpt lat="41.666238832" lon="2.515712369">
        <ele>232.30</ele>
        <time>2013-12-06T09:42:22Z</time>
      </trkpt>
      <trkpt lat="41.666289543" lon="2.515607596">
        <ele>231.81</ele>
        <time>2013-12-06T09:42:24Z</time>
      </trkpt>
      <trkpt lat="41.666505041" lon="2.515218508">
        <ele>231.81</ele>
        <time>2013-12-06T09:42:33Z</time>
      </trkpt>
      <trkpt lat="41.666802348" lon="2.514934026">
        <ele>231.81</ele>
        <time>2013-12-06T09:42:42Z</time>
      </trkpt>
      <trkpt lat="41.666935787" lon="2.514820283">
        <ele>231.81</ele>
        <time>2013-12-06T09:42:46Z</time>
      </trkpt>
      <trkpt lat="41.667105353" lon="2.514592463">
        <ele>231.81</ele>
        <time>2013-12-06T09:42:53Z</time>
      </trkpt>
      <trkpt lat="41.667240470" lon="2.514390040">
        <ele>234.22</ele>
        <time>2013-12-06T09:43:00Z</time>
      </trkpt>
      <trkpt lat="41.667507685" lon="2.514200945">
        <ele>234.22</ele>
        <time>2013-12-06T09:43:10Z</time>
      </trkpt>
      <trkpt lat="41.667711281" lon="2.514099691">
        <ele>233.26</ele>
        <time>2013-12-06T09:43:16Z</time>
      </trkpt>
      <trkpt lat="41.667824772" lon="2.513915206">
        <ele>233.26</ele>
        <time>2013-12-06T09:43:22Z</time>
      </trkpt>
      <trkpt lat="41.667882356" lon="2.513729127">
        <ele>233.26</ele>
        <time>2013-12-06T09:43:28Z</time>
      </trkpt>
      <trkpt lat="41.668019819" lon="2.513467612">
        <ele>234.22</ele>
        <time>2013-12-06T09:43:37Z</time>
      </trkpt>
      <trkpt lat="41.668197348" lon="2.513264435">
        <ele>234.22</ele>
        <time>2013-12-06T09:43:44Z</time>
      </trkpt>
      <trkpt lat="41.668264906" lon="2.513221016">
        <ele>233.26</ele>
        <time>2013-12-06T09:43:46Z</time>
      </trkpt>
      <trkpt lat="41.668508568" lon="2.513141640">
        <ele>231.81</ele>
        <time>2013-12-06T09:43:53Z</time>
      </trkpt>
      <trkpt lat="41.668745189" lon="2.513194027">
        <ele>229.41</ele>
        <time>2013-12-06T09:44:00Z</time>
      </trkpt>
      <trkpt lat="41.668876030" lon="2.513230823">
        <ele>227.49</ele>
        <time>2013-12-06T09:44:06Z</time>
      </trkpt>
      <trkpt lat="41.669102426" lon="2.513112974">
        <ele>226.53</ele>
        <time>2013-12-06T09:44:14Z</time>
      </trkpt>
      <trkpt lat="41.669214576" lon="2.513033178">
        <ele>226.53</ele>
        <time>2013-12-06T09:44:20Z</time>
      </trkpt>
      <trkpt lat="41.669353631" lon="2.512921866">
        <ele>226.53</ele>
        <time>2013-12-06T09:44:28Z</time>
      </trkpt>
      <trkpt lat="41.669469050" lon="2.512830168">
        <ele>226.53</ele>
        <time>2013-12-06T09:44:36Z</time>
      </trkpt>
      <trkpt lat="41.669566532" lon="2.512712235">
        <ele>226.53</ele>
        <time>2013-12-06T09:44:43Z</time>
      </trkpt>
      <trkpt lat="41.669632832" lon="2.512615424">
        <ele>227.97</ele>
        <time>2013-12-06T09:44:48Z</time>
      </trkpt>
      <trkpt lat="41.669694775" lon="2.512506710">
        <ele>228.45</ele>
        <time>2013-12-06T09:44:53Z</time>
      </trkpt>
      <trkpt lat="41.669690081" lon="2.512182163">
        <ele>228.45</ele>
        <time>2013-12-06T09:45:02Z</time>
      </trkpt>
      <trkpt lat="41.669702905" lon="2.511965407">
        <ele>227.01</ele>
        <time>2013-12-06T09:45:10Z</time>
      </trkpt>
      <trkpt lat="41.669692009" lon="2.511801625">
        <ele>226.53</ele>
        <time>2013-12-06T09:45:16Z</time>
      </trkpt>
      <trkpt lat="41.669613973" lon="2.511592161">
        <ele>225.57</ele>
        <time>2013-12-06T09:45:23Z</time>
      </trkpt>
      <trkpt lat="41.669515318" lon="2.511323605">
        <ele>225.09</ele>
        <time>2013-12-06T09:45:29Z</time>
      </trkpt>
      <trkpt lat="41.669488915" lon="2.510885315">
        <ele>224.12</ele>
        <time>2013-12-06T09:45:36Z</time>
      </trkpt>
      <trkpt lat="41.669490592" lon="2.510823876">
        <ele>224.12</ele>
        <time>2013-12-06T09:45:37Z</time>
      </trkpt>
      <trkpt lat="41.669488580" lon="2.510332110">
        <ele>221.72</ele>
        <time>2013-12-06T09:45:45Z</time>
      </trkpt>
      <trkpt lat="41.669494280" lon="2.510137566">
        <ele>220.76</ele>
        <time>2013-12-06T09:45:48Z</time>
      </trkpt>
      <trkpt lat="41.669523281" lon="2.509798601">
        <ele>220.28</ele>
        <time>2013-12-06T09:45:55Z</time>
      </trkpt>
      <trkpt lat="41.669536776" lon="2.509601962">
        <ele>219.80</ele>
        <time>2013-12-06T09:46:02Z</time>
      </trkpt>
      <trkpt lat="41.669596623" lon="2.509352014">
        <ele>219.32</ele>
        <time>2013-12-06T09:46:09Z</time>
      </trkpt>
      <trkpt lat="41.669653787" lon="2.509041632">
        <ele>219.32</ele>
        <time>2013-12-06T09:46:17Z</time>
      </trkpt>
      <trkpt lat="41.669701229" lon="2.508682300">
        <ele>219.32</ele>
        <time>2013-12-06T09:46:25Z</time>
      </trkpt>
      <trkpt lat="41.669707264" lon="2.508239735">
        <ele>218.36</ele>
        <time>2013-12-06T09:46:33Z</time>
      </trkpt>
      <trkpt lat="41.669756214" lon="2.507827178">
        <ele>217.88</ele>
        <time>2013-12-06T09:46:40Z</time>
      </trkpt>
      <trkpt lat="41.669843554" lon="2.507390145">
        <ele>217.88</ele>
        <time>2013-12-06T09:46:48Z</time>
      </trkpt>
      <trkpt lat="41.669994763" lon="2.507026455">
        <ele>217.88</ele>
        <time>2013-12-06T09:46:56Z</time>
      </trkpt>
      <trkpt lat="41.670013287" lon="2.506976918">
        <ele>217.90</ele>
        <time>2013-12-06T09:46:57Z</time>
      </trkpt>
      <trkpt lat="41.670088976" lon="2.506457910">
        <ele>216.40</ele>
        <time>2013-12-06T09:47:05Z</time>
      </trkpt>
      <trkpt lat="41.670130298" lon="2.505768163">
        <ele>215.00</ele>
        <time>2013-12-06T09:47:13Z</time>
      </trkpt>
      <trkpt lat="41.670136669" lon="2.505500361">
        <ele>215.00</ele>
        <time>2013-12-06T09:47:16Z</time>
      </trkpt>
      <trkpt lat="41.670008174" lon="2.505079506">
        <ele>214.00</ele>
        <time>2013-12-06T09:47:21Z</time>
      </trkpt>
      <trkpt lat="41.669956709" lon="2.505011948">
        <ele>214.51</ele>
        <time>2013-12-06T09:47:22Z</time>
      </trkpt>
      <trkpt lat="41.669688069" lon="2.504677594">
        <ele>213.55</ele>
        <time>2013-12-06T09:47:27Z</time>
      </trkpt>
      <trkpt lat="41.669603412" lon="2.504302085">
        <ele>213.07</ele>
        <time>2013-12-06T09:47:31Z</time>
      </trkpt>
      <trkpt lat="41.669613806" lon="2.504200496">
        <ele>213.07</ele>
        <time>2013-12-06T09:47:32Z</time>
      </trkpt>
      <trkpt lat="41.669759483" lon="2.503273541">
        <ele>211.15</ele>
        <time>2013-12-06T09:47:41Z</time>
      </trkpt>
      <trkpt lat="41.669701816" lon="2.502634924">
        <ele>210.67</ele>
        <time>2013-12-06T09:47:47Z</time>
      </trkpt>
      <trkpt lat="41.669662169" lon="2.502539706">
        <ele>209.70</ele>
        <time>2013-12-06T09:47:48Z</time>
      </trkpt>
      <trkpt lat="41.669520766" lon="2.502258241">
        <ele>208.74</ele>
        <time>2013-12-06T09:47:51Z</time>
      </trkpt>
      <trkpt lat="41.669352709" lon="2.501627335">
        <ele>206.82</ele>
        <time>2013-12-06T09:47:57Z</time>
      </trkpt>
      <trkpt lat="41.669212145" lon="2.501023838">
        <ele>205.38</ele>
        <time>2013-12-06T09:48:03Z</time>
      </trkpt>
      <trkpt lat="41.668936883" lon="2.500394860">
        <ele>204.42</ele>
        <time>2013-12-06T09:48:10Z</time>
      </trkpt>
      <trkpt lat="41.668902936" lon="2.500302827">
        <ele>203.94</ele>
        <time>2013-12-06T09:48:11Z</time>
      </trkpt>
      <trkpt lat="41.668838312" lon="2.499540828">
        <ele>202.01</ele>
        <time>2013-12-06T09:48:18Z</time>
      </trkpt>
      <trkpt lat="41.668829008" lon="2.499323150">
        <ele>201.53</ele>
        <time>2013-12-06T09:48:20Z</time>
      </trkpt>
      <trkpt lat="41.668961777" lon="2.498976475">
        <ele>201.53</ele>
        <time>2013-12-06T09:48:24Z</time>
      </trkpt>
      <trkpt lat="41.669173001" lon="2.498924842">
        <ele>201.53</ele>
        <time>2013-12-06T09:48:27Z</time>
      </trkpt>
      <trkpt lat="41.669246092" lon="2.498940181">
        <ele>201.53</ele>
        <time>2013-12-06T09:48:28Z</time>
      </trkpt>
      <trkpt lat="41.669830226" lon="2.499147633">
        <ele>201.05</ele>
        <time>2013-12-06T09:48:36Z</time>
      </trkpt>
      <trkpt lat="41.670282514" lon="2.499166157">
        <ele>201.10</ele>
        <time>2013-12-06T09:48:42Z</time>
      </trkpt>
      <trkpt lat="41.670487703" lon="2.499022994">
        <ele>201.10</ele>
        <time>2013-12-06T09:48:45Z</time>
      </trkpt>
      <trkpt lat="41.671055661" lon="2.498456545">
        <ele>201.10</ele>
        <time>2013-12-06T09:48:54Z</time>
      </trkpt>
      <trkpt lat="41.671178288" lon="2.498326374">
        <ele>201.10</ele>
        <time>2013-12-06T09:48:56Z</time>
      </trkpt>
      <trkpt lat="41.671362522" lon="2.497974586">
        <ele>200.10</ele>
        <time>2013-12-06T09:49:00Z</time>
      </trkpt>
      <trkpt lat="41.671462351" lon="2.497660097">
        <ele>199.60</ele>
        <time>2013-12-06T09:49:03Z</time>
      </trkpt>
      <trkpt lat="41.671711712" lon="2.497404616">
        <ele>199.10</ele>
        <time>2013-12-06T09:49:07Z</time>
      </trkpt>
      <trkpt lat="41.672255362" lon="2.497206217">
        <ele>198.70</ele>
        <time>2013-12-06T09:49:14Z</time>
      </trkpt>
      <trkpt lat="41.672507071" lon="2.496956939">
        <ele>198.70</ele>
        <time>2013-12-06T09:49:18Z</time>
      </trkpt>
      <trkpt lat="41.672660544" lon="2.496686287">
        <ele>197.70</ele>
        <time>2013-12-06T09:49:21Z</time>
      </trkpt>
      <trkpt lat="41.672869588" lon="2.496440027">
        <ele>196.30</ele>
        <time>2013-12-06T09:49:24Z</time>
      </trkpt>
      <trkpt lat="41.673221544" lon="2.496209776">
        <ele>193.40</ele>
        <time>2013-12-06T09:49:28Z</time>
      </trkpt>
      <trkpt lat="41.673622618" lon="2.496172225">
        <ele>191.00</ele>
        <time>2013-12-06T09:49:32Z</time>
      </trkpt>
      <trkpt lat="41.674031236" lon="2.496196533">
        <ele>188.60</ele>
        <time>2013-12-06T09:49:36Z</time>
      </trkpt>
      <trkpt lat="41.674222511" lon="2.496154539">
        <ele>187.10</ele>
        <time>2013-12-06T09:49:38Z</time>
      </trkpt>
      <trkpt lat="41.674412864" lon="2.496014059">
        <ele>185.70</ele>
        <time>2013-12-06T09:49:42Z</time>
      </trkpt>
      <trkpt lat="41.674388389" lon="2.495930407">
        <ele>185.20</ele>
        <time>2013-12-06T09:49:46Z</time>
      </trkpt>
      <trkpt lat="41.674385539" lon="2.495940298">
        <ele>185.20</ele>
        <time>2013-12-06T09:49:57Z</time>
      </trkpt>
      <trkpt lat="41.674391155" lon="2.495960917">
        <ele>185.20</ele>
        <time>2013-12-06T09:50:10Z</time>
      </trkpt>
      <trkpt lat="41.674398112" lon="2.495961253">
        <ele>185.20</ele>
        <time>2013-12-06T09:50:30Z</time>
      </trkpt>
      <trkpt lat="41.674380762" lon="2.495939963">
        <ele>185.20</ele>
        <time>2013-12-06T09:50:40Z</time>
      </trkpt>
      <trkpt lat="41.674372044" lon="2.495942477">
        <ele>185.20</ele>
        <time>2013-12-06T09:50:46Z</time>
      </trkpt>
      <trkpt lat="41.674346731" lon="2.495927977">
        <ele>185.20</ele>
        <time>2013-12-06T09:50:49Z</time>
      </trkpt>
      <trkpt lat="41.674306414" lon="2.495826723">
        <ele>184.70</ele>
        <time>2013-12-06T09:50:55Z</time>
      </trkpt>
      <trkpt lat="41.674209771" lon="2.495763188">
        <ele>184.70</ele>
        <time>2013-12-06T09:51:01Z</time>
      </trkpt>
      <trkpt lat="41.674067027" lon="2.495638130">
        <ele>184.70</ele>
        <time>2013-12-06T09:51:08Z</time>
      </trkpt>
      <trkpt lat="41.673880865" lon="2.495454902">
        <ele>184.70</ele>
        <time>2013-12-06T09:51:15Z</time>
      </trkpt>
      <trkpt lat="41.673656900" lon="2.495272260">
        <ele>184.70</ele>
        <time>2013-12-06T09:51:22Z</time>
      </trkpt>
      <trkpt lat="41.673504685" lon="2.495153573">
        <ele>186.20</ele>
        <time>2013-12-06T09:51:28Z</time>
      </trkpt>
      <trkpt lat="41.673397900" lon="2.495071178">
        <ele>187.60</ele>
        <time>2013-12-06T09:51:33Z</time>
      </trkpt>
      <trkpt lat="41.673240739" lon="2.495103030">
        <ele>188.10</ele>
        <time>2013-12-06T09:51:38Z</time>
      </trkpt>
      <trkpt lat="41.673153567" lon="2.495166816">
        <ele>188.10</ele>
        <time>2013-12-06T09:51:41Z</time>
      </trkpt>
      <trkpt lat="41.673009650" lon="2.495325402">
        <ele>188.10</ele>
        <time>2013-12-06T09:51:47Z</time>
      </trkpt>
      <trkpt lat="41.672958101" lon="2.495291120">
        <ele>188.10</ele>
        <time>2013-12-06T09:52:01Z</time>
      </trkpt>
      <trkpt lat="41.672952234" lon="2.495362785">
        <ele>188.10</ele>
        <time>2013-12-06T09:52:21Z</time>
      </trkpt>
      <trkpt lat="41.672943433" lon="2.495366305">
        <ele>188.10</ele>
        <time>2013-12-06T09:52:35Z</time>
      </trkpt>
      <trkpt lat="41.672857267" lon="2.495474516">
        <ele>188.10</ele>
        <time>2013-12-06T09:52:42Z</time>
      </trkpt>
      <trkpt lat="41.672699939" lon="2.495677609">
        <ele>188.10</ele>
        <time>2013-12-06T09:52:48Z</time>
      </trkpt>
      <trkpt lat="41.672502377" lon="2.495929821">
        <ele>188.10</ele>
        <time>2013-12-06T09:52:55Z</time>
      </trkpt>
      <trkpt lat="41.672421324" lon="2.496055717">
        <ele>188.10</ele>
        <time>2013-12-06T09:52:58Z</time>
      </trkpt>
      <trkpt lat="41.672271959" lon="2.496087065">
        <ele>188.10</ele>
        <time>2013-12-06T09:53:03Z</time>
      </trkpt>
      <trkpt lat="41.672238347" lon="2.496091508">
        <ele>188.10</ele>
        <time>2013-12-06T09:53:04Z</time>
      </trkpt>
      <trkpt lat="41.671972808" lon="2.496164598">
        <ele>188.10</ele>
        <time>2013-12-06T09:53:10Z</time>
      </trkpt>
      <trkpt lat="41.671645579" lon="2.496290075">
        <ele>188.60</ele>
        <time>2013-12-06T09:53:18Z</time>
      </trkpt>
      <trkpt lat="41.671436870" lon="2.496443967">
        <ele>189.00</ele>
        <time>2013-12-06T09:53:24Z</time>
      </trkpt>
      <trkpt lat="41.671247355" lon="2.496600792">
        <ele>190.00</ele>
        <time>2013-12-06T09:53:30Z</time>
      </trkpt>
      <trkpt lat="41.671062618" lon="2.496876473">
        <ele>190.00</ele>
        <time>2013-12-06T09:53:37Z</time>
      </trkpt>
      <trkpt lat="41.670992880" lon="2.497111585">
        <ele>191.00</ele>
        <time>2013-12-06T09:53:42Z</time>
      </trkpt>
      <trkpt lat="41.670874947" lon="2.497432947">
        <ele>191.40</ele>
        <time>2013-12-06T09:53:49Z</time>
      </trkpt>
      <trkpt lat="41.670709823" lon="2.497784736">
        <ele>191.40</ele>
        <time>2013-12-06T09:53:56Z</time>
      </trkpt>
      <trkpt lat="41.670566241" lon="2.497997133">
        <ele>191.90</ele>
        <time>2013-12-06T09:54:01Z</time>
      </trkpt>
      <trkpt lat="41.670459540" lon="2.498108613">
        <ele>192.40</ele>
        <time>2013-12-06T09:54:05Z</time>
      </trkpt>
      <trkpt lat="41.670324843" lon="2.498127304">
        <ele>193.80</ele>
        <time>2013-12-06T09:54:10Z</time>
      </trkpt>
      <trkpt lat="41.670101800" lon="2.498232497">
        <ele>193.80</ele>
        <time>2013-12-06T09:54:16Z</time>
      </trkpt>
      <trkpt lat="41.669903400" lon="2.498366943">
        <ele>193.84</ele>
        <time>2013-12-06T09:54:22Z</time>
      </trkpt>
      <trkpt lat="41.669768955" lon="2.498409690">
        <ele>193.84</ele>
        <time>2013-12-06T09:54:27Z</time>
      </trkpt>
      <trkpt lat="41.669603328" lon="2.498403488">
        <ele>193.84</ele>
        <time>2013-12-06T09:54:33Z</time>
      </trkpt>
      <trkpt lat="41.669436277" lon="2.498425616">
        <ele>193.84</ele>
        <time>2013-12-06T09:54:40Z</time>
      </trkpt>
      <trkpt lat="41.669268974" lon="2.498429472">
        <ele>193.36</ele>
        <time>2013-12-06T09:54:46Z</time>
      </trkpt>
      <trkpt lat="41.669069569" lon="2.498473896">
        <ele>193.84</ele>
        <time>2013-12-06T09:54:54Z</time>
      </trkpt>
      <trkpt lat="41.668880557" lon="2.498542963">
        <ele>193.84</ele>
        <time>2013-12-06T09:55:02Z</time>
      </trkpt>
      <trkpt lat="41.668720043" lon="2.498606749">
        <ele>194.80</ele>
        <time>2013-12-06T09:55:09Z</time>
      </trkpt>
      <trkpt lat="41.668627256" lon="2.498656202">
        <ele>194.80</ele>
        <time>2013-12-06T09:55:13Z</time>
      </trkpt>
      <trkpt lat="41.668537485" lon="2.498663075">
        <ele>195.77</ele>
        <time>2013-12-06T09:55:17Z</time>
      </trkpt>
      <trkpt lat="41.668376218" lon="2.498768436">
        <ele>196.25</ele>
        <time>2013-12-06T09:55:25Z</time>
      </trkpt>
      <trkpt lat="41.668239676" lon="2.498906318">
        <ele>195.77</ele>
        <time>2013-12-06T09:55:32Z</time>
      </trkpt>
      <trkpt lat="41.668127275" lon="2.498998435">
        <ele>196.25</ele>
        <time>2013-12-06T09:55:38Z</time>
      </trkpt>
      <trkpt lat="41.668126521" lon="2.499230027">
        <ele>194.80</ele>
        <time>2013-12-06T09:55:45Z</time>
      </trkpt>
      <trkpt lat="41.668129538" lon="2.499435719">
        <ele>194.80</ele>
        <time>2013-12-06T09:55:50Z</time>
      </trkpt>
      <trkpt lat="41.668131969" lon="2.499469750">
        <ele>194.80</ele>
        <time>2013-12-06T09:55:51Z</time>
      </trkpt>
      <trkpt lat="41.668135154" lon="2.499634203">
        <ele>196.25</ele>
        <time>2013-12-06T09:55:55Z</time>
      </trkpt>
      <trkpt lat="41.668165413" lon="2.499848863">
        <ele>196.73</ele>
        <time>2013-12-06T09:56:01Z</time>
      </trkpt>
      <trkpt lat="41.668217632" lon="2.500114150">
        <ele>197.21</ele>
        <time>2013-12-06T09:56:09Z</time>
      </trkpt>
      <trkpt lat="41.668223918" lon="2.500387317">
        <ele>198.17</ele>
        <time>2013-12-06T09:56:17Z</time>
      </trkpt>
      <trkpt lat="41.668234982" lon="2.500654364">
        <ele>198.65</ele>
        <time>2013-12-06T09:56:25Z</time>
      </trkpt>
      <trkpt lat="41.668299272" lon="2.501004812">
        <ele>198.65</ele>
        <time>2013-12-06T09:56:35Z</time>
      </trkpt>
      <trkpt lat="41.668360040" lon="2.501328437">
        <ele>199.13</ele>
        <time>2013-12-06T09:56:44Z</time>
      </trkpt>
      <trkpt lat="41.668415780" lon="2.501576793">
        <ele>199.61</ele>
        <time>2013-12-06T09:56:51Z</time>
      </trkpt>
      <trkpt lat="41.668493983" lon="2.501851468">
        <ele>199.61</ele>
        <time>2013-12-06T09:56:59Z</time>
      </trkpt>
      <trkpt lat="41.668559027" lon="2.502224546">
        <ele>200.09</ele>
        <time>2013-12-06T09:57:09Z</time>
      </trkpt>
      <trkpt lat="41.668633039" lon="2.502452869">
        <ele>200.09</ele>
        <time>2013-12-06T09:57:15Z</time>
      </trkpt>
      <trkpt lat="41.668695736" lon="2.502747409">
        <ele>200.57</ele>
        <time>2013-12-06T09:57:23Z</time>
      </trkpt>
      <trkpt lat="41.668774190" lon="2.503066424">
        <ele>201.53</ele>
        <time>2013-12-06T09:57:32Z</time>
      </trkpt>
      <trkpt lat="41.668876366" lon="2.503440006">
        <ele>202.01</ele>
        <time>2013-12-06T09:57:41Z</time>
      </trkpt>
      <trkpt lat="41.668907882" lon="2.503741838">
        <ele>202.01</ele>
        <time>2013-12-06T09:57:47Z</time>
      </trkpt>
      <trkpt lat="41.668867313" lon="2.504050292">
        <ele>202.01</ele>
        <time>2013-12-06T09:57:54Z</time>
      </trkpt>
      <trkpt lat="41.668779136" lon="2.504410630">
        <ele>202.49</ele>
        <time>2013-12-06T09:58:03Z</time>
      </trkpt>
      <trkpt lat="41.668749548" lon="2.504632080">
        <ele>204.42</ele>
        <time>2013-12-06T09:58:09Z</time>
      </trkpt>
      <trkpt lat="41.668786596" lon="2.504865600">
        <ele>207.30</ele>
        <time>2013-12-06T09:58:15Z</time>
      </trkpt>
      <trkpt lat="41.668844766" lon="2.505051594">
        <ele>209.70</ele>
        <time>2013-12-06T09:58:22Z</time>
      </trkpt>
      <trkpt lat="41.668833534" lon="2.505273463">
        <ele>211.63</ele>
        <time>2013-12-06T09:58:29Z</time>
      </trkpt>
      <trkpt lat="41.668810149" lon="2.505461637">
        <ele>213.07</ele>
        <time>2013-12-06T09:58:35Z</time>
      </trkpt>
      <trkpt lat="41.668856501" lon="2.505753076">
        <ele>214.99</ele>
        <time>2013-12-06T09:58:44Z</time>
      </trkpt>
      <trkpt lat="41.668904026" lon="2.506054992">
        <ele>216.43</ele>
        <time>2013-12-06T09:58:53Z</time>
      </trkpt>
      <trkpt lat="41.668914839" lon="2.506269401">
        <ele>218.36</ele>
        <time>2013-12-06T09:59:00Z</time>
      </trkpt>
      <trkpt lat="41.668860105" lon="2.506464783">
        <ele>219.32</ele>
        <time>2013-12-06T09:59:07Z</time>
      </trkpt>
      <trkpt lat="41.668849292" lon="2.506509459">
        <ele>219.32</ele>
        <time>2013-12-06T09:59:08Z</time>
      </trkpt>
      <trkpt lat="41.668834875" lon="2.506775081">
        <ele>217.88</ele>
        <time>2013-12-06T09:59:13Z</time>
      </trkpt>
      <trkpt lat="41.668977032" lon="2.506964596">
        <ele>216.91</ele>
        <time>2013-12-06T09:59:19Z</time>
      </trkpt>
      <trkpt lat="41.669071580" lon="2.507184789">
        <ele>216.91</ele>
        <time>2013-12-06T09:59:27Z</time>
      </trkpt>
      <trkpt lat="41.669087925" lon="2.507264333">
        <ele>216.91</ele>
        <time>2013-12-06T09:59:29Z</time>
      </trkpt>
      <trkpt lat="41.669040651" lon="2.507598519">
        <ele>214.99</ele>
        <time>2013-12-06T09:59:34Z</time>
      </trkpt>
      <trkpt lat="41.668965130" lon="2.507989451">
        <ele>214.03</ele>
        <time>2013-12-06T09:59:39Z</time>
      </trkpt>
      <trkpt lat="41.669018607" lon="2.508230012">
        <ele>213.55</ele>
        <time>2013-12-06T09:59:43Z</time>
      </trkpt>
      <trkpt lat="41.669041322" lon="2.508288350">
        <ele>213.07</ele>
        <time>2013-12-06T09:59:44Z</time>
      </trkpt>
      <trkpt lat="41.669137630" lon="2.508724209">
        <ele>213.07</ele>
        <time>2013-12-06T09:59:52Z</time>
      </trkpt>
      <trkpt lat="41.669167721" lon="2.508895619">
        <ele>213.07</ele>
        <time>2013-12-06T09:59:56Z</time>
      </trkpt>
      <trkpt lat="41.669165290" lon="2.509056719">
        <ele>212.59</ele>
        <time>2013-12-06T10:00:02Z</time>
      </trkpt>
      <trkpt lat="41.669186915" lon="2.509128049">
        <ele>212.59</ele>
        <time>2013-12-06T10:00:07Z</time>
      </trkpt>
      <trkpt lat="41.669177444" lon="2.509234667">
        <ele>212.59</ele>
        <time>2013-12-06T10:00:11Z</time>
      </trkpt>
      <trkpt lat="41.669167553" lon="2.509278169">
        <ele>212.59</ele>
        <time>2013-12-06T10:00:13Z</time>
      </trkpt>
      <trkpt lat="41.669155651" lon="2.509351259">
        <ele>213.55</ele>
        <time>2013-12-06T10:00:16Z</time>
      </trkpt>
      <trkpt lat="41.669130673" lon="2.509532225">
        <ele>214.99</ele>
        <time>2013-12-06T10:00:23Z</time>
      </trkpt>
      <trkpt lat="41.669135115" lon="2.509816622">
        <ele>215.47</ele>
        <time>2013-12-06T10:00:31Z</time>
      </trkpt>
      <trkpt lat="41.669099241" lon="2.509948218">
        <ele>216.43</ele>
        <time>2013-12-06T10:00:37Z</time>
      </trkpt>
      <trkpt lat="41.669079543" lon="2.509972526">
        <ele>216.43</ele>
        <time>2013-12-06T10:00:43Z</time>
      </trkpt>
      <trkpt lat="41.669075520" lon="2.510000689">
        <ele>216.43</ele>
        <time>2013-12-06T10:00:55Z</time>
      </trkpt>
      <trkpt lat="41.669040735" lon="2.509970095">
        <ele>216.91</ele>
        <time>2013-12-06T10:00:59Z</time>
      </trkpt>
      <trkpt lat="41.668996646" lon="2.509939166">
        <ele>217.40</ele>
        <time>2013-12-06T10:01:06Z</time>
      </trkpt>
      <trkpt lat="41.668995640" lon="2.509932963">
        <ele>217.40</ele>
        <time>2013-12-06T10:01:14Z</time>
      </trkpt>
      <trkpt lat="41.668905367" lon="2.510063721">
        <ele>218.36</ele>
        <time>2013-12-06T10:01:22Z</time>
      </trkpt>
      <trkpt lat="41.668863122" lon="2.510122478">
        <ele>218.36</ele>
        <time>2013-12-06T10:01:25Z</time>
      </trkpt>
      <trkpt lat="41.668682744" lon="2.510285339">
        <ele>220.76</ele>
        <time>2013-12-06T10:01:35Z</time>
      </trkpt>
      <trkpt lat="41.668543185" lon="2.510373516">
        <ele>222.68</ele>
        <time>2013-12-06T10:01:42Z</time>
      </trkpt>
      <trkpt lat="41.668370769" lon="2.510495054">
        <ele>223.64</ele>
        <time>2013-12-06T10:01:50Z</time>
      </trkpt>
      <trkpt lat="41.668212603" lon="2.510578118">
        <ele>224.12</ele>
        <time>2013-12-06T10:01:57Z</time>
      </trkpt>
      <trkpt lat="41.668043707" lon="2.510636876">
        <ele>226.05</ele>
        <time>2013-12-06T10:02:05Z</time>
      </trkpt>
      <trkpt lat="41.667982687" lon="2.510640312">
        <ele>226.05</ele>
        <time>2013-12-06T10:02:08Z</time>
      </trkpt>
      <trkpt lat="41.667767188" lon="2.510740727">
        <ele>227.49</ele>
        <time>2013-12-06T10:02:18Z</time>
      </trkpt>
      <trkpt lat="41.667699798" lon="2.510802334">
        <ele>226.05</ele>
        <time>2013-12-06T10:02:20Z</time>
      </trkpt>
      <trkpt lat="41.667649255" lon="2.511017665">
        <ele>226.05</ele>
        <time>2013-12-06T10:02:25Z</time>
      </trkpt>
      <trkpt lat="41.667614386" lon="2.511163762">
        <ele>228.93</ele>
        <time>2013-12-06T10:02:30Z</time>
      </trkpt>
      <trkpt lat="41.667592929" lon="2.511215059">
        <ele>229.41</ele>
        <time>2013-12-06T10:02:32Z</time>
      </trkpt>
      <trkpt lat="41.667450520" lon="2.511495769">
        <ele>230.85</ele>
        <time>2013-12-06T10:02:41Z</time>
      </trkpt>
      <trkpt lat="41.667347423" lon="2.511680255">
        <ele>231.33</ele>
        <time>2013-12-06T10:02:48Z</time>
      </trkpt>
      <trkpt lat="41.667231752" lon="2.511914529">
        <ele>233.74</ele>
        <time>2013-12-06T10:02:58Z</time>
      </trkpt>
      <trkpt lat="41.667167799" lon="2.512092393">
        <ele>234.22</ele>
        <time>2013-12-06T10:03:05Z</time>
      </trkpt>
      <trkpt lat="41.667121111" lon="2.512334546">
        <ele>235.18</ele>
        <time>2013-12-06T10:03:13Z</time>
      </trkpt>
      <trkpt lat="41.667019942" lon="2.512434039">
        <ele>236.14</ele>
        <time>2013-12-06T10:03:19Z</time>
      </trkpt>
      <trkpt lat="41.666833361" lon="2.512449630">
        <ele>236.14</ele>
        <time>2013-12-06T10:03:24Z</time>
      </trkpt>
      <trkpt lat="41.666750967" lon="2.512503777">
        <ele>236.14</ele>
        <time>2013-12-06T10:03:29Z</time>
      </trkpt>
      <trkpt lat="41.666721965" lon="2.512519116">
        <ele>236.62</ele>
        <time>2013-12-06T10:03:32Z</time>
      </trkpt>
      <trkpt lat="41.666661783" lon="2.512570748">
        <ele>234.22</ele>
        <time>2013-12-06T10:03:39Z</time>
      </trkpt>
      <trkpt lat="41.666637978" lon="2.512639061">
        <ele>231.81</ele>
        <time>2013-12-06T10:03:44Z</time>
      </trkpt>
      <trkpt lat="41.666544353" lon="2.512700835">
        <ele>228.45</ele>
        <time>2013-12-06T10:03:50Z</time>
      </trkpt>
      <trkpt lat="41.666495570" lon="2.512672840">
        <ele>228.45</ele>
        <time>2013-12-06T10:03:53Z</time>
      </trkpt>
      <trkpt lat="41.666355927" lon="2.512598576">
        <ele>228.93</ele>
        <time>2013-12-06T10:04:01Z</time>
      </trkpt>
      <trkpt lat="41.666244783" lon="2.512535460">
        <ele>229.89</ele>
        <time>2013-12-06T10:04:07Z</time>
      </trkpt>
      <trkpt lat="41.666109332" lon="2.512435213">
        <ele>231.81</ele>
        <time>2013-12-06T10:04:15Z</time>
      </trkpt>
      <trkpt lat="41.666066081" lon="2.512394225">
        <ele>232.30</ele>
        <time>2013-12-06T10:04:18Z</time>
      </trkpt>
      <trkpt lat="41.665985028" lon="2.512415348">
        <ele>232.78</ele>
        <time>2013-12-06T10:04:24Z</time>
      </trkpt>
      <trkpt lat="41.665908669" lon="2.512389196">
        <ele>233.74</ele>
        <time>2013-12-06T10:04:30Z</time>
      </trkpt>
      <trkpt lat="41.665786796" lon="2.512412246">
        <ele>236.62</ele>
        <time>2013-12-06T10:04:38Z</time>
      </trkpt>
      <trkpt lat="41.665774140" lon="2.512421131">
        <ele>236.62</ele>
        <time>2013-12-06T10:04:39Z</time>
      </trkpt>
      <trkpt lat="41.665759974" lon="2.512475446">
        <ele>238.06</ele>
        <time>2013-12-06T10:04:44Z</time>
      </trkpt>
      <trkpt lat="41.665812026" lon="2.512584578">
        <ele>240.47</ele>
        <time>2013-12-06T10:04:52Z</time>
      </trkpt>
      <trkpt lat="41.665821162" lon="2.512633361">
        <ele>241.43</ele>
        <time>2013-12-06T10:04:59Z</time>
      </trkpt>
      <trkpt lat="41.665845721" lon="2.512711229">
        <ele>243.35</ele>
        <time>2013-12-06T10:05:08Z</time>
      </trkpt>
      <trkpt lat="41.665850499" lon="2.512731848">
        <ele>243.35</ele>
        <time>2013-12-06T10:05:16Z</time>
      </trkpt>
      <trkpt lat="41.665844548" lon="2.512746517">
        <ele>243.35</ele>
        <time>2013-12-06T10:05:30Z</time>
      </trkpt>
      <trkpt lat="41.665831053" lon="2.512747103">
        <ele>243.35</ele>
        <time>2013-12-06T10:05:33Z</time>
      </trkpt>
      <trkpt lat="41.665787970" lon="2.512720533">
        <ele>243.83</ele>
        <time>2013-12-06T10:05:37Z</time>
      </trkpt>
      <trkpt lat="41.665667186" lon="2.512626404">
        <ele>245.75</ele>
        <time>2013-12-06T10:05:46Z</time>
      </trkpt>
      <trkpt lat="41.665620164" lon="2.512579549">
        <ele>246.23</ele>
        <time>2013-12-06T10:05:50Z</time>
      </trkpt>
      <trkpt lat="41.665596695" lon="2.512565719">
        <ele>246.72</ele>
        <time>2013-12-06T10:05:52Z</time>
      </trkpt>
      <trkpt lat="41.665517486" lon="2.512567060">
        <ele>248.16</ele>
        <time>2013-12-06T10:06:00Z</time>
      </trkpt>
      <trkpt lat="41.665527544" lon="2.512661776">
        <ele>248.64</ele>
        <time>2013-12-06T10:06:07Z</time>
      </trkpt>
      <trkpt lat="41.665477085" lon="2.512764119">
        <ele>248.64</ele>
        <time>2013-12-06T10:06:15Z</time>
      </trkpt>
      <trkpt lat="41.665578171" lon="2.512876939">
        <ele>248.64</ele>
        <time>2013-12-06T10:06:22Z</time>
      </trkpt>
      <trkpt lat="41.665599042" lon="2.512911221">
        <ele>247.20</ele>
        <time>2013-12-06T10:06:24Z</time>
      </trkpt>
      <trkpt lat="41.665608429" lon="2.512927733">
        <ele>247.20</ele>
        <time>2013-12-06T10:06:25Z</time>
      </trkpt>
      <trkpt lat="41.665583535" lon="2.513045080">
        <ele>246.72</ele>
        <time>2013-12-06T10:06:31Z</time>
      </trkpt>
      <trkpt lat="41.665567861" lon="2.513040386">
        <ele>246.23</ele>
        <time>2013-12-06T10:06:37Z</time>
      </trkpt>
      <trkpt lat="41.665562832" lon="2.513036279">
        <ele>246.23</ele>
        <time>2013-12-06T10:06:40Z</time>
      </trkpt>
      <trkpt lat="41.665592252" lon="2.513012055">
        <ele>246.23</ele>
        <time>2013-12-06T10:06:46Z</time>
      </trkpt>
      <trkpt lat="41.665565598" lon="2.513011720">
        <ele>246.23</ele>
        <time>2013-12-06T10:07:08Z</time>
      </trkpt>
      <trkpt lat="41.665560233" lon="2.513036866">
        <ele>246.23</ele>
        <time>2013-12-06T10:07:30Z</time>
      </trkpt>
      <trkpt lat="41.665555456" lon="2.513062766">
        <ele>246.23</ele>
        <time>2013-12-06T10:07:57Z</time>
      </trkpt>
      <trkpt lat="41.665550846" lon="2.513049774">
        <ele>246.23</ele>
        <time>2013-12-06T10:08:13Z</time>
      </trkpt>
      <trkpt lat="41.665576913" lon="2.512990346">
        <ele>245.75</ele>
        <time>2013-12-06T10:08:36Z</time>
      </trkpt>
      <trkpt lat="41.665584960" lon="2.513008367">
        <ele>245.75</ele>
        <time>2013-12-06T10:08:55Z</time>
      </trkpt>
      <trkpt lat="41.665580434" lon="2.513041727">
        <ele>245.75</ele>
        <time>2013-12-06T10:09:11Z</time>
      </trkpt>
      <trkpt lat="41.665544308" lon="2.513035609">
        <ele>245.75</ele>
        <time>2013-12-06T10:09:33Z</time>
      </trkpt>
      <trkpt lat="41.665555288" lon="2.513006523">
        <ele>245.75</ele>
        <time>2013-12-06T10:09:50Z</time>
      </trkpt>
      <trkpt lat="41.665565011" lon="2.512995711">
        <ele>245.27</ele>
        <time>2013-12-06T10:10:01Z</time>
      </trkpt>
      <trkpt lat="41.665571130" lon="2.512994621">
        <ele>245.27</ele>
        <time>2013-12-06T10:10:20Z</time>
      </trkpt>
      <trkpt lat="41.665585714" lon="2.513021359">
        <ele>245.27</ele>
        <time>2013-12-06T10:10:37Z</time>
      </trkpt>
      <trkpt lat="41.665580434" lon="2.513019432">
        <ele>245.27</ele>
        <time>2013-12-06T10:10:53Z</time>
      </trkpt>
      <trkpt lat="41.665580685" lon="2.512993196">
        <ele>245.27</ele>
        <time>2013-12-06T10:11:12Z</time>
      </trkpt>
      <trkpt lat="41.665573561" lon="2.513001159">
        <ele>245.27</ele>
        <time>2013-12-06T10:11:28Z</time>
      </trkpt>
      <trkpt lat="41.665584709" lon="2.513009625">
        <ele>244.79</ele>
        <time>2013-12-06T10:11:46Z</time>
      </trkpt>
      <trkpt lat="41.665578841" lon="2.513032172">
        <ele>244.79</ele>
        <time>2013-12-06T10:11:58Z</time>
      </trkpt>
      <trkpt lat="41.665567358" lon="2.513034938">
        <ele>244.79</ele>
        <time>2013-12-06T10:12:12Z</time>
      </trkpt>
      <trkpt lat="41.665577332" lon="2.513019096">
        <ele>244.31</ele>
        <time>2013-12-06T10:12:25Z</time>
      </trkpt>
      <trkpt lat="41.665554450" lon="2.513007445">
        <ele>244.31</ele>
        <time>2013-12-06T10:12:45Z</time>
      </trkpt>
      <trkpt lat="41.665551097" lon="2.513022281">
        <ele>243.83</ele>
        <time>2013-12-06T10:13:07Z</time>
      </trkpt>
      <trkpt lat="41.665557467" lon="2.513042398">
        <ele>243.83</ele>
        <time>2013-12-06T10:13:23Z</time>
      </trkpt>
      <trkpt lat="41.665556964" lon="2.513057402">
        <ele>243.83</ele>
        <time>2013-12-06T10:13:43Z</time>
      </trkpt>
      <trkpt lat="41.665583703" lon="2.513018929">
        <ele>243.83</ele>
        <time>2013-12-06T10:14:05Z</time>
      </trkpt>
      <trkpt lat="41.665581440" lon="2.513013397">
        <ele>243.83</ele>
        <time>2013-12-06T10:14:19Z</time>
      </trkpt>
      <trkpt lat="41.665565095" lon="2.512996968">
        <ele>243.35</ele>
        <time>2013-12-06T10:14:34Z</time>
      </trkpt>
      <trkpt lat="41.665562664" lon="2.513020773">
        <ele>243.35</ele>
        <time>2013-12-06T10:14:54Z</time>
      </trkpt>
      <trkpt lat="41.665561994" lon="2.513055306">
        <ele>243.35</ele>
        <time>2013-12-06T10:15:10Z</time>
      </trkpt>
      <trkpt lat="41.665571968" lon="2.513047008">
        <ele>242.87</ele>
        <time>2013-12-06T10:15:24Z</time>
      </trkpt>
      <trkpt lat="41.665574064" lon="2.513030999">
        <ele>242.87</ele>
        <time>2013-12-06T10:15:39Z</time>
      </trkpt>
      <trkpt lat="41.665578674" lon="2.513016246">
        <ele>242.87</ele>
        <time>2013-12-06T10:15:55Z</time>
      </trkpt>
      <trkpt lat="41.665583451" lon="2.512993029">
        <ele>242.87</ele>
        <time>2013-12-06T10:16:10Z</time>
      </trkpt>
      <trkpt lat="41.665581607" lon="2.512986994">
        <ele>242.39</ele>
        <time>2013-12-06T10:16:33Z</time>
      </trkpt>
      <trkpt lat="41.665588732" lon="2.512974169">
        <ele>242.39</ele>
        <time>2013-12-06T10:16:47Z</time>
      </trkpt>
      <trkpt lat="41.665588061" lon="2.513000069">
        <ele>242.39</ele>
        <time>2013-12-06T10:16:59Z</time>
      </trkpt>
      <trkpt lat="41.665582865" lon="2.513025299">
        <ele>242.39</ele>
        <time>2013-12-06T10:17:16Z</time>
      </trkpt>
      <trkpt lat="41.665571968" lon="2.513041979">
        <ele>241.91</ele>
        <time>2013-12-06T10:17:28Z</time>
      </trkpt>
      <trkpt lat="41.665584541" lon="2.513052456">
        <ele>241.91</ele>
        <time>2013-12-06T10:17:46Z</time>
      </trkpt>
      <trkpt lat="41.665578171" lon="2.513050025">
        <ele>241.91</ele>
        <time>2013-12-06T10:17:58Z</time>
      </trkpt>
      <trkpt lat="41.665577081" lon="2.513033513">
        <ele>241.91</ele>
        <time>2013-12-06T10:18:15Z</time>
      </trkpt>
      <trkpt lat="41.665575237" lon="2.513026975">
        <ele>241.43</ele>
        <time>2013-12-06T10:18:29Z</time>
      </trkpt>
      <trkpt lat="41.665586301" lon="2.513026975">
        <ele>241.43</ele>
        <time>2013-12-06T10:18:46Z</time>
      </trkpt>
      <trkpt lat="41.665582445" lon="2.513012558">
        <ele>241.43</ele>
        <time>2013-12-06T10:19:03Z</time>
      </trkpt>
      <trkpt lat="41.665586217" lon="2.512997555">
        <ele>241.43</ele>
        <time>2013-12-06T10:19:22Z</time>
      </trkpt>
      <trkpt lat="41.665612453" lon="2.512962435">
        <ele>241.43</ele>
        <time>2013-12-06T10:19:41Z</time>
      </trkpt>
      <trkpt lat="41.665599796" lon="2.512976013">
        <ele>241.43</ele>
        <time>2013-12-06T10:19:57Z</time>
      </trkpt>
      <trkpt lat="41.665589570" lon="2.512986239">
        <ele>241.43</ele>
        <time>2013-12-06T10:20:20Z</time>
      </trkpt>
      <trkpt lat="41.665590324" lon="2.512999399">
        <ele>241.43</ele>
        <time>2013-12-06T10:20:34Z</time>
      </trkpt>
      <trkpt lat="41.665607088" lon="2.512992023">
        <ele>241.43</ele>
        <time>2013-12-06T10:20:38Z</time>
      </trkpt>
      <trkpt lat="41.665597114" lon="2.512922369">
        <ele>241.43</ele>
        <time>2013-12-06T10:20:43Z</time>
      </trkpt>
      <trkpt lat="41.665547828" lon="2.512849027">
        <ele>242.39</ele>
        <time>2013-12-06T10:20:49Z</time>
      </trkpt>
      <trkpt lat="41.665516815" lon="2.512822038">
        <ele>243.35</ele>
        <time>2013-12-06T10:20:51Z</time>
      </trkpt>
      <trkpt lat="41.665532070" lon="2.512674684">
        <ele>243.83</ele>
        <time>2013-12-06T10:20:58Z</time>
      </trkpt>
      <trkpt lat="41.665506589" lon="2.512537137">
        <ele>243.35</ele>
        <time>2013-12-06T10:21:03Z</time>
      </trkpt>
      <trkpt lat="41.665487898" lon="2.512487935">
        <ele>243.35</ele>
        <time>2013-12-06T10:21:05Z</time>
      </trkpt>
      <trkpt lat="41.665439282" lon="2.512333205">
        <ele>243.83</ele>
        <time>2013-12-06T10:21:11Z</time>
      </trkpt>
      <trkpt lat="41.665338532" lon="2.512171853">
        <ele>244.79</ele>
        <time>2013-12-06T10:21:19Z</time>
      </trkpt>
      <trkpt lat="41.665239290" lon="2.512040509">
        <ele>245.75</ele>
        <time>2013-12-06T10:21:26Z</time>
      </trkpt>
      <trkpt lat="41.665158656" lon="2.511940094">
        <ele>247.20</ele>
        <time>2013-12-06T10:21:32Z</time>
      </trkpt>
      <trkpt lat="41.665084560" lon="2.511836577">
        <ele>247.68</ele>
        <time>2013-12-06T10:21:38Z</time>
      </trkpt>
      <trkpt lat="41.664991186" lon="2.511722667">
        <ele>249.12</ele>
        <time>2013-12-06T10:21:44Z</time>
      </trkpt>
      <trkpt lat="41.664835869" lon="2.511602722">
        <ele>249.60</ele>
        <time>2013-12-06T10:21:52Z</time>
      </trkpt>
      <trkpt lat="41.664753140" lon="2.511533655">
        <ele>252.00</ele>
        <time>2013-12-06T10:21:58Z</time>
      </trkpt>
      <trkpt lat="41.664696143" lon="2.511479592">
        <ele>252.00</ele>
        <time>2013-12-06T10:22:02Z</time>
      </trkpt>
      <trkpt lat="41.664646774" lon="2.511427540">
        <ele>252.48</ele>
        <time>2013-12-06T10:22:05Z</time>
      </trkpt>
      <trkpt lat="41.664627914" lon="2.511395354">
        <ele>252.96</ele>
        <time>2013-12-06T10:22:07Z</time>
      </trkpt>
      <trkpt lat="41.664517106" lon="2.511245905">
        <ele>255.37</ele>
        <time>2013-12-06T10:22:15Z</time>
      </trkpt>
      <trkpt lat="41.664468993" lon="2.511148172">
        <ele>256.33</ele>
        <time>2013-12-06T10:22:20Z</time>
      </trkpt>
      <trkpt lat="41.664377128" lon="2.510996124">
        <ele>257.77</ele>
        <time>2013-12-06T10:22:28Z</time>
      </trkpt>
      <trkpt lat="41.664360364" lon="2.510973325">
        <ele>258.25</ele>
        <time>2013-12-06T10:22:29Z</time>
      </trkpt>
      <trkpt lat="41.664316359" lon="2.510899481">
        <ele>259.21</ele>
        <time>2013-12-06T10:22:33Z</time>
      </trkpt>
      <trkpt lat="41.664285597" lon="2.510853380">
        <ele>259.69</ele>
        <time>2013-12-06T10:22:36Z</time>
      </trkpt>
      <trkpt lat="41.664184847" lon="2.510670655">
        <ele>261.62</ele>
        <time>2013-12-06T10:22:45Z</time>
      </trkpt>
      <trkpt lat="41.664109410" lon="2.510529671">
        <ele>263.54</ele>
        <time>2013-12-06T10:22:53Z</time>
      </trkpt>
      <trkpt lat="41.664096921" lon="2.510493964">
        <ele>264.02</ele>
        <time>2013-12-06T10:22:55Z</time>
      </trkpt>
      <trkpt lat="41.664078900" lon="2.510463873">
        <ele>264.50</ele>
        <time>2013-12-06T10:22:57Z</time>
      </trkpt>
      <trkpt lat="41.663994578" lon="2.510264719">
        <ele>266.90</ele>
        <time>2013-12-06T10:23:07Z</time>
      </trkpt>
      <trkpt lat="41.663925930" lon="2.510041928">
        <ele>268.83</ele>
        <time>2013-12-06T10:23:16Z</time>
      </trkpt>
      <trkpt lat="41.663843368" lon="2.509842774">
        <ele>270.27</ele>
        <time>2013-12-06T10:23:25Z</time>
      </trkpt>
      <trkpt lat="41.663759884" lon="2.509675639">
        <ele>272.19</ele>
        <time>2013-12-06T10:23:33Z</time>
      </trkpt>
      <trkpt lat="41.663696433" lon="2.509533230">
        <ele>274.59</ele>
        <time>2013-12-06T10:23:41Z</time>
      </trkpt>
      <trkpt lat="41.663608926" lon="2.509404568">
        <ele>276.52</ele>
        <time>2013-12-06T10:23:49Z</time>
      </trkpt>
      <trkpt lat="41.663578500" lon="2.509339944">
        <ele>277.00</ele>
        <time>2013-12-06T10:23:53Z</time>
      </trkpt>
      <trkpt lat="41.663504823" lon="2.509202816">
        <ele>278.92</ele>
        <time>2013-12-06T10:24:01Z</time>
      </trkpt>
      <trkpt lat="41.663430308" lon="2.509098964">
        <ele>280.84</ele>
        <time>2013-12-06T10:24:08Z</time>
      </trkpt>
      <trkpt lat="41.663383285" lon="2.508938534">
        <ele>281.80</ele>
        <time>2013-12-06T10:24:16Z</time>
      </trkpt>
      <trkpt lat="41.663360990" lon="2.508693196">
        <ele>282.77</ele>
        <time>2013-12-06T10:24:26Z</time>
      </trkpt>
      <trkpt lat="41.663344393" lon="2.508486498">
        <ele>284.69</ele>
        <time>2013-12-06T10:24:35Z</time>
      </trkpt>
      <trkpt lat="41.663305669" lon="2.508299163">
        <ele>285.65</ele>
        <time>2013-12-06T10:24:43Z</time>
      </trkpt>
      <trkpt lat="41.663306088" lon="2.508070840">
        <ele>286.61</ele>
        <time>2013-12-06T10:24:52Z</time>
      </trkpt>
      <trkpt lat="41.663320840" lon="2.507906722">
        <ele>287.09</ele>
        <time>2013-12-06T10:24:59Z</time>
      </trkpt>
      <trkpt lat="41.663284798" lon="2.507753166">
        <ele>288.53</ele>
        <time>2013-12-06T10:25:06Z</time>
      </trkpt>
      <trkpt lat="41.663207936" lon="2.507628443">
        <ele>289.97</ele>
        <time>2013-12-06T10:25:13Z</time>
      </trkpt>
      <trkpt lat="41.663121770" lon="2.507461475">
        <ele>292.38</ele>
        <time>2013-12-06T10:25:22Z</time>
      </trkpt>
      <trkpt lat="41.663051949" lon="2.507275816">
        <ele>294.78</ele>
        <time>2013-12-06T10:25:31Z</time>
      </trkpt>
      <trkpt lat="41.663015404" lon="2.507103065">
        <ele>296.22</ele>
        <time>2013-12-06T10:25:39Z</time>
      </trkpt>
      <trkpt lat="41.662971231" lon="2.506908270">
        <ele>297.67</ele>
        <time>2013-12-06T10:25:47Z</time>
      </trkpt>
      <trkpt lat="41.662937033" lon="2.506736357">
        <ele>299.59</ele>
        <time>2013-12-06T10:25:54Z</time>
      </trkpt>
      <trkpt lat="41.662933093" lon="2.506708613">
        <ele>299.59</ele>
        <time>2013-12-06T10:25:55Z</time>
      </trkpt>
      <trkpt lat="41.662924795" lon="2.506668966">
        <ele>300.07</ele>
        <time>2013-12-06T10:26:02Z</time>
      </trkpt>
      <trkpt lat="41.662908451" lon="2.506644910">
        <ele>300.07</ele>
        <time>2013-12-06T10:26:16Z</time>
      </trkpt>
      <trkpt lat="41.662934770" lon="2.506647844">
        <ele>300.07</ele>
        <time>2013-12-06T10:26:36Z</time>
      </trkpt>
      <trkpt lat="41.662938458" lon="2.506644407">
        <ele>300.07</ele>
        <time>2013-12-06T10:26:50Z</time>
      </trkpt>
      <trkpt lat="41.662918677" lon="2.506643318">
        <ele>300.55</ele>
        <time>2013-12-06T10:27:02Z</time>
      </trkpt>
      <trkpt lat="41.662893196" lon="2.506633762">
        <ele>300.55</ele>
        <time>2013-12-06T10:27:23Z</time>
      </trkpt>
      <trkpt lat="41.662892609" lon="2.506623285">
        <ele>300.55</ele>
        <time>2013-12-06T10:27:40Z</time>
      </trkpt>
      <trkpt lat="41.662910462" lon="2.506629236">
        <ele>300.55</ele>
        <time>2013-12-06T10:27:57Z</time>
      </trkpt>
      <trkpt lat="41.662914989" lon="2.506630913">
        <ele>300.55</ele>
        <time>2013-12-06T10:28:12Z</time>
      </trkpt>
      <trkpt lat="41.662920102" lon="2.506639462">
        <ele>300.55</ele>
        <time>2013-12-06T10:28:27Z</time>
      </trkpt>
      <trkpt lat="41.662906858" lon="2.506624291">
        <ele>300.55</ele>
        <time>2013-12-06T10:28:35Z</time>
      </trkpt>
      <trkpt lat="41.662903589" lon="2.506581208">
        <ele>300.55</ele>
        <time>2013-12-06T10:28:40Z</time>
      </trkpt>
      <trkpt lat="41.662910378" lon="2.506537203">
        <ele>300.55</ele>
        <time>2013-12-06T10:28:44Z</time>
      </trkpt>
      <trkpt lat="41.662966034" lon="2.506426729">
        <ele>301.03</ele>
        <time>2013-12-06T10:28:52Z</time>
      </trkpt>
      <trkpt lat="41.662969219" lon="2.506410469">
        <ele>301.51</ele>
        <time>2013-12-06T10:28:53Z</time>
      </trkpt>
      <trkpt lat="41.662973662" lon="2.506316591">
        <ele>301.99</ele>
        <time>2013-12-06T10:28:58Z</time>
      </trkpt>
      <trkpt lat="41.662929238" lon="2.506270323">
        <ele>302.95</ele>
        <time>2013-12-06T10:29:02Z</time>
      </trkpt>
      <trkpt lat="41.662882048" lon="2.506249368">
        <ele>302.95</ele>
        <time>2013-12-06T10:29:05Z</time>
      </trkpt>
      <trkpt lat="41.662861344" lon="2.506228833">
        <ele>302.95</ele>
        <time>2013-12-06T10:29:07Z</time>
      </trkpt>
      <trkpt lat="41.662755649" lon="2.506220870">
        <ele>302.95</ele>
        <time>2013-12-06T10:29:13Z</time>
      </trkpt>
      <trkpt lat="41.662546017" lon="2.506213326">
        <ele>303.91</ele>
        <time>2013-12-06T10:29:23Z</time>
      </trkpt>
      <trkpt lat="41.662391455" lon="2.506248279">
        <ele>304.39</ele>
        <time>2013-12-06T10:29:30Z</time>
      </trkpt>
      <trkpt lat="41.662206382" lon="2.506217266">
        <ele>304.39</ele>
        <time>2013-12-06T10:29:37Z</time>
      </trkpt>
      <trkpt lat="41.662106386" lon="2.506100673">
        <ele>304.39</ele>
        <time>2013-12-06T10:29:42Z</time>
      </trkpt>
      <trkpt lat="41.662003959" lon="2.505887605">
        <ele>304.39</ele>
        <time>2013-12-06T10:29:49Z</time>
      </trkpt>
      <trkpt lat="41.661856606" lon="2.505569261">
        <ele>305.36</ele>
        <time>2013-12-06T10:29:59Z</time>
      </trkpt>
      <trkpt lat="41.661670527" lon="2.505352924">
        <ele>306.32</ele>
        <time>2013-12-06T10:30:08Z</time>
      </trkpt>
      <trkpt lat="41.661520240" lon="2.505212695">
        <ele>307.76</ele>
        <time>2013-12-06T10:30:15Z</time>
      </trkpt>
      <trkpt lat="41.661385794" lon="2.505148405">
        <ele>309.20</ele>
        <time>2013-12-06T10:30:22Z</time>
      </trkpt>
      <trkpt lat="41.661233914" lon="2.505140107">
        <ele>309.20</ele>
        <time>2013-12-06T10:30:28Z</time>
      </trkpt>
      <trkpt lat="41.660992767" lon="2.505143460">
        <ele>309.20</ele>
        <time>2013-12-06T10:30:36Z</time>
      </trkpt>
      <trkpt lat="41.660807024" lon="2.505089564">
        <ele>309.20</ele>
        <time>2013-12-06T10:30:43Z</time>
      </trkpt>
      <trkpt lat="41.660592698" lon="2.505053355">
        <ele>309.20</ele>
        <time>2013-12-06T10:30:50Z</time>
      </trkpt>
      <trkpt lat="41.660338894" lon="2.505102053">
        <ele>309.20</ele>
        <time>2013-12-06T10:30:58Z</time>
      </trkpt>
      <trkpt lat="41.660093808" lon="2.505146561">
        <ele>309.20</ele>
        <time>2013-12-06T10:31:06Z</time>
      </trkpt>
      <trkpt lat="41.659890882" lon="2.505129630">
        <ele>310.16</ele>
        <time>2013-12-06T10:31:13Z</time>
      </trkpt>
      <trkpt lat="41.659769931" lon="2.505138934">
        <ele>310.16</ele>
        <time>2013-12-06T10:31:17Z</time>
      </trkpt>
      <trkpt lat="41.659579494" lon="2.505266171">
        <ele>311.12</ele>
        <time>2013-12-06T10:31:24Z</time>
      </trkpt>
      <trkpt lat="41.659462147" lon="2.505461218">
        <ele>311.60</ele>
        <time>2013-12-06T10:31:31Z</time>
      </trkpt>
      <trkpt lat="41.659465332" lon="2.505573368">
        <ele>312.57</ele>
        <time>2013-12-06T10:31:38Z</time>
      </trkpt>
      <trkpt lat="41.659462650" lon="2.505571189">
        <ele>312.57</ele>
        <time>2013-12-06T10:31:44Z</time>
      </trkpt>
      <trkpt lat="41.659458627" lon="2.505563393">
        <ele>312.57</ele>
        <time>2013-12-06T10:31:57Z</time>
      </trkpt>
      <trkpt lat="41.659457789" lon="2.505583845">
        <ele>312.57</ele>
        <time>2013-12-06T10:32:09Z</time>
      </trkpt>
      <trkpt lat="41.659444797" lon="2.505593820">
        <ele>312.57</ele>
        <time>2013-12-06T10:32:23Z</time>
      </trkpt>
      <trkpt lat="41.659425854" lon="2.505578146">
        <ele>312.57</ele>
        <time>2013-12-06T10:32:30Z</time>
      </trkpt>
      <trkpt lat="41.659424764" lon="2.505578313">
        <ele>312.57</ele>
        <time>2013-12-06T10:32:33Z</time>
      </trkpt>
      <trkpt lat="41.659304316" lon="2.505640675">
        <ele>312.57</ele>
        <time>2013-12-06T10:32:41Z</time>
      </trkpt>
      <trkpt lat="41.659113460" lon="2.505625922">
        <ele>312.57</ele>
        <time>2013-12-06T10:32:49Z</time>
      </trkpt>
      <trkpt lat="41.658965352" lon="2.505555682">
        <ele>313.05</ele>
        <time>2013-12-06T10:32:56Z</time>
      </trkpt>
      <trkpt lat="41.658791260" lon="2.505401204">
        <ele>313.53</ele>
        <time>2013-12-06T10:33:05Z</time>
      </trkpt>
      <trkpt lat="41.658629657" lon="2.505273463">
        <ele>314.01</ele>
        <time>2013-12-06T10:33:13Z</time>
      </trkpt>
      <trkpt lat="41.658511975" lon="2.505139101">
        <ele>314.49</ele>
        <time>2013-12-06T10:33:20Z</time>
      </trkpt>
      <trkpt lat="41.658370740" lon="2.504985545">
        <ele>314.49</ele>
        <time>2013-12-06T10:33:26Z</time>
      </trkpt>
      <trkpt lat="41.658334949" lon="2.504966183">
        <ele>313.53</ele>
        <time>2013-12-06T10:33:27Z</time>
      </trkpt>
      <trkpt lat="41.658202599" lon="2.504928799">
        <ele>313.05</ele>
        <time>2013-12-06T10:33:30Z</time>
      </trkpt>
      <trkpt lat="41.658108973" lon="2.504922262">
        <ele>313.05</ele>
        <time>2013-12-06T10:33:32Z</time>
      </trkpt>
      <trkpt lat="41.657788784" lon="2.504876915">
        <ele>312.09</ele>
        <time>2013-12-06T10:33:39Z</time>
      </trkpt>
      <trkpt lat="41.657548224" lon="2.504872138">
        <ele>311.60</ele>
        <time>2013-12-06T10:33:44Z</time>
      </trkpt>
      <trkpt lat="41.657292659" lon="2.505025610">
        <ele>310.64</ele>
        <time>2013-12-06T10:33:50Z</time>
      </trkpt>
      <trkpt lat="41.657199536" lon="2.505159889">
        <ele>310.16</ele>
        <time>2013-12-06T10:33:53Z</time>
      </trkpt>
      <trkpt lat="41.656943218" lon="2.505625839">
        <ele>308.24</ele>
        <time>2013-12-06T10:34:02Z</time>
      </trkpt>
      <trkpt lat="41.656823776" lon="2.505926917">
        <ele>306.32</ele>
        <time>2013-12-06T10:34:06Z</time>
      </trkpt>
      <trkpt lat="41.656613977" lon="2.506229168">
        <ele>303.43</ele>
        <time>2013-12-06T10:34:10Z</time>
      </trkpt>
      <trkpt lat="41.656348354" lon="2.506471405">
        <ele>301.03</ele>
        <time>2013-12-06T10:34:14Z</time>
      </trkpt>
      <trkpt lat="41.655958847" lon="2.506648012">
        <ele>299.11</ele>
        <time>2013-12-06T10:34:19Z</time>
      </trkpt>
      <trkpt lat="41.655553582" lon="2.506688664">
        <ele>298.63</ele>
        <time>2013-12-06T10:34:25Z</time>
      </trkpt>
      <trkpt lat="41.655345879" lon="2.506681875">
        <ele>301.51</ele>
        <time>2013-12-06T10:34:31Z</time>
      </trkpt>
      <trkpt lat="41.655134906" lon="2.506631080">
        <ele>303.91</ele>
        <time>2013-12-06T10:34:39Z</time>
      </trkpt>
      <trkpt lat="41.654939440" lon="2.506534856">
        <ele>305.36</ele>
        <time>2013-12-06T10:34:46Z</time>
      </trkpt>
      <trkpt lat="41.654869870" lon="2.506494790">
        <ele>305.36</ele>
        <time>2013-12-06T10:34:49Z</time>
      </trkpt>
      <trkpt lat="41.654765851" lon="2.506584644">
        <ele>305.36</ele>
        <time>2013-12-06T10:34:53Z</time>
      </trkpt>
      <trkpt lat="41.654546413" lon="2.507233823">
        <ele>303.91</ele>
        <time>2013-12-06T10:35:04Z</time>
      </trkpt>
      <trkpt lat="41.654509951" lon="2.507346140">
        <ele>303.43</ele>
        <time>2013-12-06T10:35:06Z</time>
      </trkpt>
      <trkpt lat="41.654577174" lon="2.507461392">
        <ele>302.47</ele>
        <time>2013-12-06T10:35:11Z</time>
      </trkpt>
      <trkpt lat="41.654669291" lon="2.507463655">
        <ele>304.39</ele>
        <time>2013-12-06T10:35:15Z</time>
      </trkpt>
      <trkpt lat="41.654808012" lon="2.507508833">
        <ele>306.80</ele>
        <time>2013-12-06T10:35:22Z</time>
      </trkpt>
      <trkpt lat="41.654971291" lon="2.507459045">
        <ele>307.28</ele>
        <time>2013-12-06T10:35:29Z</time>
      </trkpt>
      <trkpt lat="41.655141695" lon="2.507355863">
        <ele>306.32</ele>
        <time>2013-12-06T10:35:33Z</time>
      </trkpt>
      <trkpt lat="41.655231130" lon="2.507299202">
        <ele>305.36</ele>
        <time>2013-12-06T10:35:35Z</time>
      </trkpt>
      <trkpt lat="41.655427602" lon="2.507324096">
        <ele>304.39</ele>
        <time>2013-12-06T10:35:40Z</time>
      </trkpt>
      <trkpt lat="41.655484012" lon="2.507423086">
        <ele>303.91</ele>
        <time>2013-12-06T10:35:42Z</time>
      </trkpt>
      <trkpt lat="41.655576213" lon="2.507712932">
        <ele>302.95</ele>
        <time>2013-12-06T10:35:47Z</time>
      </trkpt>
      <trkpt lat="41.655738068" lon="2.507937484">
        <ele>301.99</ele>
        <time>2013-12-06T10:35:52Z</time>
      </trkpt>
      <trkpt lat="41.655960691" lon="2.507935221">
        <ele>300.07</ele>
        <time>2013-12-06T10:35:57Z</time>
      </trkpt>
      <trkpt lat="41.656061525" lon="2.507787615">
        <ele>299.59</ele>
        <time>2013-12-06T10:36:01Z</time>
      </trkpt>
      <trkpt lat="41.656084408" lon="2.507701282">
        <ele>298.63</ele>
        <time>2013-12-06T10:36:03Z</time>
      </trkpt>
      <trkpt lat="41.656263445" lon="2.507537499">
        <ele>297.67</ele>
        <time>2013-12-06T10:36:08Z</time>
      </trkpt>
      <trkpt lat="41.656396215" lon="2.507567004">
        <ele>297.18</ele>
        <time>2013-12-06T10:36:11Z</time>
      </trkpt>
      <trkpt lat="41.656636189" lon="2.507860705">
        <ele>295.26</ele>
        <time>2013-12-06T10:36:17Z</time>
      </trkpt>
      <trkpt lat="41.656666783" lon="2.507999761">
        <ele>294.30</ele>
        <time>2013-12-06T10:36:19Z</time>
      </trkpt>
      <trkpt lat="41.656682457" lon="2.508165723">
        <ele>293.34</ele>
        <time>2013-12-06T10:36:21Z</time>
      </trkpt>
      <trkpt lat="41.656692850" lon="2.508341910">
        <ele>292.86</ele>
        <time>2013-12-06T10:36:23Z</time>
      </trkpt>
      <trkpt lat="41.656661837" lon="2.508710463">
        <ele>289.97</ele>
        <time>2013-12-06T10:36:27Z</time>
      </trkpt>
      <trkpt lat="41.656715565" lon="2.509101646">
        <ele>285.65</ele>
        <time>2013-12-06T10:36:32Z</time>
      </trkpt>
      <trkpt lat="41.656691509" lon="2.509196781">
        <ele>285.17</ele>
        <time>2013-12-06T10:36:34Z</time>
      </trkpt>
      <trkpt lat="41.656603332" lon="2.509228297">
        <ele>284.21</ele>
        <time>2013-12-06T10:36:36Z</time>
      </trkpt>
      <trkpt lat="41.656361430" lon="2.509212623">
        <ele>281.32</ele>
        <time>2013-12-06T10:36:40Z</time>
      </trkpt>
      <trkpt lat="41.656186919" lon="2.509046829">
        <ele>278.92</ele>
        <time>2013-12-06T10:36:44Z</time>
      </trkpt>
      <trkpt lat="41.656114834" lon="2.508837784">
        <ele>276.52</ele>
        <time>2013-12-06T10:36:48Z</time>
      </trkpt>
      <trkpt lat="41.655977539" lon="2.508838119">
        <ele>274.59</ele>
        <time>2013-12-06T10:36:51Z</time>
      </trkpt>
      <trkpt lat="41.655922889" lon="2.508851279">
        <ele>274.11</ele>
        <time>2013-12-06T10:36:52Z</time>
      </trkpt>
      <trkpt lat="41.655683669" lon="2.508900648">
        <ele>271.71</ele>
        <time>2013-12-06T10:36:56Z</time>
      </trkpt>
      <trkpt lat="41.655495998" lon="2.508960495">
        <ele>268.35</ele>
        <time>2013-12-06T10:37:00Z</time>
      </trkpt>
      <trkpt lat="41.655470517" lon="2.509017911">
        <ele>268.35</ele>
        <time>2013-12-06T10:37:01Z</time>
      </trkpt>
      <trkpt lat="41.655458783" lon="2.509084128">
        <ele>268.35</ele>
        <time>2013-12-06T10:37:02Z</time>
      </trkpt>
      <trkpt lat="41.655433553" lon="2.509301387">
        <ele>267.86</ele>
        <time>2013-12-06T10:37:05Z</time>
      </trkpt>
      <trkpt lat="41.655308076" lon="2.509566339">
        <ele>266.42</ele>
        <time>2013-12-06T10:37:10Z</time>
      </trkpt>
      <trkpt lat="41.655265748" lon="2.509591065">
        <ele>266.42</ele>
        <time>2013-12-06T10:37:11Z</time>
      </trkpt>
      <trkpt lat="41.655065923" lon="2.509598274">
        <ele>265.94</ele>
        <time>2013-12-06T10:37:16Z</time>
      </trkpt>
      <trkpt lat="41.654907756" lon="2.509666167">
        <ele>265.46</ele>
        <time>2013-12-06T10:37:20Z</time>
      </trkpt>
      <trkpt lat="41.654608187" lon="2.509826262">
        <ele>264.50</ele>
        <time>2013-12-06T10:37:27Z</time>
      </trkpt>
      <trkpt lat="41.654563763" lon="2.509810336">
        <ele>264.02</ele>
        <time>2013-12-06T10:37:28Z</time>
      </trkpt>
      <trkpt lat="41.654452200" lon="2.509749483">
        <ele>263.54</ele>
        <time>2013-12-06T10:37:31Z</time>
      </trkpt>
      <trkpt lat="41.654275761" lon="2.509800865">
        <ele>263.06</ele>
        <time>2013-12-06T10:37:36Z</time>
      </trkpt>
      <trkpt lat="41.654253633" lon="2.509892982">
        <ele>262.58</ele>
        <time>2013-12-06T10:37:38Z</time>
      </trkpt>
      <trkpt lat="41.654201916" lon="2.510161119">
        <ele>261.62</ele>
        <time>2013-12-06T10:37:42Z</time>
      </trkpt>
      <trkpt lat="41.654074679" lon="2.510424394">
        <ele>259.69</ele>
        <time>2013-12-06T10:37:46Z</time>
      </trkpt>
      <trkpt lat="41.653792712" lon="2.510797473">
        <ele>255.85</ele>
        <time>2013-12-06T10:37:52Z</time>
      </trkpt>
      <trkpt lat="41.653679472" lon="2.510925548">
        <ele>254.41</ele>
        <time>2013-12-06T10:37:54Z</time>
      </trkpt>
      <trkpt lat="41.653481324" lon="2.511196284">
        <ele>252.00</ele>
        <time>2013-12-06T10:37:58Z</time>
      </trkpt>
      <trkpt lat="41.653193657" lon="2.511388565">
        <ele>248.16</ele>
        <time>2013-12-06T10:38:03Z</time>
      </trkpt>
      <trkpt lat="41.652996850" lon="2.511392169">
        <ele>246.23</ele>
        <time>2013-12-06T10:38:07Z</time>
      </trkpt>
      <trkpt lat="41.652736341" lon="2.511297537">
        <ele>242.39</ele>
        <time>2013-12-06T10:38:11Z</time>
      </trkpt>
      <trkpt lat="41.652545066" lon="2.511232577">
        <ele>238.54</ele>
        <time>2013-12-06T10:38:14Z</time>
      </trkpt>
      <trkpt lat="41.652336775" lon="2.511221597">
        <ele>236.62</ele>
        <time>2013-12-06T10:38:18Z</time>
      </trkpt>
      <trkpt lat="41.652005439" lon="2.511105592">
        <ele>235.18</ele>
        <time>2013-12-06T10:38:24Z</time>
      </trkpt>
      <trkpt lat="41.651715592" lon="2.511082960">
        <ele>234.22</ele>
        <time>2013-12-06T10:38:29Z</time>
      </trkpt>
      <trkpt lat="41.651544099" lon="2.511022275">
        <ele>233.26</ele>
        <time>2013-12-06T10:38:32Z</time>
      </trkpt>
      <trkpt lat="41.651254169" lon="2.511037614">
        <ele>231.33</ele>
        <time>2013-12-06T10:38:37Z</time>
      </trkpt>
      <trkpt lat="41.651139756" lon="2.511135934">
        <ele>230.85</ele>
        <time>2013-12-06T10:38:39Z</time>
      </trkpt>
      <trkpt lat="41.650941356" lon="2.511245569">
        <ele>229.89</ele>
        <time>2013-12-06T10:38:42Z</time>
      </trkpt>
      <trkpt lat="41.650674057" lon="2.511205671">
        <ele>227.97</ele>
        <time>2013-12-06T10:38:46Z</time>
      </trkpt>
      <trkpt lat="41.650611947" lon="2.511156973">
        <ele>227.49</ele>
        <time>2013-12-06T10:38:47Z</time>
      </trkpt>
      <trkpt lat="41.650431317" lon="2.510982713">
        <ele>227.01</ele>
        <time>2013-12-06T10:38:50Z</time>
      </trkpt>
      <trkpt lat="41.650079361" lon="2.510836952">
        <ele>224.12</ele>
        <time>2013-12-06T10:38:55Z</time>
      </trkpt>
      <trkpt lat="41.649727321" lon="2.510721281">
        <ele>220.28</ele>
        <time>2013-12-06T10:39:01Z</time>
      </trkpt>
      <trkpt lat="41.649682813" lon="2.510703009">
        <ele>220.28</ele>
        <time>2013-12-06T10:39:02Z</time>
      </trkpt>
      <trkpt lat="41.649349968" lon="2.510512907">
        <ele>217.40</ele>
        <time>2013-12-06T10:39:09Z</time>
      </trkpt>
      <trkpt lat="41.649293222" lon="2.510487426">
        <ele>217.40</ele>
        <time>2013-12-06T10:39:10Z</time>
      </trkpt>
      <trkpt lat="41.649061630" lon="2.510502430">
        <ele>215.95</ele>
        <time>2013-12-06T10:39:15Z</time>
      </trkpt>
      <trkpt lat="41.649003209" lon="2.510576191">
        <ele>215.47</ele>
        <time>2013-12-06T10:39:17Z</time>
      </trkpt>
      <trkpt lat="41.648869936" lon="2.510744834">
        <ele>214.99</ele>
        <time>2013-12-06T10:39:21Z</time>
      </trkpt>
      <trkpt lat="41.648686708" lon="2.510801161">
        <ele>215.95</ele>
        <time>2013-12-06T10:39:26Z</time>
      </trkpt>
      <trkpt lat="41.648505072" lon="2.510729747">
        <ele>217.40</ele>
        <time>2013-12-06T10:39:33Z</time>
      </trkpt>
      <trkpt lat="41.648354785" lon="2.510598570">
        <ele>217.40</ele>
        <time>2013-12-06T10:39:39Z</time>
      </trkpt>
      <trkpt lat="41.648217908" lon="2.510498909">
        <ele>217.40</ele>
        <time>2013-12-06T10:39:45Z</time>
      </trkpt>
      <trkpt lat="41.648117828" lon="2.510434955">
        <ele>217.40</ele>
        <time>2013-12-06T10:39:50Z</time>
      </trkpt>
      <trkpt lat="41.647963936" lon="2.510301264">
        <ele>217.40</ele>
        <time>2013-12-06T10:39:56Z</time>
      </trkpt>
      <trkpt lat="41.647899982" lon="2.510253320">
        <ele>215.95</ele>
        <time>2013-12-06T10:39:58Z</time>
      </trkpt>
      <trkpt lat="41.647731087" lon="2.510098841">
        <ele>214.99</ele>
        <time>2013-12-06T10:40:04Z</time>
      </trkpt>
      <trkpt lat="41.647673671" lon="2.510041509">
        <ele>214.51</ele>
        <time>2013-12-06T10:40:07Z</time>
      </trkpt>
      <trkpt lat="41.647615082" lon="2.509977974">
        <ele>214.51</ele>
        <time>2013-12-06T10:40:11Z</time>
      </trkpt>
      <trkpt lat="41.647479211" lon="2.509870853">
        <ele>214.03</ele>
        <time>2013-12-06T10:40:18Z</time>
      </trkpt>
      <trkpt lat="41.647451970" lon="2.509846965">
        <ele>214.03</ele>
        <time>2013-12-06T10:40:19Z</time>
      </trkpt>
      <trkpt lat="41.647426153" lon="2.509683937">
        <ele>213.55</ele>
        <time>2013-12-06T10:40:23Z</time>
      </trkpt>
      <trkpt lat="41.647610472" lon="2.509280348">
        <ele>212.59</ele>
        <time>2013-12-06T10:40:32Z</time>
      </trkpt>
      <trkpt lat="41.647685406" lon="2.509128384">
        <ele>212.11</ele>
        <time>2013-12-06T10:40:35Z</time>
      </trkpt>
      <trkpt lat="41.647753718" lon="2.508969044">
        <ele>211.63</ele>
        <time>2013-12-06T10:40:38Z</time>
      </trkpt>
      <trkpt lat="41.647921859" lon="2.508520529">
        <ele>210.19</ele>
        <time>2013-12-06T10:40:46Z</time>
      </trkpt>
      <trkpt lat="41.647947843" lon="2.508463867">
        <ele>210.19</ele>
        <time>2013-12-06T10:40:47Z</time>
      </trkpt>
      <trkpt lat="41.648066112" lon="2.508090621">
        <ele>209.70</ele>
        <time>2013-12-06T10:40:53Z</time>
      </trkpt>
      <trkpt lat="41.648185219" lon="2.507740257">
        <ele>209.22</ele>
        <time>2013-12-06T10:40:59Z</time>
      </trkpt>
      <trkpt lat="41.648344978" lon="2.507569518">
        <ele>208.26</ele>
        <time>2013-12-06T10:41:04Z</time>
      </trkpt>
      <trkpt lat="41.648358892" lon="2.507522077">
        <ele>208.26</ele>
        <time>2013-12-06T10:41:05Z</time>
      </trkpt>
      <trkpt lat="41.648437179" lon="2.507114381">
        <ele>208.26</ele>
        <time>2013-12-06T10:41:13Z</time>
      </trkpt>
      <trkpt lat="41.648566260" lon="2.506814895">
        <ele>207.78</ele>
        <time>2013-12-06T10:41:20Z</time>
      </trkpt>
      <trkpt lat="41.648587299" lon="2.506779524">
        <ele>207.78</ele>
        <time>2013-12-06T10:41:21Z</time>
      </trkpt>
      <trkpt lat="41.648603392" lon="2.506607359">
        <ele>207.78</ele>
        <time>2013-12-06T10:41:25Z</time>
      </trkpt>
      <trkpt lat="41.648740268" lon="2.506473920">
        <ele>206.82</ele>
        <time>2013-12-06T10:41:33Z</time>
      </trkpt>
      <trkpt lat="41.648767174" lon="2.506459754">
        <ele>206.82</ele>
        <time>2013-12-06T10:41:34Z</time>
      </trkpt>
      <trkpt lat="41.648911678" lon="2.506279962">
        <ele>206.34</ele>
        <time>2013-12-06T10:41:40Z</time>
      </trkpt>
      <trkpt lat="41.649025002" lon="2.505978633">
        <ele>205.86</ele>
        <time>2013-12-06T10:41:47Z</time>
      </trkpt>
      <trkpt lat="41.649133380" lon="2.505780149">
        <ele>205.38</ele>
        <time>2013-12-06T10:41:52Z</time>
      </trkpt>
      <trkpt lat="41.649247038" lon="2.505537577">
        <ele>205.38</ele>
        <time>2013-12-06T10:41:58Z</time>
      </trkpt>
      <trkpt lat="41.649281488" lon="2.505266758">
        <ele>205.38</ele>
        <time>2013-12-06T10:42:03Z</time>
      </trkpt>
      <trkpt lat="41.649312836" lon="2.505028125">
        <ele>205.38</ele>
        <time>2013-12-06T10:42:07Z</time>
      </trkpt>
      <trkpt lat="41.649352315" lon="2.504689412">
        <ele>204.42</ele>
        <time>2013-12-06T10:42:13Z</time>
      </trkpt>
      <trkpt lat="41.649310824" lon="2.504387329">
        <ele>203.94</ele>
        <time>2013-12-06T10:42:18Z</time>
      </trkpt>
      <trkpt lat="41.649132625" lon="2.504002599">
        <ele>203.94</ele>
        <time>2013-12-06T10:42:26Z</time>
      </trkpt>
      <trkpt lat="41.649008322" lon="2.503843008">
        <ele>203.46</ele>
        <time>2013-12-06T10:42:30Z</time>
      </trkpt>
      <trkpt lat="41.648742783" lon="2.503483843">
        <ele>202.98</ele>
        <time>2013-12-06T10:42:38Z</time>
      </trkpt>
      <trkpt lat="41.648553184" lon="2.503216712">
        <ele>202.01</ele>
        <time>2013-12-06T10:42:44Z</time>
      </trkpt>
      <trkpt lat="41.648331064" lon="2.502961483">
        <ele>201.53</ele>
        <time>2013-12-06T10:42:51Z</time>
      </trkpt>
      <trkpt lat="41.648145572" lon="2.502774650">
        <ele>201.53</ele>
        <time>2013-12-06T10:42:57Z</time>
      </trkpt>
      <trkpt lat="41.647863186" lon="2.502513554">
        <ele>201.05</ele>
        <time>2013-12-06T10:43:05Z</time>
      </trkpt>
      <trkpt lat="41.647696805" lon="2.502230246">
        <ele>201.05</ele>
        <time>2013-12-06T10:43:11Z</time>
      </trkpt>
      <trkpt lat="41.647577698" lon="2.501913410">
        <ele>200.57</ele>
        <time>2013-12-06T10:43:17Z</time>
      </trkpt>
      <trkpt lat="41.647515756" lon="2.501453830">
        <ele>200.09</ele>
        <time>2013-12-06T10:43:26Z</time>
      </trkpt>
      <trkpt lat="41.647444258" lon="2.501082679">
        <ele>199.13</ele>
        <time>2013-12-06T10:43:33Z</time>
      </trkpt>
      <trkpt lat="41.647336132" lon="2.500674732">
        <ele>199.13</ele>
        <time>2013-12-06T10:43:41Z</time>
      </trkpt>
      <trkpt lat="41.647257426" lon="2.500409277">
        <ele>199.13</ele>
        <time>2013-12-06T10:43:47Z</time>
      </trkpt>
      <trkpt lat="41.647239069" lon="2.500170309">
        <ele>198.65</ele>
        <time>2013-12-06T10:43:53Z</time>
      </trkpt>
      <trkpt lat="41.647227083" lon="2.499900328">
        <ele>198.65</ele>
        <time>2013-12-06T10:43:59Z</time>
      </trkpt>
      <trkpt lat="41.647237309" lon="2.499648871">
        <ele>198.65</ele>
        <time>2013-12-06T10:44:05Z</time>
      </trkpt>
      <trkpt lat="41.647312579" lon="2.499395738">
        <ele>198.65</ele>
        <time>2013-12-06T10:44:11Z</time>
      </trkpt>
      <trkpt lat="41.647427327" lon="2.499176048">
        <ele>198.65</ele>
        <time>2013-12-06T10:44:16Z</time>
      </trkpt>
      <trkpt lat="41.647552385" lon="2.499023413">
        <ele>198.65</ele>
        <time>2013-12-06T10:44:19Z</time>
      </trkpt>
      <trkpt lat="41.647667468" lon="2.498901960">
        <ele>198.17</ele>
        <time>2013-12-06T10:44:22Z</time>
      </trkpt>
      <trkpt lat="41.647783893" lon="2.498727532">
        <ele>198.17</ele>
        <time>2013-12-06T10:44:26Z</time>
      </trkpt>
      <trkpt lat="41.648009199" lon="2.498413798">
        <ele>197.69</ele>
        <time>2013-12-06T10:44:34Z</time>
      </trkpt>
      <trkpt lat="41.648166862" lon="2.498229060">
        <ele>197.69</ele>
        <time>2013-12-06T10:44:40Z</time>
      </trkpt>
      <trkpt lat="41.648339362" lon="2.498171896">
        <ele>196.73</ele>
        <time>2013-12-06T10:44:45Z</time>
      </trkpt>
      <trkpt lat="41.648443214" lon="2.498167034">
        <ele>196.25</ele>
        <time>2013-12-06T10:44:48Z</time>
      </trkpt>
      <trkpt lat="41.648625017" lon="2.497875763">
        <ele>195.77</ele>
        <time>2013-12-06T10:44:56Z</time>
      </trkpt>
      <trkpt lat="41.648662149" lon="2.497795129">
        <ele>197.21</ele>
        <time>2013-12-06T10:44:58Z</time>
      </trkpt>
      <trkpt lat="41.648801791" lon="2.497514336">
        <ele>199.13</ele>
        <time>2013-12-06T10:45:06Z</time>
      </trkpt>
      <trkpt lat="41.648987283" lon="2.497139581">
        <ele>200.09</ele>
        <time>2013-12-06T10:45:15Z</time>
      </trkpt>
      <trkpt lat="41.649053165" lon="2.496817632">
        <ele>201.53</ele>
        <time>2013-12-06T10:45:23Z</time>
      </trkpt>
      <trkpt lat="41.649070264" lon="2.496577993">
        <ele>203.46</ele>
        <time>2013-12-06T10:45:30Z</time>
      </trkpt>
      <trkpt lat="41.649041514" lon="2.496283453">
        <ele>204.90</ele>
        <time>2013-12-06T10:45:37Z</time>
      </trkpt>
      <trkpt lat="41.649138325" lon="2.496102572">
        <ele>204.90</ele>
        <time>2013-12-06T10:45:42Z</time>
      </trkpt>
      <trkpt lat="41.649276962" lon="2.495896796">
        <ele>202.49</ele>
        <time>2013-12-06T10:45:46Z</time>
      </trkpt>
      <trkpt lat="41.649399170" lon="2.495659756">
        <ele>201.53</ele>
        <time>2013-12-06T10:45:49Z</time>
      </trkpt>
      <trkpt lat="41.649583152" lon="2.495156841">
        <ele>200.09</ele>
        <time>2013-12-06T10:45:55Z</time>
      </trkpt>
      <trkpt lat="41.649637300" lon="2.494803125">
        <ele>198.65</ele>
        <time>2013-12-06T10:46:00Z</time>
      </trkpt>
      <trkpt lat="41.649653393" lon="2.494732550">
        <ele>198.65</ele>
        <time>2013-12-06T10:46:01Z</time>
      </trkpt>
      <trkpt lat="41.649720783" lon="2.494626518">
        <ele>197.69</ele>
        <time>2013-12-06T10:46:03Z</time>
      </trkpt>
      <trkpt lat="41.649982131" lon="2.494506322">
        <ele>197.21</ele>
        <time>2013-12-06T10:46:09Z</time>
      </trkpt>
      <trkpt lat="41.650245490" lon="2.494317394">
        <ele>199.13</ele>
        <time>2013-12-06T10:46:17Z</time>
      </trkpt>
      <trkpt lat="41.650375745" lon="2.494220164">
        <ele>200.57</ele>
        <time>2013-12-06T10:46:23Z</time>
      </trkpt>
      <trkpt lat="41.650519243" lon="2.494059315">
        <ele>201.05</ele>
        <time>2013-12-06T10:46:30Z</time>
      </trkpt>
      <trkpt lat="41.650713368" lon="2.493962420">
        <ele>199.13</ele>
        <time>2013-12-06T10:46:35Z</time>
      </trkpt>
      <trkpt lat="41.650933142" lon="2.493990835">
        <ele>197.69</ele>
        <time>2013-12-06T10:46:39Z</time>
      </trkpt>
      <trkpt lat="41.651208152" lon="2.493878434">
        <ele>194.80</ele>
        <time>2013-12-06T10:46:43Z</time>
      </trkpt>
      <trkpt lat="41.651265233" lon="2.493812300">
        <ele>194.32</ele>
        <time>2013-12-06T10:46:44Z</time>
      </trkpt>
      <trkpt lat="41.651375455" lon="2.493681124">
        <ele>193.36</ele>
        <time>2013-12-06T10:46:46Z</time>
      </trkpt>
      <trkpt lat="41.651684076" lon="2.493286420">
        <ele>192.88</ele>
        <time>2013-12-06T10:46:53Z</time>
      </trkpt>
      <trkpt lat="41.651834196" lon="2.493173851">
        <ele>191.92</ele>
        <time>2013-12-06T10:46:57Z</time>
      </trkpt>
      <trkpt lat="41.651905275" lon="2.493145688">
        <ele>191.44</ele>
        <time>2013-12-06T10:47:03Z</time>
      </trkpt>
      <trkpt lat="41.651922039" lon="2.493122721">
        <ele>191.44</ele>
        <time>2013-12-06T10:47:09Z</time>
      </trkpt>
      <trkpt lat="41.652033853" lon="2.493097156">
        <ele>192.40</ele>
        <time>2013-12-06T10:47:16Z</time>
      </trkpt>
      <trkpt lat="41.652190092" lon="2.493115764">
        <ele>195.28</ele>
        <time>2013-12-06T10:47:23Z</time>
      </trkpt>
      <trkpt lat="41.652223368" lon="2.493035298">
        <ele>197.21</ele>
        <time>2013-12-06T10:47:29Z</time>
      </trkpt>
      <trkpt lat="41.652211633" lon="2.492995735">
        <ele>197.69</ele>
        <time>2013-12-06T10:47:32Z</time>
      </trkpt>
      <trkpt lat="41.652186404" lon="2.492881490">
        <ele>199.13</ele>
        <time>2013-12-06T10:47:38Z</time>
      </trkpt>
      <trkpt lat="41.652176932" lon="2.492814183">
        <ele>199.61</ele>
        <time>2013-12-06T10:47:41Z</time>
      </trkpt>
      <trkpt lat="41.652167964" lon="2.492625255">
        <ele>202.01</ele>
        <time>2013-12-06T10:47:50Z</time>
      </trkpt>
      <trkpt lat="41.652143824" lon="2.492451247">
        <ele>204.42</ele>
        <time>2013-12-06T10:47:59Z</time>
      </trkpt>
      <trkpt lat="41.652102753" lon="2.492365081">
        <ele>205.86</ele>
        <time>2013-12-06T10:48:04Z</time>
      </trkpt>
      <trkpt lat="41.652052126" lon="2.492265672">
        <ele>208.26</ele>
        <time>2013-12-06T10:48:11Z</time>
      </trkpt>
      <trkpt lat="41.652042990" lon="2.492191576">
        <ele>209.70</ele>
        <time>2013-12-06T10:48:15Z</time>
      </trkpt>
      <trkpt lat="41.652099316" lon="2.492094597">
        <ele>210.19</ele>
        <time>2013-12-06T10:48:21Z</time>
      </trkpt>
      <trkpt lat="41.652209119" lon="2.492166430">
        <ele>210.67</ele>
        <time>2013-12-06T10:48:28Z</time>
      </trkpt>
      <trkpt lat="41.652219261" lon="2.492182775">
        <ele>211.15</ele>
        <time>2013-12-06T10:48:29Z</time>
      </trkpt>
      <trkpt lat="41.652295620" lon="2.492327782">
        <ele>212.59</ele>
        <time>2013-12-06T10:48:37Z</time>
      </trkpt>
      <trkpt lat="41.652308193" lon="2.492345467">
        <ele>213.55</ele>
        <time>2013-12-06T10:48:38Z</time>
      </trkpt>
      <trkpt lat="41.652411039" lon="2.492464407">
        <ele>214.99</ele>
        <time>2013-12-06T10:48:47Z</time>
      </trkpt>
      <trkpt lat="41.652467198" lon="2.492537748">
        <ele>215.47</ele>
        <time>2013-12-06T10:48:53Z</time>
      </trkpt>
      <trkpt lat="41.652559985" lon="2.492656771">
        <ele>216.43</ele>
        <time>2013-12-06T10:49:01Z</time>
      </trkpt>
      <trkpt lat="41.652692839" lon="2.492757186">
        <ele>218.36</ele>
        <time>2013-12-06T10:49:09Z</time>
      </trkpt>
      <trkpt lat="41.652845473" lon="2.492699770">
        <ele>218.84</ele>
        <time>2013-12-06T10:49:18Z</time>
      </trkpt>
      <trkpt lat="41.653012105" lon="2.492626429">
        <ele>219.32</ele>
        <time>2013-12-06T10:49:27Z</time>
      </trkpt>
      <trkpt lat="41.653151748" lon="2.492515033">
        <ele>221.24</ele>
        <time>2013-12-06T10:49:36Z</time>
      </trkpt>
      <trkpt lat="41.653248056" lon="2.492406320">
        <ele>222.20</ele>
        <time>2013-12-06T10:49:43Z</time>
      </trkpt>
      <trkpt lat="41.653357104" lon="2.492245387">
        <ele>223.64</ele>
        <time>2013-12-06T10:49:51Z</time>
      </trkpt>
      <trkpt lat="41.653489706" lon="2.492142793">
        <ele>224.61</ele>
        <time>2013-12-06T10:49:58Z</time>
      </trkpt>
      <trkpt lat="41.653627002" lon="2.491998959">
        <ele>225.57</ele>
        <time>2013-12-06T10:50:06Z</time>
      </trkpt>
      <trkpt lat="41.653717275" lon="2.491755633">
        <ele>226.53</ele>
        <time>2013-12-06T10:50:15Z</time>
      </trkpt>
      <trkpt lat="41.653727836" lon="2.491536949">
        <ele>227.97</ele>
        <time>2013-12-06T10:50:23Z</time>
      </trkpt>
      <trkpt lat="41.653710737" lon="2.491297310">
        <ele>228.45</ele>
        <time>2013-12-06T10:50:30Z</time>
      </trkpt>
      <trkpt lat="41.653793969" lon="2.491171498">
        <ele>228.45</ele>
        <time>2013-12-06T10:50:35Z</time>
      </trkpt>
      <trkpt lat="41.653999074" lon="2.491028419">
        <ele>229.89</ele>
        <time>2013-12-06T10:50:44Z</time>
      </trkpt>
      <trkpt lat="41.654174927" lon="2.490870336">
        <ele>230.37</ele>
        <time>2013-12-06T10:50:52Z</time>
      </trkpt>
      <trkpt lat="41.654349019" lon="2.490664728">
        <ele>231.33</ele>
        <time>2013-12-06T10:51:01Z</time>
      </trkpt>
      <trkpt lat="41.654433508" lon="2.490395250">
        <ele>231.81</ele>
        <time>2013-12-06T10:51:09Z</time>
      </trkpt>
      <trkpt lat="41.654475669" lon="2.490124598">
        <ele>231.81</ele>
        <time>2013-12-06T10:51:17Z</time>
      </trkpt>
      <trkpt lat="41.654500480" lon="2.489913542">
        <ele>231.81</ele>
        <time>2013-12-06T10:51:23Z</time>
      </trkpt>
      <trkpt lat="41.654540042" lon="2.489769122">
        <ele>231.81</ele>
        <time>2013-12-06T10:51:29Z</time>
      </trkpt>
      <trkpt lat="41.654564601" lon="2.489707682">
        <ele>231.81</ele>
        <time>2013-12-06T10:51:34Z</time>
      </trkpt>
      <trkpt lat="41.654570720" lon="2.489681531">
        <ele>231.81</ele>
        <time>2013-12-06T10:51:40Z</time>
      </trkpt>
      <trkpt lat="41.654576755" lon="2.489664683">
        <ele>230.85</ele>
        <time>2013-12-06T10:51:48Z</time>
      </trkpt>
      <trkpt lat="41.654589496" lon="2.489631575">
        <ele>230.85</ele>
        <time>2013-12-06T10:51:56Z</time>
      </trkpt>
      <trkpt lat="41.654604751" lon="2.489587318">
        <ele>230.37</ele>
        <time>2013-12-06T10:52:02Z</time>
      </trkpt>
      <trkpt lat="41.654650264" lon="2.489460752">
        <ele>229.89</ele>
        <time>2013-12-06T10:52:08Z</time>
      </trkpt>
      <trkpt lat="41.654701310" lon="2.489278948">
        <ele>227.97</ele>
        <time>2013-12-06T10:52:14Z</time>
      </trkpt>
      <trkpt lat="41.654709273" lon="2.489222286">
        <ele>227.49</ele>
        <time>2013-12-06T10:52:16Z</time>
      </trkpt>
      <trkpt lat="41.654714134" lon="2.489175851">
        <ele>227.01</ele>
        <time>2013-12-06T10:52:24Z</time>
      </trkpt>
      <trkpt lat="41.654719750" lon="2.489160428">
        <ele>227.01</ele>
        <time>2013-12-06T10:52:40Z</time>
      </trkpt>
      <trkpt lat="41.654721930" lon="2.489135282">
        <ele>227.01</ele>
        <time>2013-12-06T10:52:50Z</time>
      </trkpt>
      <trkpt lat="41.654723522" lon="2.489125392">
        <ele>227.01</ele>
        <time>2013-12-06T10:53:07Z</time>
      </trkpt>
      <trkpt lat="41.654737771" lon="2.489041908">
        <ele>227.01</ele>
        <time>2013-12-06T10:53:13Z</time>
      </trkpt>
      <trkpt lat="41.654763169" lon="2.488862703">
        <ele>225.57</ele>
        <time>2013-12-06T10:53:19Z</time>
      </trkpt>
      <trkpt lat="41.654815388" lon="2.488677882">
        <ele>224.61</ele>
        <time>2013-12-06T10:53:26Z</time>
      </trkpt>
      <trkpt lat="41.654936674" lon="2.488550309">
        <ele>223.16</ele>
        <time>2013-12-06T10:53:32Z</time>
      </trkpt>
      <trkpt lat="41.655092913" lon="2.488381665">
        <ele>222.20</ele>
        <time>2013-12-06T10:53:37Z</time>
      </trkpt>
      <trkpt lat="41.655171200" lon="2.488264403">
        <ele>220.76</ele>
        <time>2013-12-06T10:53:42Z</time>
      </trkpt>
      <trkpt lat="41.655239093" lon="2.488081090">
        <ele>219.80</ele>
        <time>2013-12-06T10:53:47Z</time>
      </trkpt>
      <trkpt lat="41.655217049" lon="2.487909010">
        <ele>219.32</ele>
        <time>2013-12-06T10:53:51Z</time>
      </trkpt>
      <trkpt lat="41.655048489" lon="2.487798704">
        <ele>219.32</ele>
        <time>2013-12-06T10:53:58Z</time>
      </trkpt>
      <trkpt lat="41.654943380" lon="2.487684794">
        <ele>219.32</ele>
        <time>2013-12-06T10:54:04Z</time>
      </trkpt>
      <trkpt lat="41.654865176" lon="2.487531405">
        <ele>220.28</ele>
        <time>2013-12-06T10:54:11Z</time>
      </trkpt>
      <trkpt lat="41.654767946" lon="2.487372736">
        <ele>222.20</ele>
        <time>2013-12-06T10:54:19Z</time>
      </trkpt>
      <trkpt lat="41.654721762" lon="2.487326803">
        <ele>222.20</ele>
        <time>2013-12-06T10:54:21Z</time>
      </trkpt>
      <trkpt lat="41.654617826" lon="2.487127984">
        <ele>223.16</ele>
        <time>2013-12-06T10:54:29Z</time>
      </trkpt>
      <trkpt lat="41.654501486" lon="2.486944923">
        <ele>224.12</ele>
        <time>2013-12-06T10:54:37Z</time>
      </trkpt>
      <trkpt lat="41.654477513" lon="2.486900751">
        <ele>224.12</ele>
        <time>2013-12-06T10:54:39Z</time>
      </trkpt>
      <trkpt lat="41.654469551" lon="2.486745602">
        <ele>224.61</ele>
        <time>2013-12-06T10:54:43Z</time>
      </trkpt>
      <trkpt lat="41.654542725" lon="2.486493809">
        <ele>226.53</ele>
        <time>2013-12-06T10:54:51Z</time>
      </trkpt>
      <trkpt lat="41.654628304" lon="2.486306725">
        <ele>228.93</ele>
        <time>2013-12-06T10:54:59Z</time>
      </trkpt>
      <trkpt lat="41.654586143" lon="2.486159874">
        <ele>230.37</ele>
        <time>2013-12-06T10:55:06Z</time>
      </trkpt>
      <trkpt lat="41.654570888" lon="2.486142105">
        <ele>230.37</ele>
        <time>2013-12-06T10:55:07Z</time>
      </trkpt>
      <trkpt lat="41.654463013" lon="2.486016544">
        <ele>232.78</ele>
        <time>2013-12-06T10:55:15Z</time>
      </trkpt>
      <trkpt lat="41.654370476" lon="2.485874051">
        <ele>234.22</ele>
        <time>2013-12-06T10:55:23Z</time>
      </trkpt>
      <trkpt lat="41.654368549" lon="2.485758130">
        <ele>236.14</ele>
        <time>2013-12-06T10:55:28Z</time>
      </trkpt>
      <trkpt lat="41.654411045" lon="2.485585295">
        <ele>237.10</ele>
        <time>2013-12-06T10:55:35Z</time>
      </trkpt>
      <trkpt lat="41.654482207" lon="2.485421932">
        <ele>238.54</ele>
        <time>2013-12-06T10:55:42Z</time>
      </trkpt>
      <trkpt lat="41.654551526" lon="2.485228729">
        <ele>239.99</ele>
        <time>2013-12-06T10:55:50Z</time>
      </trkpt>
      <trkpt lat="41.654536941" lon="2.485124961">
        <ele>240.95</ele>
        <time>2013-12-06T10:55:55Z</time>
      </trkpt>
      <trkpt lat="41.654604248" lon="2.485086739">
        <ele>239.02</ele>
        <time>2013-12-06T10:56:00Z</time>
      </trkpt>
      <trkpt lat="41.654624867" lon="2.485100318">
        <ele>238.54</ele>
        <time>2013-12-06T10:56:01Z</time>
      </trkpt>
      <trkpt lat="41.654724528" lon="2.485129738">
        <ele>235.66</ele>
        <time>2013-12-06T10:56:05Z</time>
      </trkpt>
      <trkpt lat="41.654799546" lon="2.485087074">
        <ele>233.26</ele>
        <time>2013-12-06T10:56:08Z</time>
      </trkpt>
      <trkpt lat="41.654872050" lon="2.484998813">
        <ele>230.85</ele>
        <time>2013-12-06T10:56:11Z</time>
      </trkpt>
      <trkpt lat="41.655013369" lon="2.485015158">
        <ele>226.53</ele>
        <time>2013-12-06T10:56:15Z</time>
      </trkpt>
      <trkpt lat="41.655013369" lon="2.485208612">
        <ele>224.61</ele>
        <time>2013-12-06T10:56:19Z</time>
      </trkpt>
      <trkpt lat="41.654874061" lon="2.485497201">
        <ele>221.72</ele>
        <time>2013-12-06T10:56:23Z</time>
      </trkpt>
      <trkpt lat="41.654761828" lon="2.485660732">
        <ele>218.84</ele>
        <time>2013-12-06T10:56:26Z</time>
      </trkpt>
      <trkpt lat="41.654784542" lon="2.485903556">
        <ele>216.43</ele>
        <time>2013-12-06T10:56:31Z</time>
      </trkpt>
      <trkpt lat="41.654927119" lon="2.486051077">
        <ele>215.95</ele>
        <time>2013-12-06T10:56:36Z</time>
      </trkpt>
      <trkpt lat="41.654953773" lon="2.486092232">
        <ele>215.95</ele>
        <time>2013-12-06T10:56:37Z</time>
      </trkpt>
      <trkpt lat="41.655035916" lon="2.486223158">
        <ele>215.47</ele>
        <time>2013-12-06T10:56:40Z</time>
      </trkpt>
      <trkpt lat="41.655118226" lon="2.486501102">
        <ele>212.59</ele>
        <time>2013-12-06T10:56:45Z</time>
      </trkpt>
      <trkpt lat="41.655018649" lon="2.486725737">
        <ele>209.22</ele>
        <time>2013-12-06T10:56:49Z</time>
      </trkpt>
      <trkpt lat="41.654938602" lon="2.486892285">
        <ele>205.86</ele>
        <time>2013-12-06T10:56:53Z</time>
      </trkpt>
      <trkpt lat="41.654947151" lon="2.486949030">
        <ele>204.90</ele>
        <time>2013-12-06T10:56:55Z</time>
      </trkpt>
      <trkpt lat="41.655011524" lon="2.486991191">
        <ele>203.46</ele>
        <time>2013-12-06T10:56:59Z</time>
      </trkpt>
      <trkpt lat="41.655028037" lon="2.486998987">
        <ele>202.98</ele>
        <time>2013-12-06T10:57:00Z</time>
      </trkpt>
      <trkpt lat="41.655096768" lon="2.487035867">
        <ele>202.49</ele>
        <time>2013-12-06T10:57:04Z</time>
      </trkpt>
      <trkpt lat="41.655226604" lon="2.487150950">
        <ele>202.01</ele>
        <time>2013-12-06T10:57:12Z</time>
      </trkpt>
      <trkpt lat="41.655241691" lon="2.487154890">
        <ele>202.01</ele>
        <time>2013-12-06T10:57:13Z</time>
      </trkpt>
      <trkpt lat="41.655280248" lon="2.487159332">
        <ele>202.01</ele>
        <time>2013-12-06T10:57:15Z</time>
      </trkpt>
      <trkpt lat="41.655416203" lon="2.487246672">
        <ele>203.94</ele>
        <time>2013-12-06T10:57:22Z</time>
      </trkpt>
      <trkpt lat="41.655531370" lon="2.487388661">
        <ele>205.38</ele>
        <time>2013-12-06T10:57:29Z</time>
      </trkpt>
      <trkpt lat="41.655540674" lon="2.487415148">
        <ele>205.38</ele>
        <time>2013-12-06T10:57:30Z</time>
      </trkpt>
      <trkpt lat="41.655559282" lon="2.487526460">
        <ele>205.38</ele>
        <time>2013-12-06T10:57:35Z</time>
      </trkpt>
      <trkpt lat="41.655615273" lon="2.487822425">
        <ele>204.90</ele>
        <time>2013-12-06T10:57:43Z</time>
      </trkpt>
      <trkpt lat="41.655709485" lon="2.487993080">
        <ele>204.90</ele>
        <time>2013-12-06T10:57:49Z</time>
      </trkpt>
      <trkpt lat="41.655802692" lon="2.488202376">
        <ele>206.82</ele>
        <time>2013-12-06T10:57:57Z</time>
      </trkpt>
      <trkpt lat="41.655805374" lon="2.488226600">
        <ele>206.82</ele>
        <time>2013-12-06T10:57:58Z</time>
      </trkpt>
      <trkpt lat="41.655741169" lon="2.488431035">
        <ele>207.30</ele>
        <time>2013-12-06T10:58:07Z</time>
      </trkpt>
      <trkpt lat="41.655600521" lon="2.488663297">
        <ele>207.30</ele>
        <time>2013-12-06T10:58:15Z</time>
      </trkpt>
      <trkpt lat="41.655578057" lon="2.488727167">
        <ele>206.34</ele>
        <time>2013-12-06T10:58:19Z</time>
      </trkpt>
      <trkpt lat="41.655572441" lon="2.488751391">
        <ele>206.34</ele>
        <time>2013-12-06T10:58:28Z</time>
      </trkpt>
      <trkpt lat="41.655572944" lon="2.488775196">
        <ele>206.34</ele>
        <time>2013-12-06T10:58:34Z</time>
      </trkpt>
      <trkpt lat="41.655565987" lon="2.488747200">
        <ele>206.34</ele>
        <time>2013-12-06T10:58:51Z</time>
      </trkpt>
      <trkpt lat="41.655561964" lon="2.488749882">
        <ele>206.34</ele>
        <time>2013-12-06T10:59:06Z</time>
      </trkpt>
      <trkpt lat="41.655572525" lon="2.488759773">
        <ele>206.34</ele>
        <time>2013-12-06T10:59:18Z</time>
      </trkpt>
      <trkpt lat="41.655591804" lon="2.488782907">
        <ele>206.82</ele>
        <time>2013-12-06T10:59:37Z</time>
      </trkpt>
      <trkpt lat="41.655566909" lon="2.488760024">
        <ele>206.82</ele>
        <time>2013-12-06T11:00:04Z</time>
      </trkpt>
      <trkpt lat="41.655580488" lon="2.488787433">
        <ele>207.30</ele>
        <time>2013-12-06T11:00:26Z</time>
      </trkpt>
      <trkpt lat="41.655579566" lon="2.488796402">
        <ele>207.30</ele>
        <time>2013-12-06T11:00:48Z</time>
      </trkpt>
      <trkpt lat="41.655593312" lon="2.488788942">
        <ele>207.30</ele>
        <time>2013-12-06T11:01:03Z</time>
      </trkpt>
      <trkpt lat="41.655607310" lon="2.488766059">
        <ele>207.30</ele>
        <time>2013-12-06T11:01:24Z</time>
      </trkpt>
      <trkpt lat="41.655588451" lon="2.488764215">
        <ele>207.78</ele>
        <time>2013-12-06T11:01:50Z</time>
      </trkpt>
      <trkpt lat="41.655563305" lon="2.488766898">
        <ele>207.78</ele>
        <time>2013-12-06T11:02:10Z</time>
      </trkpt>
      <trkpt lat="41.655548218" lon="2.488754828">
        <ele>207.78</ele>
        <time>2013-12-06T11:02:21Z</time>
      </trkpt>
      <trkpt lat="41.655545284" lon="2.488740998">
        <ele>207.78</ele>
        <time>2013-12-06T11:02:34Z</time>
      </trkpt>
      <trkpt lat="41.655534136" lon="2.488734041">
        <ele>207.78</ele>
        <time>2013-12-06T11:02:52Z</time>
      </trkpt>
      <trkpt lat="41.655530532" lon="2.488762958">
        <ele>207.78</ele>
        <time>2013-12-06T11:03:08Z</time>
      </trkpt>
      <trkpt lat="41.655539417" lon="2.488774441">
        <ele>208.26</ele>
        <time>2013-12-06T11:03:28Z</time>
      </trkpt>
      <trkpt lat="41.655536986" lon="2.488754660">
        <ele>208.26</ele>
        <time>2013-12-06T11:03:49Z</time>
      </trkpt>
      <trkpt lat="41.655536902" lon="2.488758432">
        <ele>208.26</ele>
        <time>2013-12-06T11:04:02Z</time>
      </trkpt>
      <trkpt lat="41.655540506" lon="2.488774777">
        <ele>208.26</ele>
        <time>2013-12-06T11:04:13Z</time>
      </trkpt>
      <trkpt lat="41.655543608" lon="2.488780392">
        <ele>208.26</ele>
        <time>2013-12-06T11:04:23Z</time>
      </trkpt>
      <trkpt lat="41.655542099" lon="2.488784248">
        <ele>208.26</ele>
        <time>2013-12-06T11:04:27Z</time>
      </trkpt>
      <trkpt lat="41.655465740" lon="2.488876030">
        <ele>208.74</ele>
        <time>2013-12-06T11:04:36Z</time>
      </trkpt>
      <trkpt lat="41.655334982" lon="2.488987677">
        <ele>208.74</ele>
        <time>2013-12-06T11:04:42Z</time>
      </trkpt>
      <trkpt lat="41.655280835" lon="2.489131343">
        <ele>208.26</ele>
        <time>2013-12-06T11:04:47Z</time>
      </trkpt>
      <trkpt lat="41.655261054" lon="2.489213904">
        <ele>208.26</ele>
        <time>2013-12-06T11:04:51Z</time>
      </trkpt>
      <trkpt lat="41.655241608" lon="2.489301914">
        <ele>209.22</ele>
        <time>2013-12-06T11:04:56Z</time>
      </trkpt>
      <trkpt lat="41.655222665" lon="2.489455387">
        <ele>211.15</ele>
        <time>2013-12-06T11:05:04Z</time>
      </trkpt>
      <trkpt lat="41.655221994" lon="2.489470307">
        <ele>211.15</ele>
        <time>2013-12-06T11:05:05Z</time>
      </trkpt>
      <trkpt lat="41.655238255" lon="2.489586983">
        <ele>211.63</ele>
        <time>2013-12-06T11:05:11Z</time>
      </trkpt>
      <trkpt lat="41.655306735" lon="2.489617661">
        <ele>211.63</ele>
        <time>2013-12-06T11:05:16Z</time>
      </trkpt>
      <trkpt lat="41.655479067" lon="2.489602490">
        <ele>210.19</ele>
        <time>2013-12-06T11:05:24Z</time>
      </trkpt>
      <trkpt lat="41.655714179" lon="2.489747496">
        <ele>208.74</ele>
        <time>2013-12-06T11:05:32Z</time>
      </trkpt>
      <trkpt lat="41.655882069" lon="2.489856377">
        <ele>208.74</ele>
        <time>2013-12-06T11:05:39Z</time>
      </trkpt>
      <trkpt lat="41.655968067" lon="2.490036253">
        <ele>209.70</ele>
        <time>2013-12-06T11:05:46Z</time>
      </trkpt>
      <trkpt lat="41.655975779" lon="2.490068188">
        <ele>209.70</ele>
        <time>2013-12-06T11:05:47Z</time>
      </trkpt>
      <trkpt lat="41.656000338" lon="2.490371529">
        <ele>209.70</ele>
        <time>2013-12-06T11:05:56Z</time>
      </trkpt>
      <trkpt lat="41.656023388" lon="2.490674283">
        <ele>209.70</ele>
        <time>2013-12-06T11:06:04Z</time>
      </trkpt>
      <trkpt lat="41.656002601" lon="2.490948120">
        <ele>209.70</ele>
        <time>2013-12-06T11:06:11Z</time>
      </trkpt>
      <trkpt lat="41.656004361" lon="2.491127325">
        <ele>207.78</ele>
        <time>2013-12-06T11:06:15Z</time>
      </trkpt>
      <trkpt lat="41.656022717" lon="2.491369395">
        <ele>204.90</ele>
        <time>2013-12-06T11:06:19Z</time>
      </trkpt>
      <trkpt lat="41.656029255" lon="2.491524963">
        <ele>202.98</ele>
        <time>2013-12-06T11:06:21Z</time>
      </trkpt>
      <trkpt lat="41.655951136" lon="2.491780862">
        <ele>200.57</ele>
        <time>2013-12-06T11:06:26Z</time>
      </trkpt>
      <trkpt lat="41.655872011" lon="2.491872225">
        <ele>199.61</ele>
        <time>2013-12-06T11:06:29Z</time>
      </trkpt>
      <trkpt lat="41.655692554" lon="2.492087472">
        <ele>196.25</ele>
        <time>2013-12-06T11:06:34Z</time>
      </trkpt>
      <trkpt lat="41.655602113" lon="2.492187049">
        <ele>195.28</ele>
        <time>2013-12-06T11:06:36Z</time>
      </trkpt>
      <trkpt lat="41.655439421" lon="2.492336499">
        <ele>193.36</ele>
        <time>2013-12-06T11:06:39Z</time>
      </trkpt>
      <trkpt lat="41.655126859" lon="2.492539341">
        <ele>191.44</ele>
        <time>2013-12-06T11:06:44Z</time>
      </trkpt>
      <trkpt lat="41.654935165" lon="2.492813345">
        <ele>190.00</ele>
        <time>2013-12-06T11:06:49Z</time>
      </trkpt>
      <trkpt lat="41.654841288" lon="2.492991293">
        <ele>188.56</ele>
        <time>2013-12-06T11:06:53Z</time>
      </trkpt>
      <trkpt lat="41.654713129" lon="2.492939912">
        <ele>188.56</ele>
        <time>2013-12-06T11:06:58Z</time>
      </trkpt>
      <trkpt lat="41.654665436" lon="2.492913677">
        <ele>188.56</ele>
        <time>2013-12-06T11:07:00Z</time>
      </trkpt>
      <trkpt lat="41.654456726" lon="2.492894147">
        <ele>188.56</ele>
        <time>2013-12-06T11:07:07Z</time>
      </trkpt>
      <trkpt lat="41.654224883" lon="2.492879981">
        <ele>190.48</ele>
        <time>2013-12-06T11:07:15Z</time>
      </trkpt>
      <trkpt lat="41.654003181" lon="2.492895572">
        <ele>190.48</ele>
        <time>2013-12-06T11:07:22Z</time>
      </trkpt>
      <trkpt lat="41.653731189" lon="2.492962627">
        <ele>190.48</ele>
        <time>2013-12-06T11:07:30Z</time>
      </trkpt>
      <trkpt lat="41.653534717" lon="2.492989784">
        <ele>190.48</ele>
        <time>2013-12-06T11:07:37Z</time>
      </trkpt>
      <trkpt lat="41.653283008" lon="2.493077040">
        <ele>190.48</ele>
        <time>2013-12-06T11:07:45Z</time>
      </trkpt>
      <trkpt lat="41.653132386" lon="2.493138228">
        <ele>190.96</ele>
        <time>2013-12-06T11:07:51Z</time>
      </trkpt>
      <trkpt lat="41.652970280" lon="2.493218778">
        <ele>191.44</ele>
        <time>2013-12-06T11:07:57Z</time>
      </trkpt>
      <trkpt lat="41.652796187" lon="2.493353307">
        <ele>191.44</ele>
        <time>2013-12-06T11:08:02Z</time>
      </trkpt>
      <trkpt lat="41.652601643" lon="2.493452465">
        <ele>191.44</ele>
        <time>2013-12-06T11:08:09Z</time>
      </trkpt>
      <trkpt lat="41.652514472" lon="2.493508456">
        <ele>191.44</ele>
        <time>2013-12-06T11:08:14Z</time>
      </trkpt>
      <trkpt lat="41.652490751" lon="2.493505942">
        <ele>191.44</ele>
        <time>2013-12-06T11:08:15Z</time>
      </trkpt>
      <trkpt lat="41.652257566" lon="2.493473504">
        <ele>191.44</ele>
        <time>2013-12-06T11:08:23Z</time>
      </trkpt>
      <trkpt lat="41.652108955" lon="2.493389014">
        <ele>192.88</ele>
        <time>2013-12-06T11:08:29Z</time>
      </trkpt>
      <trkpt lat="41.651909214" lon="2.493298322">
        <ele>194.80</ele>
        <time>2013-12-06T11:08:37Z</time>
      </trkpt>
      <trkpt lat="41.651859510" lon="2.493270829">
        <ele>194.80</ele>
        <time>2013-12-06T11:08:39Z</time>
      </trkpt>
      <trkpt lat="41.651709222" lon="2.493367892">
        <ele>195.77</ele>
        <time>2013-12-06T11:08:46Z</time>
      </trkpt>
      <trkpt lat="41.651685501" lon="2.493390858">
        <ele>195.28</ele>
        <time>2013-12-06T11:08:47Z</time>
      </trkpt>
      <trkpt lat="41.651428680" lon="2.493646423">
        <ele>195.77</ele>
        <time>2013-12-06T11:08:57Z</time>
      </trkpt>
      <trkpt lat="41.651224413" lon="2.493843146">
        <ele>196.25</ele>
        <time>2013-12-06T11:09:05Z</time>
      </trkpt>
      <trkpt lat="41.651004220" lon="2.493950769">
        <ele>198.17</ele>
        <time>2013-12-06T11:09:13Z</time>
      </trkpt>
      <trkpt lat="41.650869188" lon="2.493924115">
        <ele>200.09</ele>
        <time>2013-12-06T11:09:19Z</time>
      </trkpt>
      <trkpt lat="41.650711357" lon="2.493951272">
        <ele>201.53</ele>
        <time>2013-12-06T11:09:25Z</time>
      </trkpt>
      <trkpt lat="41.650526117" lon="2.494048502">
        <ele>203.46</ele>
        <time>2013-12-06T11:09:34Z</time>
      </trkpt>
      <trkpt lat="41.650415056" lon="2.494157300">
        <ele>204.90</ele>
        <time>2013-12-06T11:09:40Z</time>
      </trkpt>
      <trkpt lat="41.650310953" lon="2.494299876">
        <ele>203.46</ele>
        <time>2013-12-06T11:09:45Z</time>
      </trkpt>
      <trkpt lat="41.650030662" lon="2.494470196">
        <ele>201.05</ele>
        <time>2013-12-06T11:09:52Z</time>
      </trkpt>
      <trkpt lat="41.649990345" lon="2.494499281">
        <ele>201.05</ele>
        <time>2013-12-06T11:09:53Z</time>
      </trkpt>
      <trkpt lat="41.649719694" lon="2.494619981">
        <ele>200.57</ele>
        <time>2013-12-06T11:10:00Z</time>
      </trkpt>
      <trkpt lat="41.649658925" lon="2.494671697">
        <ele>200.57</ele>
        <time>2013-12-06T11:10:02Z</time>
      </trkpt>
      <trkpt lat="41.649617854" lon="2.494904881">
        <ele>202.01</ele>
        <time>2013-12-06T11:10:09Z</time>
      </trkpt>
      <trkpt lat="41.649572843" lon="2.495148962">
        <ele>202.01</ele>
        <time>2013-12-06T11:10:16Z</time>
      </trkpt>
      <trkpt lat="41.649424818" lon="2.495536206">
        <ele>202.98</ele>
        <time>2013-12-06T11:10:27Z</time>
      </trkpt>
      <trkpt lat="41.649299928" lon="2.495781042">
        <ele>203.94</ele>
        <time>2013-12-06T11:10:35Z</time>
      </trkpt>
      <trkpt lat="41.649190293" lon="2.495959409">
        <ele>205.86</ele>
        <time>2013-12-06T11:10:42Z</time>
      </trkpt>
      <trkpt lat="41.649077640" lon="2.496081701">
        <ele>206.82</ele>
        <time>2013-12-06T11:10:48Z</time>
      </trkpt>
      <trkpt lat="41.649026343" lon="2.496206759">
        <ele>207.78</ele>
        <time>2013-12-06T11:10:53Z</time>
      </trkpt>
      <trkpt lat="41.649051488" lon="2.496459054">
        <ele>207.78</ele>
        <time>2013-12-06T11:10:59Z</time>
      </trkpt>
      <trkpt lat="41.649044867" lon="2.496626943">
        <ele>206.34</ele>
        <time>2013-12-06T11:11:02Z</time>
      </trkpt>
      <trkpt lat="41.649013686" lon="2.496966494">
        <ele>204.42</ele>
        <time>2013-12-06T11:11:07Z</time>
      </trkpt>
      <trkpt lat="41.648845796" lon="2.497398246">
        <ele>202.98</ele>
        <time>2013-12-06T11:11:14Z</time>
      </trkpt>
      <trkpt lat="41.648728785" lon="2.497644004">
        <ele>201.05</ele>
        <time>2013-12-06T11:11:20Z</time>
      </trkpt>
      <trkpt lat="41.648609175" lon="2.497953128">
        <ele>200.09</ele>
        <time>2013-12-06T11:11:27Z</time>
      </trkpt>
      <trkpt lat="41.648570116" lon="2.498032840">
        <ele>199.61</ele>
        <time>2013-12-06T11:11:29Z</time>
      </trkpt>
      <trkpt lat="41.648463246" lon="2.498063099">
        <ele>199.61</ele>
        <time>2013-12-06T11:11:34Z</time>
      </trkpt>
      <trkpt lat="41.648280018" lon="2.498136273">
        <ele>199.61</ele>
        <time>2013-12-06T11:11:42Z</time>
      </trkpt>
      <trkpt lat="41.648148674" lon="2.498264013">
        <ele>200.57</ele>
        <time>2013-12-06T11:11:48Z</time>
      </trkpt>
      <trkpt lat="41.647963601" lon="2.498428466">
        <ele>200.57</ele>
        <time>2013-12-06T11:11:55Z</time>
      </trkpt>
      <trkpt lat="41.647746007" lon="2.498688137">
        <ele>200.57</ele>
        <time>2013-12-06T11:12:03Z</time>
      </trkpt>
      <trkpt lat="41.647553223" lon="2.498840436">
        <ele>201.05</ele>
        <time>2013-12-06T11:12:09Z</time>
      </trkpt>
      <trkpt lat="41.647381981" lon="2.499007069">
        <ele>202.01</ele>
        <time>2013-12-06T11:12:15Z</time>
      </trkpt>
      <trkpt lat="41.647259689" lon="2.499246540">
        <ele>201.53</ele>
        <time>2013-12-06T11:12:21Z</time>
      </trkpt>
      <trkpt lat="41.647209230" lon="2.499382159">
        <ele>201.53</ele>
        <time>2013-12-06T11:12:24Z</time>
      </trkpt>
      <trkpt lat="41.647189449" lon="2.499797734">
        <ele>201.53</ele>
        <time>2013-12-06T11:12:31Z</time>
      </trkpt>
      <trkpt lat="41.647187353" lon="2.500123454">
        <ele>201.53</ele>
        <time>2013-12-06T11:12:37Z</time>
      </trkpt>
      <trkpt lat="41.647253570" lon="2.500421180">
        <ele>201.53</ele>
        <time>2013-12-06T11:12:43Z</time>
      </trkpt>
      <trkpt lat="41.647332779" lon="2.500745895">
        <ele>201.53</ele>
        <time>2013-12-06T11:12:49Z</time>
      </trkpt>
      <trkpt lat="41.647407127" lon="2.501108328">
        <ele>202.01</ele>
        <time>2013-12-06T11:12:55Z</time>
      </trkpt>
      <trkpt lat="41.647474182" lon="2.501476461">
        <ele>202.49</ele>
        <time>2013-12-06T11:13:02Z</time>
      </trkpt>
      <trkpt lat="41.647480133" lon="2.501534045">
        <ele>202.49</ele>
        <time>2013-12-06T11:13:03Z</time>
      </trkpt>
      <trkpt lat="41.647541488" lon="2.501787346">
        <ele>202.98</ele>
        <time>2013-12-06T11:13:07Z</time>
      </trkpt>
      <trkpt lat="41.647652130" lon="2.502112061">
        <ele>202.98</ele>
        <time>2013-12-06T11:13:13Z</time>
      </trkpt>
      <trkpt lat="41.647883386" lon="2.502499724">
        <ele>203.46</ele>
        <time>2013-12-06T11:13:23Z</time>
      </trkpt>
      <trkpt lat="41.648066196" lon="2.502670128">
        <ele>203.46</ele>
        <time>2013-12-06T11:13:30Z</time>
      </trkpt>
      <trkpt lat="41.648317569" lon="2.502922675">
        <ele>203.94</ele>
        <time>2013-12-06T11:13:39Z</time>
      </trkpt>
      <trkpt lat="41.648453942" lon="2.503096348">
        <ele>203.94</ele>
        <time>2013-12-06T11:13:45Z</time>
      </trkpt>
      <trkpt lat="41.648590400" lon="2.503262142">
        <ele>204.42</ele>
        <time>2013-12-06T11:13:51Z</time>
      </trkpt>
      <trkpt lat="41.648736832" lon="2.503447969">
        <ele>205.38</ele>
        <time>2013-12-06T11:13:58Z</time>
      </trkpt>
      <trkpt lat="41.648925173" lon="2.503676543">
        <ele>205.38</ele>
        <time>2013-12-06T11:14:06Z</time>
      </trkpt>
      <trkpt lat="41.649108569" lon="2.503881984">
        <ele>205.86</ele>
        <time>2013-12-06T11:14:14Z</time>
      </trkpt>
      <trkpt lat="41.649254163" lon="2.504144253">
        <ele>206.34</ele>
        <time>2013-12-06T11:14:22Z</time>
      </trkpt>
      <trkpt lat="41.649326415" lon="2.504508782">
        <ele>206.34</ele>
        <time>2013-12-06T11:14:31Z</time>
      </trkpt>
      <trkpt lat="41.649322727" lon="2.504695531">
        <ele>206.82</ele>
        <time>2013-12-06T11:14:36Z</time>
      </trkpt>
      <trkpt lat="41.649271849" lon="2.505010523">
        <ele>207.30</ele>
        <time>2013-12-06T11:14:45Z</time>
      </trkpt>
      <trkpt lat="41.649225664" lon="2.505323503">
        <ele>207.78</ele>
        <time>2013-12-06T11:14:53Z</time>
      </trkpt>
      <trkpt lat="41.649156514" lon="2.505479155">
        <ele>207.78</ele>
        <time>2013-12-06T11:14:58Z</time>
      </trkpt>
      <trkpt lat="41.649048387" lon="2.505728517">
        <ele>207.78</ele>
        <time>2013-12-06T11:15:05Z</time>
      </trkpt>
      <trkpt lat="41.648965909" lon="2.506007048">
        <ele>208.74</ele>
        <time>2013-12-06T11:15:13Z</time>
      </trkpt>
      <trkpt lat="41.648854514" lon="2.506231766">
        <ele>208.74</ele>
        <time>2013-12-06T11:15:20Z</time>
      </trkpt>
      <trkpt lat="41.648674387" lon="2.506327152">
        <ele>209.22</ele>
        <time>2013-12-06T11:15:27Z</time>
      </trkpt>
      <trkpt lat="41.648644295" lon="2.506344419">
        <ele>209.70</ele>
        <time>2013-12-06T11:15:29Z</time>
      </trkpt>
      <trkpt lat="41.648587466" lon="2.506411391">
        <ele>209.70</ele>
        <time>2013-12-06T11:15:36Z</time>
      </trkpt>
      <trkpt lat="41.648577073" lon="2.506471740">
        <ele>209.70</ele>
        <time>2013-12-06T11:15:46Z</time>
      </trkpt>
      <trkpt lat="41.648575229" lon="2.506485235">
        <ele>209.70</ele>
        <time>2013-12-06T11:15:54Z</time>
      </trkpt>
      <trkpt lat="41.648562907" lon="2.506481798">
        <ele>209.22</ele>
        <time>2013-12-06T11:16:09Z</time>
      </trkpt>
      <trkpt lat="41.648549161" lon="2.506480793">
        <ele>209.22</ele>
        <time>2013-12-06T11:16:20Z</time>
      </trkpt>
      <trkpt lat="41.648568858" lon="2.506460173">
        <ele>209.22</ele>
        <time>2013-12-06T11:16:32Z</time>
      </trkpt>
      <trkpt lat="41.648567350" lon="2.506479368">
        <ele>209.22</ele>
        <time>2013-12-06T11:16:47Z</time>
      </trkpt>
      <trkpt lat="41.648567769" lon="2.506488672">
        <ele>209.22</ele>
        <time>2013-12-06T11:17:00Z</time>
      </trkpt>
      <trkpt lat="41.648528960" lon="2.506471573">
        <ele>209.22</ele>
        <time>2013-12-06T11:17:03Z</time>
      </trkpt>
      <trkpt lat="41.648410189" lon="2.506519936">
        <ele>209.70</ele>
        <time>2013-12-06T11:17:09Z</time>
      </trkpt>
      <trkpt lat="41.648336596" lon="2.506559583">
        <ele>210.19</ele>
        <time>2013-12-06T11:17:13Z</time>
      </trkpt>
      <trkpt lat="41.648145321" lon="2.506665111">
        <ele>211.15</ele>
        <time>2013-12-06T11:17:22Z</time>
      </trkpt>
      <trkpt lat="41.648005511" lon="2.506803831">
        <ele>211.63</ele>
        <time>2013-12-06T11:17:29Z</time>
      </trkpt>
      <trkpt lat="41.647887242" lon="2.506972391">
        <ele>211.63</ele>
        <time>2013-12-06T11:17:36Z</time>
      </trkpt>
      <trkpt lat="41.647737206" lon="2.507242205">
        <ele>211.63</ele>
        <time>2013-12-06T11:17:45Z</time>
      </trkpt>
      <trkpt lat="41.647601587" lon="2.507510007">
        <ele>211.15</ele>
        <time>2013-12-06T11:17:52Z</time>
      </trkpt>
      <trkpt lat="41.647455574" lon="2.507690469">
        <ele>211.15</ele>
        <time>2013-12-06T11:17:59Z</time>
      </trkpt>
      <trkpt lat="41.647293468" lon="2.507833380">
        <ele>212.59</ele>
        <time>2013-12-06T11:18:06Z</time>
      </trkpt>
      <trkpt lat="41.647108647" lon="2.507871350">
        <ele>212.59</ele>
        <time>2013-12-06T11:18:13Z</time>
      </trkpt>
      <trkpt lat="41.646847718" lon="2.507817203">
        <ele>213.55</ele>
        <time>2013-12-06T11:18:22Z</time>
      </trkpt>
      <trkpt lat="41.646624005" lon="2.507787867">
        <ele>213.55</ele>
        <time>2013-12-06T11:18:29Z</time>
      </trkpt>
      <trkpt lat="41.646335249" lon="2.507745622">
        <ele>213.55</ele>
        <time>2013-12-06T11:18:37Z</time>
      </trkpt>
      <trkpt lat="41.646117906" lon="2.507663563">
        <ele>213.55</ele>
        <time>2013-12-06T11:18:44Z</time>
      </trkpt>
      <trkpt lat="41.645878435" lon="2.507589970">
        <ele>214.51</ele>
        <time>2013-12-06T11:18:52Z</time>
      </trkpt>
      <trkpt lat="41.645660506" lon="2.507563399">
        <ele>215.95</ele>
        <time>2013-12-06T11:18:59Z</time>
      </trkpt>
      <trkpt lat="41.645437379" lon="2.507543115">
        <ele>216.43</ele>
        <time>2013-12-06T11:19:06Z</time>
      </trkpt>
      <trkpt lat="41.645375018" lon="2.507561388">
        <ele>216.43</ele>
        <time>2013-12-06T11:19:08Z</time>
      </trkpt>
      <trkpt lat="41.645296396" lon="2.507750316">
        <ele>216.43</ele>
        <time>2013-12-06T11:19:13Z</time>
      </trkpt>
      <trkpt lat="41.645249038" lon="2.507976376">
        <ele>216.43</ele>
        <time>2013-12-06T11:19:18Z</time>
      </trkpt>
      <trkpt lat="41.645128003" lon="2.508020632">
        <ele>216.43</ele>
        <time>2013-12-06T11:19:23Z</time>
      </trkpt>
      <trkpt lat="41.645073689" lon="2.508006718">
        <ele>216.43</ele>
        <time>2013-12-06T11:19:29Z</time>
      </trkpt>
      <trkpt lat="41.645052147" lon="2.507996995">
        <ele>216.43</ele>
        <time>2013-12-06T11:19:36Z</time>
      </trkpt>
      <trkpt lat="41.645031863" lon="2.507987775">
        <ele>216.43</ele>
        <time>2013-12-06T11:19:44Z</time>
      </trkpt>
      <trkpt lat="41.645026247" lon="2.507987440">
        <ele>216.91</ele>
        <time>2013-12-06T11:19:55Z</time>
      </trkpt>
      <trkpt lat="41.645021050" lon="2.507998839">
        <ele>216.91</ele>
        <time>2013-12-06T11:20:09Z</time>
      </trkpt>
      <trkpt lat="41.645007052" lon="2.507980734">
        <ele>216.91</ele>
        <time>2013-12-06T11:20:16Z</time>
      </trkpt>
      <trkpt lat="41.644852742" lon="2.507895742">
        <ele>216.91</ele>
        <time>2013-12-06T11:20:23Z</time>
      </trkpt>
      <trkpt lat="41.644645709" lon="2.507800607">
        <ele>216.91</ele>
        <time>2013-12-06T11:20:30Z</time>
      </trkpt>
      <trkpt lat="41.644432892" lon="2.507667922">
        <ele>216.91</ele>
        <time>2013-12-06T11:20:38Z</time>
      </trkpt>
      <trkpt lat="41.644221836" lon="2.507549150">
        <ele>216.91</ele>
        <time>2013-12-06T11:20:46Z</time>
      </trkpt>
      <trkpt lat="41.643984628" lon="2.507338764">
        <ele>218.84</ele>
        <time>2013-12-06T11:20:56Z</time>
      </trkpt>
      <trkpt lat="41.643794191" lon="2.507242624">
        <ele>220.76</ele>
        <time>2013-12-06T11:21:05Z</time>
      </trkpt>
      <trkpt lat="41.643633845" lon="2.507267518">
        <ele>222.68</ele>
        <time>2013-12-06T11:21:12Z</time>
      </trkpt>
      <trkpt lat="41.643428489" lon="2.507317642">
        <ele>224.12</ele>
        <time>2013-12-06T11:21:21Z</time>
      </trkpt>
      <trkpt lat="41.643259509" lon="2.507333987">
        <ele>224.61</ele>
        <time>2013-12-06T11:21:28Z</time>
      </trkpt>
      <trkpt lat="41.643123723" lon="2.507323342">
        <ele>225.09</ele>
        <time>2013-12-06T11:21:34Z</time>
      </trkpt>
      <trkpt lat="41.642838151" lon="2.507368017">
        <ele>226.53</ele>
        <time>2013-12-06T11:21:44Z</time>
      </trkpt>
      <trkpt lat="41.642625251" lon="2.507351589">
        <ele>226.53</ele>
        <time>2013-12-06T11:21:53Z</time>
      </trkpt>
      <trkpt lat="41.642426935" lon="2.507325521">
        <ele>227.97</ele>
        <time>2013-12-06T11:22:01Z</time>
      </trkpt>
      <trkpt lat="41.642321742" lon="2.507294508">
        <ele>228.93</ele>
        <time>2013-12-06T11:22:06Z</time>
      </trkpt>
      <trkpt lat="41.642099873" lon="2.507309344">
        <ele>228.93</ele>
        <time>2013-12-06T11:22:14Z</time>
      </trkpt>
      <trkpt lat="41.641890828" lon="2.507241869">
        <ele>229.89</ele>
        <time>2013-12-06T11:22:21Z</time>
      </trkpt>
      <trkpt lat="41.641626547" lon="2.507184202">
        <ele>229.89</ele>
        <time>2013-12-06T11:22:29Z</time>
      </trkpt>
      <trkpt lat="41.641395877" lon="2.507177413">
        <ele>229.89</ele>
        <time>2013-12-06T11:22:35Z</time>
      </trkpt>
      <trkpt lat="41.641168560" lon="2.507246060">
        <ele>229.89</ele>
        <time>2013-12-06T11:22:42Z</time>
      </trkpt>
      <trkpt lat="41.640935459" lon="2.507348403">
        <ele>230.37</ele>
        <time>2013-12-06T11:22:50Z</time>
      </trkpt>
      <trkpt lat="41.640673273" lon="2.507381680">
        <ele>230.37</ele>
        <time>2013-12-06T11:22:58Z</time>
      </trkpt>
      <trkpt lat="41.640380410" lon="2.507413028">
        <ele>230.85</ele>
        <time>2013-12-06T11:23:07Z</time>
      </trkpt>
      <trkpt lat="41.640170694" lon="2.507482262">
        <ele>231.81</ele>
        <time>2013-12-06T11:23:14Z</time>
      </trkpt>
      <trkpt lat="41.640024682" lon="2.507526100">
        <ele>231.81</ele>
        <time>2013-12-06T11:23:19Z</time>
      </trkpt>
      <trkpt lat="41.639751934" lon="2.507580834">
        <ele>232.78</ele>
        <time>2013-12-06T11:23:28Z</time>
      </trkpt>
      <trkpt lat="41.639470722" lon="2.507631879">
        <ele>233.26</ele>
        <time>2013-12-06T11:23:37Z</time>
      </trkpt>
      <trkpt lat="41.639236280" lon="2.507656355">
        <ele>234.22</ele>
        <time>2013-12-06T11:23:45Z</time>
      </trkpt>
      <trkpt lat="41.639036455" lon="2.507650739">
        <ele>234.70</ele>
        <time>2013-12-06T11:23:52Z</time>
      </trkpt>
      <trkpt lat="41.638780807" lon="2.507651745">
        <ele>235.66</ele>
        <time>2013-12-06T11:24:01Z</time>
      </trkpt>
      <trkpt lat="41.638586515" lon="2.507665239">
        <ele>236.14</ele>
        <time>2013-12-06T11:24:07Z</time>
      </trkpt>
      <trkpt lat="41.638365316" lon="2.507650823">
        <ele>236.62</ele>
        <time>2013-12-06T11:24:14Z</time>
      </trkpt>
      <trkpt lat="41.638157948" lon="2.507609667">
        <ele>236.62</ele>
        <time>2013-12-06T11:24:21Z</time>
      </trkpt>
      <trkpt lat="41.637977905" lon="2.507541942">
        <ele>236.62</ele>
        <time>2013-12-06T11:24:28Z</time>
      </trkpt>
      <trkpt lat="41.637886374" lon="2.507618385">
        <ele>236.62</ele>
        <time>2013-12-06T11:24:33Z</time>
      </trkpt>
      <trkpt lat="41.637886290" lon="2.507645877">
        <ele>236.62</ele>
        <time>2013-12-06T11:24:34Z</time>
      </trkpt>
      <trkpt lat="41.637867766" lon="2.507835224">
        <ele>239.99</ele>
        <time>2013-12-06T11:24:41Z</time>
      </trkpt>
      <trkpt lat="41.637851673" lon="2.507854838">
        <ele>240.47</ele>
        <time>2013-12-06T11:24:42Z</time>
      </trkpt>
      <trkpt lat="41.637666601" lon="2.507990876">
        <ele>241.43</ele>
        <time>2013-12-06T11:24:50Z</time>
      </trkpt>
      <trkpt lat="41.637545063" lon="2.508098751">
        <ele>243.35</ele>
        <time>2013-12-06T11:24:56Z</time>
      </trkpt>
      <trkpt lat="41.637383795" lon="2.508252978">
        <ele>244.79</ele>
        <time>2013-12-06T11:25:05Z</time>
      </trkpt>
      <trkpt lat="41.637222695" lon="2.508281812">
        <ele>245.75</ele>
        <time>2013-12-06T11:25:12Z</time>
      </trkpt>
      <trkpt lat="41.637039886" lon="2.508320285">
        <ele>247.20</ele>
        <time>2013-12-06T11:25:20Z</time>
      </trkpt>
      <trkpt lat="41.636885575" lon="2.508416509">
        <ele>248.16</ele>
        <time>2013-12-06T11:25:28Z</time>
      </trkpt>
      <trkpt lat="41.636698239" lon="2.508488091">
        <ele>249.12</ele>
        <time>2013-12-06T11:25:36Z</time>
      </trkpt>
      <trkpt lat="41.636493889" lon="2.508643408">
        <ele>250.56</ele>
        <time>2013-12-06T11:25:46Z</time>
      </trkpt>
      <trkpt lat="41.636315103" lon="2.508689424">
        <ele>252.00</ele>
        <time>2013-12-06T11:25:54Z</time>
      </trkpt>
      <trkpt lat="41.636192475" lon="2.508687999">
        <ele>253.93</ele>
        <time>2013-12-06T11:26:00Z</time>
      </trkpt>
      <trkpt lat="41.636047971" lon="2.508668302">
        <ele>255.37</ele>
        <time>2013-12-06T11:26:07Z</time>
      </trkpt>
      <trkpt lat="41.635899947" lon="2.508651957">
        <ele>255.85</ele>
        <time>2013-12-06T11:26:13Z</time>
      </trkpt>
      <trkpt lat="41.635708169" lon="2.508629996">
        <ele>257.29</ele>
        <time>2013-12-06T11:26:21Z</time>
      </trkpt>
      <trkpt lat="41.635502309" lon="2.508650364">
        <ele>257.29</ele>
        <time>2013-12-06T11:26:27Z</time>
      </trkpt>
      <trkpt lat="41.635318075" lon="2.508795791">
        <ele>255.85</ele>
        <time>2013-12-06T11:26:33Z</time>
      </trkpt>
      <trkpt lat="41.635153203" lon="2.508958483">
        <ele>257.29</ele>
        <time>2013-12-06T11:26:40Z</time>
      </trkpt>
      <trkpt lat="41.634995121" lon="2.509108519">
        <ele>257.77</ele>
        <time>2013-12-06T11:26:47Z</time>
      </trkpt>
      <trkpt lat="41.634812898" lon="2.509218574">
        <ele>257.77</ele>
        <time>2013-12-06T11:26:53Z</time>
      </trkpt>
      <trkpt lat="41.634642159" lon="2.509374729">
        <ele>257.77</ele>
        <time>2013-12-06T11:27:00Z</time>
      </trkpt>
      <trkpt lat="41.634483154" lon="2.509408927">
        <ele>258.73</ele>
        <time>2013-12-06T11:27:07Z</time>
      </trkpt>
      <trkpt lat="41.634320713" lon="2.509415213">
        <ele>259.21</ele>
        <time>2013-12-06T11:27:14Z</time>
      </trkpt>
      <trkpt lat="41.634110075" lon="2.509408089">
        <ele>259.69</ele>
        <time>2013-12-06T11:27:22Z</time>
      </trkpt>
      <trkpt lat="41.633955932" lon="2.509417476">
        <ele>260.17</ele>
        <time>2013-12-06T11:27:27Z</time>
      </trkpt>
      <trkpt lat="41.633793910" lon="2.509444466">
        <ele>261.62</ele>
        <time>2013-12-06T11:27:34Z</time>
      </trkpt>
      <trkpt lat="41.633654854" lon="2.509445975">
        <ele>263.54</ele>
        <time>2013-12-06T11:27:41Z</time>
      </trkpt>
      <trkpt lat="41.633576400" lon="2.509474222">
        <ele>264.02</ele>
        <time>2013-12-06T11:27:45Z</time>
      </trkpt>
      <trkpt lat="41.633444888" lon="2.509549491">
        <ele>265.46</ele>
        <time>2013-12-06T11:27:51Z</time>
      </trkpt>
      <trkpt lat="41.633271131" lon="2.509582013">
        <ele>268.83</ele>
        <time>2013-12-06T11:27:59Z</time>
      </trkpt>
      <trkpt lat="41.633151437" lon="2.509588886">
        <ele>270.75</ele>
        <time>2013-12-06T11:28:06Z</time>
      </trkpt>
      <trkpt lat="41.632971310" lon="2.509597687">
        <ele>272.19</ele>
        <time>2013-12-06T11:28:15Z</time>
      </trkpt>
      <trkpt lat="41.632820520" lon="2.509603387">
        <ele>273.63</ele>
        <time>2013-12-06T11:28:23Z</time>
      </trkpt>
      <trkpt lat="41.632633435" lon="2.509552173">
        <ele>274.59</ele>
        <time>2013-12-06T11:28:32Z</time>
      </trkpt>
      <trkpt lat="41.632440149" lon="2.509517724">
        <ele>274.59</ele>
        <time>2013-12-06T11:28:40Z</time>
      </trkpt>
      <trkpt lat="41.632231188" lon="2.509554856">
        <ele>276.04</ele>
        <time>2013-12-06T11:28:50Z</time>
      </trkpt>
      <trkpt lat="41.632087941" lon="2.509578325">
        <ele>277.48</ele>
        <time>2013-12-06T11:28:58Z</time>
      </trkpt>
      <trkpt lat="41.631968834" lon="2.509576816">
        <ele>278.44</ele>
        <time>2013-12-06T11:29:04Z</time>
      </trkpt>
      <trkpt lat="41.631806393" lon="2.509535326">
        <ele>279.40</ele>
        <time>2013-12-06T11:29:12Z</time>
      </trkpt>
      <trkpt lat="41.631692148" lon="2.509482771">
        <ele>280.36</ele>
        <time>2013-12-06T11:29:19Z</time>
      </trkpt>
      <trkpt lat="41.631536161" lon="2.509416638">
        <ele>282.28</ele>
        <time>2013-12-06T11:29:28Z</time>
      </trkpt>
      <trkpt lat="41.631375899" lon="2.509346901">
        <ele>284.21</ele>
        <time>2013-12-06T11:29:36Z</time>
      </trkpt>
      <trkpt lat="41.631245141" lon="2.509312702">
        <ele>285.17</ele>
        <time>2013-12-06T11:29:44Z</time>
      </trkpt>
      <trkpt lat="41.631129974" lon="2.509262327">
        <ele>286.61</ele>
        <time>2013-12-06T11:29:51Z</time>
      </trkpt>
      <trkpt lat="41.631052692" lon="2.509201139">
        <ele>288.53</ele>
        <time>2013-12-06T11:29:57Z</time>
      </trkpt>
      <trkpt lat="41.630987230" lon="2.509117823">
        <ele>289.49</ele>
        <time>2013-12-06T11:30:04Z</time>
      </trkpt>
      <trkpt lat="41.630926712" lon="2.509035010">
        <ele>291.42</ele>
        <time>2013-12-06T11:30:11Z</time>
      </trkpt>
      <trkpt lat="41.630817077" lon="2.508923950">
        <ele>292.38</ele>
        <time>2013-12-06T11:30:19Z</time>
      </trkpt>
      <trkpt lat="41.630725128" lon="2.508804256">
        <ele>293.82</ele>
        <time>2013-12-06T11:30:26Z</time>
      </trkpt>
      <trkpt lat="41.630644494" lon="2.508585824">
        <ele>294.30</ele>
        <time>2013-12-06T11:30:35Z</time>
      </trkpt>
      <trkpt lat="41.630584479" lon="2.508398153">
        <ele>296.22</ele>
        <time>2013-12-06T11:30:44Z</time>
      </trkpt>
      <trkpt lat="41.630498229" lon="2.508265719">
        <ele>298.15</ele>
        <time>2013-12-06T11:30:53Z</time>
      </trkpt>
      <trkpt lat="41.630468641" lon="2.508138146">
        <ele>300.07</ele>
        <time>2013-12-06T11:31:01Z</time>
      </trkpt>
      <trkpt lat="41.630366215" lon="2.508003030">
        <ele>301.51</ele>
        <time>2013-12-06T11:31:09Z</time>
      </trkpt>
      <trkpt lat="41.630262698" lon="2.507924575">
        <ele>303.91</ele>
        <time>2013-12-06T11:31:17Z</time>
      </trkpt>
      <trkpt lat="41.630164127" lon="2.507801194">
        <ele>305.36</ele>
        <time>2013-12-06T11:31:26Z</time>
      </trkpt>
      <trkpt lat="41.630118865" lon="2.507734977">
        <ele>306.80</ele>
        <time>2013-12-06T11:31:31Z</time>
      </trkpt>
      <trkpt lat="41.630064634" lon="2.507676890">
        <ele>307.76</ele>
        <time>2013-12-06T11:31:35Z</time>
      </trkpt>
      <trkpt lat="41.629935971" lon="2.507591814">
        <ele>309.68</ele>
        <time>2013-12-06T11:31:43Z</time>
      </trkpt>
      <trkpt lat="41.629801861" lon="2.507510426">
        <ele>310.64</ele>
        <time>2013-12-06T11:31:52Z</time>
      </trkpt>
      <trkpt lat="41.629687867" lon="2.507434402">
        <ele>313.53</ele>
        <time>2013-12-06T11:32:01Z</time>
      </trkpt>
      <trkpt lat="41.629609412" lon="2.507364245">
        <ele>315.45</ele>
        <time>2013-12-06T11:32:08Z</time>
      </trkpt>
      <trkpt lat="41.629579238" lon="2.507337088">
        <ele>315.45</ele>
        <time>2013-12-06T11:32:10Z</time>
      </trkpt>
      <trkpt lat="41.629476056" lon="2.507212952">
        <ele>315.93</ele>
        <time>2013-12-06T11:32:18Z</time>
      </trkpt>
      <trkpt lat="41.629384694" lon="2.507108932">
        <ele>316.41</ele>
        <time>2013-12-06T11:32:24Z</time>
      </trkpt>
      <trkpt lat="41.629267682" lon="2.507031819">
        <ele>316.89</ele>
        <time>2013-12-06T11:32:31Z</time>
      </trkpt>
      <trkpt lat="41.629184366" lon="2.506925453">
        <ele>317.85</ele>
        <time>2013-12-06T11:32:38Z</time>
      </trkpt>
      <trkpt lat="41.629089651" lon="2.506807352">
        <ele>320.26</ele>
        <time>2013-12-06T11:32:47Z</time>
      </trkpt>
      <trkpt lat="41.628954534" lon="2.506767286">
        <ele>321.22</ele>
        <time>2013-12-06T11:32:54Z</time>
      </trkpt>
      <trkpt lat="41.628916481" lon="2.506828893">
        <ele>322.18</ele>
        <time>2013-12-06T11:32:59Z</time>
      </trkpt>
      <trkpt lat="41.628943806" lon="2.506938696">
        <ele>322.66</ele>
        <time>2013-12-06T11:33:07Z</time>
      </trkpt>
      <trkpt lat="41.628994600" lon="2.507043302">
        <ele>324.10</ele>
        <time>2013-12-06T11:33:15Z</time>
      </trkpt>
      <trkpt lat="41.629074060" lon="2.507189818">
        <ele>326.02</ele>
        <time>2013-12-06T11:33:25Z</time>
      </trkpt>
      <trkpt lat="41.629101637" lon="2.507232901">
        <ele>326.99</ele>
        <time>2013-12-06T11:33:28Z</time>
      </trkpt>
      <trkpt lat="41.629131644" lon="2.507335831">
        <ele>327.95</ele>
        <time>2013-12-06T11:33:34Z</time>
      </trkpt>
      <trkpt lat="41.629109432" lon="2.507396767">
        <ele>328.91</ele>
        <time>2013-12-06T11:33:38Z</time>
      </trkpt>
      <trkpt lat="41.629047071" lon="2.507374555">
        <ele>330.35</ele>
        <time>2013-12-06T11:33:46Z</time>
      </trkpt>
      <trkpt lat="41.628971550" lon="2.507313283">
        <ele>332.27</ele>
        <time>2013-12-06T11:33:54Z</time>
      </trkpt>
      <trkpt lat="41.628900974" lon="2.507257963">
        <ele>335.64</ele>
        <time>2013-12-06T11:34:01Z</time>
      </trkpt>
      <trkpt lat="41.628869877" lon="2.507243378">
        <ele>336.12</ele>
        <time>2013-12-06T11:34:03Z</time>
      </trkpt>
      <trkpt lat="41.628779017" lon="2.507214209">
        <ele>337.08</ele>
        <time>2013-12-06T11:34:09Z</time>
      </trkpt>
      <trkpt lat="41.628702491" lon="2.507139359">
        <ele>339.00</ele>
        <time>2013-12-06T11:34:18Z</time>
      </trkpt>
      <trkpt lat="41.628689080" lon="2.507115973">
        <ele>339.96</ele>
        <time>2013-12-06T11:34:20Z</time>
      </trkpt>
      <trkpt lat="41.628620180" lon="2.506991083">
        <ele>340.92</ele>
        <time>2013-12-06T11:34:28Z</time>
      </trkpt>
      <trkpt lat="41.628567458" lon="2.506913550">
        <ele>342.85</ele>
        <time>2013-12-06T11:34:35Z</time>
      </trkpt>
      <trkpt lat="41.628497050" lon="2.506807016">
        <ele>344.29</ele>
        <time>2013-12-06T11:34:43Z</time>
      </trkpt>
      <trkpt lat="41.628437874" lon="2.506692520">
        <ele>346.21</ele>
        <time>2013-12-06T11:34:51Z</time>
      </trkpt>
      <trkpt lat="41.628341566" lon="2.506650442">
        <ele>347.65</ele>
        <time>2013-12-06T11:34:59Z</time>
      </trkpt>
      <trkpt lat="41.628296052" lon="2.506635942">
        <ele>348.13</ele>
        <time>2013-12-06T11:35:02Z</time>
      </trkpt>
      <trkpt lat="41.628225225" lon="2.506588752">
        <ele>349.58</ele>
        <time>2013-12-06T11:35:08Z</time>
      </trkpt>
      <trkpt lat="41.628169485" lon="2.506531838">
        <ele>351.98</ele>
        <time>2013-12-06T11:35:15Z</time>
      </trkpt>
      <trkpt lat="41.628053312" lon="2.506502334">
        <ele>353.42</ele>
        <time>2013-12-06T11:35:24Z</time>
      </trkpt>
      <trkpt lat="41.628042416" lon="2.506498646">
        <ele>353.42</ele>
        <time>2013-12-06T11:35:25Z</time>
      </trkpt>
      <trkpt lat="41.627945353" lon="2.506447181">
        <ele>355.34</ele>
        <time>2013-12-06T11:35:34Z</time>
      </trkpt>
      <trkpt lat="41.627894056" lon="2.506397477">
        <ele>356.79</ele>
        <time>2013-12-06T11:35:41Z</time>
      </trkpt>
      <trkpt lat="41.627812081" lon="2.506316591">
        <ele>357.75</ele>
        <time>2013-12-06T11:35:48Z</time>
      </trkpt>
      <trkpt lat="41.627737650" lon="2.506260181">
        <ele>358.23</ele>
        <time>2013-12-06T11:35:54Z</time>
      </trkpt>
      <trkpt lat="41.627614939" lon="2.506204860">
        <ele>359.19</ele>
        <time>2013-12-06T11:36:01Z</time>
      </trkpt>
      <trkpt lat="41.627487450" lon="2.506193126">
        <ele>360.15</ele>
        <time>2013-12-06T11:36:09Z</time>
      </trkpt>
      <trkpt lat="41.627367170" lon="2.506178709">
        <ele>361.59</ele>
        <time>2013-12-06T11:36:16Z</time>
      </trkpt>
      <trkpt lat="41.627240100" lon="2.506174853">
        <ele>363.52</ele>
        <time>2013-12-06T11:36:24Z</time>
      </trkpt>
      <trkpt lat="41.627069109" lon="2.506216595">
        <ele>365.44</ele>
        <time>2013-12-06T11:36:35Z</time>
      </trkpt>
      <trkpt lat="41.627032899" lon="2.506243166">
        <ele>366.88</ele>
        <time>2013-12-06T11:36:38Z</time>
      </trkpt>
      <trkpt lat="41.626954361" lon="2.506377695">
        <ele>367.84</ele>
        <time>2013-12-06T11:36:46Z</time>
      </trkpt>
      <trkpt lat="41.626944470" lon="2.506394627">
        <ele>367.84</ele>
        <time>2013-12-06T11:36:47Z</time>
      </trkpt>
      <trkpt lat="41.626906500" lon="2.506446092">
        <ele>368.80</ele>
        <time>2013-12-06T11:36:50Z</time>
      </trkpt>
      <trkpt lat="41.626851934" lon="2.506485403">
        <ele>369.76</ele>
        <time>2013-12-06T11:36:54Z</time>
      </trkpt>
      <trkpt lat="41.626722601" lon="2.506456653">
        <ele>371.21</ele>
        <time>2013-12-06T11:37:03Z</time>
      </trkpt>
      <trkpt lat="41.626680776" lon="2.506419437">
        <ele>371.69</ele>
        <time>2013-12-06T11:37:07Z</time>
      </trkpt>
      <trkpt lat="41.626658647" lon="2.506365709">
        <ele>372.17</ele>
        <time>2013-12-06T11:37:11Z</time>
      </trkpt>
      <trkpt lat="41.626654708" lon="2.506338887">
        <ele>373.13</ele>
        <time>2013-12-06T11:37:13Z</time>
      </trkpt>
      <trkpt lat="41.626657977" lon="2.506303096">
        <ele>373.61</ele>
        <time>2013-12-06T11:37:16Z</time>
      </trkpt>
      <trkpt lat="41.626658983" lon="2.506242244">
        <ele>374.09</ele>
        <time>2013-12-06T11:37:20Z</time>
      </trkpt>
      <trkpt lat="41.626608272" lon="2.506072845">
        <ele>375.05</ele>
        <time>2013-12-06T11:37:29Z</time>
      </trkpt>
      <trkpt lat="41.626583043" lon="2.506033786">
        <ele>374.57</ele>
        <time>2013-12-06T11:37:31Z</time>
      </trkpt>
      <trkpt lat="41.626485561" lon="2.505905543">
        <ele>376.01</ele>
        <time>2013-12-06T11:37:40Z</time>
      </trkpt>
      <trkpt lat="41.626365113" lon="2.505769672">
        <ele>376.97</ele>
        <time>2013-12-06T11:37:49Z</time>
      </trkpt>
      <trkpt lat="41.626301662" lon="2.505603291">
        <ele>377.45</ele>
        <time>2013-12-06T11:37:57Z</time>
      </trkpt>
      <trkpt lat="41.626357485" lon="2.505447304">
        <ele>379.38</ele>
        <time>2013-12-06T11:38:05Z</time>
      </trkpt>
      <trkpt lat="41.626375758" lon="2.505414112">
        <ele>379.38</ele>
        <time>2013-12-06T11:38:07Z</time>
      </trkpt>
      <trkpt lat="41.626408196" lon="2.505333562">
        <ele>379.38</ele>
        <time>2013-12-06T11:38:11Z</time>
      </trkpt>
      <trkpt lat="41.626452369" lon="2.505186711">
        <ele>380.82</ele>
        <time>2013-12-06T11:38:18Z</time>
      </trkpt>
      <trkpt lat="41.626384391" lon="2.505171875">
        <ele>382.26</ele>
        <time>2013-12-06T11:38:24Z</time>
      </trkpt>
      <trkpt lat="41.626283306" lon="2.505304895">
        <ele>384.66</ele>
        <time>2013-12-06T11:38:34Z</time>
      </trkpt>
      <trkpt lat="41.626182807" lon="2.505326102">
        <ele>386.11</ele>
        <time>2013-12-06T11:38:42Z</time>
      </trkpt>
      <trkpt lat="41.626050205" lon="2.505388295">
        <ele>387.55</ele>
        <time>2013-12-06T11:38:50Z</time>
      </trkpt>
      <trkpt lat="41.626017348" lon="2.505409753">
        <ele>387.55</ele>
        <time>2013-12-06T11:38:52Z</time>
      </trkpt>
      <trkpt lat="41.625988430" lon="2.505458200">
        <ele>387.55</ele>
        <time>2013-12-06T11:38:55Z</time>
      </trkpt>
      <trkpt lat="41.626012654" lon="2.505610081">
        <ele>388.99</ele>
        <time>2013-12-06T11:39:03Z</time>
      </trkpt>
      <trkpt lat="41.626069399" lon="2.505719632">
        <ele>390.91</ele>
        <time>2013-12-06T11:39:10Z</time>
      </trkpt>
      <trkpt lat="41.626115919" lon="2.505896323">
        <ele>392.84</ele>
        <time>2013-12-06T11:39:19Z</time>
      </trkpt>
      <trkpt lat="41.626100245" lon="2.506052561">
        <ele>394.28</ele>
        <time>2013-12-06T11:39:26Z</time>
      </trkpt>
      <trkpt lat="41.626018689" lon="2.506225480">
        <ele>395.24</ele>
        <time>2013-12-06T11:39:35Z</time>
      </trkpt>
      <trkpt lat="41.625945431" lon="2.506376354">
        <ele>396.20</ele>
        <time>2013-12-06T11:39:43Z</time>
      </trkpt>
      <trkpt lat="41.625920202" lon="2.506554386">
        <ele>396.68</ele>
        <time>2013-12-06T11:39:51Z</time>
      </trkpt>
      <trkpt lat="41.625925398" lon="2.506731328">
        <ele>398.12</ele>
        <time>2013-12-06T11:39:59Z</time>
      </trkpt>
      <trkpt lat="41.625901678" lon="2.506862085">
        <ele>399.57</ele>
        <time>2013-12-06T11:40:06Z</time>
      </trkpt>
      <trkpt lat="41.625826576" lon="2.507000135">
        <ele>401.01</ele>
        <time>2013-12-06T11:40:14Z</time>
      </trkpt>
      <trkpt lat="41.625754575" lon="2.507137431">
        <ele>403.41</ele>
        <time>2013-12-06T11:40:22Z</time>
      </trkpt>
      <trkpt lat="41.625700931" lon="2.507321498">
        <ele>403.89</ele>
        <time>2013-12-06T11:40:30Z</time>
      </trkpt>
      <trkpt lat="41.625638151" lon="2.507530375">
        <ele>404.85</ele>
        <time>2013-12-06T11:40:37Z</time>
      </trkpt>
      <trkpt lat="41.625524827" lon="2.507747131">
        <ele>406.77</ele>
        <time>2013-12-06T11:40:47Z</time>
      </trkpt>
      <trkpt lat="41.625477469" lon="2.507842014">
        <ele>409.18</ele>
        <time>2013-12-06T11:40:53Z</time>
      </trkpt>
      <trkpt lat="41.625486606" lon="2.507887360">
        <ele>409.18</ele>
        <time>2013-12-06T11:40:56Z</time>
      </trkpt>
      <trkpt lat="41.625606802" lon="2.507912841">
        <ele>409.66</ele>
        <time>2013-12-06T11:41:04Z</time>
      </trkpt>
      <trkpt lat="41.625799418" lon="2.507946201">
        <ele>411.10</ele>
        <time>2013-12-06T11:41:15Z</time>
      </trkpt>
      <trkpt lat="41.625953645" lon="2.507932706">
        <ele>411.58</ele>
        <time>2013-12-06T11:41:23Z</time>
      </trkpt>
      <trkpt lat="41.626139053" lon="2.507896831">
        <ele>412.54</ele>
        <time>2013-12-06T11:41:32Z</time>
      </trkpt>
      <trkpt lat="41.626331753" lon="2.507856095">
        <ele>413.50</ele>
        <time>2013-12-06T11:41:41Z</time>
      </trkpt>
      <trkpt lat="41.626478855" lon="2.507830698">
        <ele>414.95</ele>
        <time>2013-12-06T11:41:49Z</time>
      </trkpt>
      <trkpt lat="41.626632663" lon="2.507843187">
        <ele>415.91</ele>
        <time>2013-12-06T11:41:57Z</time>
      </trkpt>
      <trkpt lat="41.626761242" lon="2.507904375">
        <ele>416.87</ele>
        <time>2013-12-06T11:42:04Z</time>
      </trkpt>
      <trkpt lat="41.626775323" lon="2.507922899">
        <ele>417.35</ele>
        <time>2013-12-06T11:42:05Z</time>
      </trkpt>
      <trkpt lat="41.626787142" lon="2.507995570">
        <ele>418.31</ele>
        <time>2013-12-06T11:42:09Z</time>
      </trkpt>
      <trkpt lat="41.626763253" lon="2.508064972">
        <ele>419.27</ele>
        <time>2013-12-06T11:42:13Z</time>
      </trkpt>
      <trkpt lat="41.626712375" lon="2.508283405">
        <ele>419.75</ele>
        <time>2013-12-06T11:42:22Z</time>
      </trkpt>
      <trkpt lat="41.626666359" lon="2.508481888">
        <ele>420.71</ele>
        <time>2013-12-06T11:42:30Z</time>
      </trkpt>
      <trkpt lat="41.626566111" lon="2.508657573">
        <ele>422.64</ele>
        <time>2013-12-06T11:42:39Z</time>
      </trkpt>
      <trkpt lat="41.626485477" lon="2.508785565">
        <ele>423.60</ele>
        <time>2013-12-06T11:42:46Z</time>
      </trkpt>
      <trkpt lat="41.626436108" lon="2.508982707">
        <ele>424.08</ele>
        <time>2013-12-06T11:42:53Z</time>
      </trkpt>
      <trkpt lat="41.626456811" lon="2.509207342">
        <ele>424.56</ele>
        <time>2013-12-06T11:43:00Z</time>
      </trkpt>
      <trkpt lat="41.626483968" lon="2.509461481">
        <ele>424.56</ele>
        <time>2013-12-06T11:43:08Z</time>
      </trkpt>
      <trkpt lat="41.626405095" lon="2.509725176">
        <ele>425.52</ele>
        <time>2013-12-06T11:43:17Z</time>
      </trkpt>
      <trkpt lat="41.626310882" lon="2.509937825">
        <ele>426.48</ele>
        <time>2013-12-06T11:43:25Z</time>
      </trkpt>
      <trkpt lat="41.626229661" lon="2.510160197">
        <ele>427.44</ele>
        <time>2013-12-06T11:43:33Z</time>
      </trkpt>
      <trkpt lat="41.626145926" lon="2.510412324">
        <ele>428.89</ele>
        <time>2013-12-06T11:43:42Z</time>
      </trkpt>
      <trkpt lat="41.626070657" lon="2.510639809">
        <ele>430.33</ele>
        <time>2013-12-06T11:43:50Z</time>
      </trkpt>
      <trkpt lat="41.626003266" lon="2.510867629">
        <ele>432.25</ele>
        <time>2013-12-06T11:43:59Z</time>
      </trkpt>
      <trkpt lat="41.625913831" lon="2.511111543">
        <ele>434.17</ele>
        <time>2013-12-06T11:44:08Z</time>
      </trkpt>
      <trkpt lat="41.625848620" lon="2.511304913">
        <ele>435.61</ele>
        <time>2013-12-06T11:44:16Z</time>
      </trkpt>
      <trkpt lat="41.625819451" lon="2.511484957">
        <ele>437.54</ele>
        <time>2013-12-06T11:44:24Z</time>
      </trkpt>
      <trkpt lat="41.625866977" lon="2.511651673">
        <ele>438.50</ele>
        <time>2013-12-06T11:44:31Z</time>
      </trkpt>
      <trkpt lat="41.626029502" lon="2.511734402">
        <ele>440.42</ele>
        <time>2013-12-06T11:44:40Z</time>
      </trkpt>
      <trkpt lat="41.626149028" lon="2.511811599">
        <ele>442.34</ele>
        <time>2013-12-06T11:44:48Z</time>
      </trkpt>
      <trkpt lat="41.626190267" lon="2.511854179">
        <ele>442.82</ele>
        <time>2013-12-06T11:44:51Z</time>
      </trkpt>
      <trkpt lat="41.626267631" lon="2.512031373">
        <ele>444.75</ele>
        <time>2013-12-06T11:45:00Z</time>
      </trkpt>
      <trkpt lat="41.626290430" lon="2.512095075">
        <ele>445.23</ele>
        <time>2013-12-06T11:45:03Z</time>
      </trkpt>
      <trkpt lat="41.626327478" lon="2.512284590">
        <ele>447.15</ele>
        <time>2013-12-06T11:45:12Z</time>
      </trkpt>
      <trkpt lat="41.626348936" lon="2.512463879">
        <ele>448.11</ele>
        <time>2013-12-06T11:45:20Z</time>
      </trkpt>
      <trkpt lat="41.626361844" lon="2.512626320">
        <ele>448.59</ele>
        <time>2013-12-06T11:45:27Z</time>
      </trkpt>
      <trkpt lat="41.626394953" lon="2.512856739">
        <ele>450.52</ele>
        <time>2013-12-06T11:45:36Z</time>
      </trkpt>
      <trkpt lat="41.626495033" lon="2.512933014">
        <ele>451.00</ele>
        <time>2013-12-06T11:45:42Z</time>
      </trkpt>
      <trkpt lat="41.626568626" lon="2.512928236">
        <ele>451.48</ele>
        <time>2013-12-06T11:45:46Z</time>
      </trkpt>
      <trkpt lat="41.626730648" lon="2.512942569">
        <ele>451.96</ele>
        <time>2013-12-06T11:45:54Z</time>
      </trkpt>
      <trkpt lat="41.626912954" lon="2.512993951">
        <ele>452.92</ele>
        <time>2013-12-06T11:46:03Z</time>
      </trkpt>
      <trkpt lat="41.627033570" lon="2.513106100">
        <ele>453.40</ele>
        <time>2013-12-06T11:46:10Z</time>
      </trkpt>
      <trkpt lat="41.627119400" lon="2.513254460">
        <ele>453.88</ele>
        <time>2013-12-06T11:46:17Z</time>
      </trkpt>
      <trkpt lat="41.627208500" lon="2.513423020">
        <ele>454.84</ele>
        <time>2013-12-06T11:46:25Z</time>
      </trkpt>
      <trkpt lat="41.627281171" lon="2.513583282">
        <ele>455.32</ele>
        <time>2013-12-06T11:46:32Z</time>
      </trkpt>
      <trkpt lat="41.627383514" lon="2.513744634">
        <ele>453.88</ele>
        <time>2013-12-06T11:46:37Z</time>
      </trkpt>
      <trkpt lat="41.627444283" lon="2.514046466">
        <ele>452.92</ele>
        <time>2013-12-06T11:46:43Z</time>
      </trkpt>
      <trkpt lat="41.627497424" lon="2.514333798">
        <ele>451.00</ele>
        <time>2013-12-06T11:46:48Z</time>
      </trkpt>
      <trkpt lat="41.627502370" lon="2.514563043">
        <ele>449.55</ele>
        <time>2013-12-06T11:46:52Z</time>
      </trkpt>
      <trkpt lat="41.627451156" lon="2.514803520">
        <ele>448.59</ele>
        <time>2013-12-06T11:46:56Z</time>
      </trkpt>
      <trkpt lat="41.627398518" lon="2.514978031">
        <ele>446.67</ele>
        <time>2013-12-06T11:46:59Z</time>
      </trkpt>
      <trkpt lat="41.627216966" lon="2.515284892">
        <ele>443.79</ele>
        <time>2013-12-06T11:47:06Z</time>
      </trkpt>
      <trkpt lat="41.627051004" lon="2.515433252">
        <ele>440.90</ele>
        <time>2013-12-06T11:47:12Z</time>
      </trkpt>
      <trkpt lat="41.626942375" lon="2.515497625">
        <ele>438.98</ele>
        <time>2013-12-06T11:47:18Z</time>
      </trkpt>
      <trkpt lat="41.626897448" lon="2.515527465">
        <ele>438.50</ele>
        <time>2013-12-06T11:47:20Z</time>
      </trkpt>
      <trkpt lat="41.626816981" lon="2.515559819">
        <ele>437.06</ele>
        <time>2013-12-06T11:47:22Z</time>
      </trkpt>
      <trkpt lat="41.626499056" lon="2.515728546">
        <ele>432.73</ele>
        <time>2013-12-06T11:47:28Z</time>
      </trkpt>
      <trkpt lat="41.626248605" lon="2.515857292">
        <ele>429.37</ele>
        <time>2013-12-06T11:47:33Z</time>
      </trkpt>
      <trkpt lat="41.626101083" lon="2.516092992">
        <ele>427.44</ele>
        <time>2013-12-06T11:47:38Z</time>
      </trkpt>
      <trkpt lat="41.626038219" lon="2.516274627">
        <ele>426.96</ele>
        <time>2013-12-06T11:47:42Z</time>
      </trkpt>
      <trkpt lat="41.625959429" lon="2.516243279">
        <ele>425.52</ele>
        <time>2013-12-06T11:47:46Z</time>
      </trkpt>
      <trkpt lat="41.626011061" lon="2.516097015">
        <ele>424.08</ele>
        <time>2013-12-06T11:47:50Z</time>
      </trkpt>
      <trkpt lat="41.626147770" lon="2.515708681">
        <ele>420.71</ele>
        <time>2013-12-06T11:47:58Z</time>
      </trkpt>
      <trkpt lat="41.626195212" lon="2.515622012">
        <ele>419.75</ele>
        <time>2013-12-06T11:48:00Z</time>
      </trkpt>
      <trkpt lat="41.626360168" lon="2.515360078">
        <ele>416.39</ele>
        <time>2013-12-06T11:48:05Z</time>
      </trkpt>
      <trkpt lat="41.626438371" lon="2.515205516">
        <ele>414.47</ele>
        <time>2013-12-06T11:48:08Z</time>
      </trkpt>
      <trkpt lat="41.626542223" lon="2.515027903">
        <ele>412.54</ele>
        <time>2013-12-06T11:48:12Z</time>
      </trkpt>
      <trkpt lat="41.626598633" lon="2.514943078">
        <ele>412.06</ele>
        <time>2013-12-06T11:48:14Z</time>
      </trkpt>
      <trkpt lat="41.626631406" lon="2.514615094">
        <ele>408.70</ele>
        <time>2013-12-06T11:48:19Z</time>
      </trkpt>
      <trkpt lat="41.626551275" lon="2.514494311">
        <ele>407.74</ele>
        <time>2013-12-06T11:48:21Z</time>
      </trkpt>
      <trkpt lat="41.626376261" lon="2.514295660">
        <ele>405.33</ele>
        <time>2013-12-06T11:48:25Z</time>
      </trkpt>
      <trkpt lat="41.626237038" lon="2.514197424">
        <ele>403.89</ele>
        <time>2013-12-06T11:48:28Z</time>
      </trkpt>
      <trkpt lat="41.625986502" lon="2.514201028">
        <ele>400.53</ele>
        <time>2013-12-06T11:48:33Z</time>
      </trkpt>
      <trkpt lat="41.625932272" lon="2.514175631">
        <ele>400.05</ele>
        <time>2013-12-06T11:48:34Z</time>
      </trkpt>
      <trkpt lat="41.625696153" lon="2.514048645">
        <ele>396.68</ele>
        <time>2013-12-06T11:48:39Z</time>
      </trkpt>
      <trkpt lat="41.625474536" lon="2.514025092">
        <ele>391.39</ele>
        <time>2013-12-06T11:48:44Z</time>
      </trkpt>
      <trkpt lat="41.625249817" lon="2.514042443">
        <ele>387.55</ele>
        <time>2013-12-06T11:48:49Z</time>
      </trkpt>
      <trkpt lat="41.625165579" lon="2.514051663">
        <ele>385.15</ele>
        <time>2013-12-06T11:48:51Z</time>
      </trkpt>
      <trkpt lat="41.624982770" lon="2.514063314">
        <ele>380.82</ele>
        <time>2013-12-06T11:48:55Z</time>
      </trkpt>
      <trkpt lat="41.624875816" lon="2.514063398">
        <ele>377.94</ele>
        <time>2013-12-06T11:48:58Z</time>
      </trkpt>
      <trkpt lat="41.624814880" lon="2.513991229">
        <ele>376.01</ele>
        <time>2013-12-06T11:49:03Z</time>
      </trkpt>
      <trkpt lat="41.624824855" lon="2.513963988">
        <ele>375.53</ele>
        <time>2013-12-06T11:49:09Z</time>
      </trkpt>
      <trkpt lat="41.624830722" lon="2.513927946">
        <ele>375.53</ele>
        <time>2013-12-06T11:49:20Z</time>
      </trkpt>
      <trkpt lat="41.624870620" lon="2.513736503">
        <ele>374.09</ele>
        <time>2013-12-06T11:49:26Z</time>
      </trkpt>
      <trkpt lat="41.624975393" lon="2.513516478">
        <ele>372.17</ele>
        <time>2013-12-06T11:49:32Z</time>
      </trkpt>
      <trkpt lat="41.625009340" lon="2.513265776">
        <ele>370.73</ele>
        <time>2013-12-06T11:49:38Z</time>
      </trkpt>
      <trkpt lat="41.624984865" lon="2.512968721">
        <ele>367.36</ele>
        <time>2013-12-06T11:49:45Z</time>
      </trkpt>
      <trkpt lat="41.624909009" lon="2.512799574">
        <ele>366.40</ele>
        <time>2013-12-06T11:49:51Z</time>
      </trkpt>
      <trkpt lat="41.624710106" lon="2.512670325">
        <ele>364.00</ele>
        <time>2013-12-06T11:49:58Z</time>
      </trkpt>
      <trkpt lat="41.624443478" lon="2.512572425">
        <ele>360.63</ele>
        <time>2013-12-06T11:50:06Z</time>
      </trkpt>
      <trkpt lat="41.624417745" lon="2.512568485">
        <ele>360.15</ele>
        <time>2013-12-06T11:50:07Z</time>
      </trkpt>
      <trkpt lat="41.624364939" lon="2.512658591">
        <ele>358.23</ele>
        <time>2013-12-06T11:50:12Z</time>
      </trkpt>
      <trkpt lat="41.624390756" lon="2.512688598">
        <ele>357.75</ele>
        <time>2013-12-06T11:50:14Z</time>
      </trkpt>
      <trkpt lat="41.624528890" lon="2.512813656">
        <ele>353.90</ele>
        <time>2013-12-06T11:50:20Z</time>
      </trkpt>
      <trkpt lat="41.624611032" lon="2.512888087">
        <ele>351.98</ele>
        <time>2013-12-06T11:50:23Z</time>
      </trkpt>
      <trkpt lat="41.624583288" lon="2.513134347">
        <ele>349.10</ele>
        <time>2013-12-06T11:50:28Z</time>
      </trkpt>
      <trkpt lat="41.624526878" lon="2.513212131">
        <ele>348.13</ele>
        <time>2013-12-06T11:50:30Z</time>
      </trkpt>
      <trkpt lat="41.624412800" lon="2.513276924">
        <ele>346.21</ele>
        <time>2013-12-06T11:50:33Z</time>
      </trkpt>
      <trkpt lat="41.624164193" lon="2.513340794">
        <ele>341.89</ele>
        <time>2013-12-06T11:50:39Z</time>
      </trkpt>
      <trkpt lat="41.624059419" lon="2.513372058">
        <ele>340.44</ele>
        <time>2013-12-06T11:50:42Z</time>
      </trkpt>
      <trkpt lat="41.623904773" lon="2.513488315">
        <ele>338.52</ele>
        <time>2013-12-06T11:50:47Z</time>
      </trkpt>
      <trkpt lat="41.623744511" lon="2.513610607">
        <ele>334.68</ele>
        <time>2013-12-06T11:50:52Z</time>
      </trkpt>
      <trkpt lat="41.623670666" lon="2.513628544">
        <ele>334.20</ele>
        <time>2013-12-06T11:50:55Z</time>
      </trkpt>
      <trkpt lat="41.623541837" lon="2.513671963">
        <ele>330.35</ele>
        <time>2013-12-06T11:51:01Z</time>
      </trkpt>
      <trkpt lat="41.623445277" lon="2.513707083">
        <ele>326.99</ele>
        <time>2013-12-06T11:51:05Z</time>
      </trkpt>
      <trkpt lat="41.623419042" lon="2.513716051">
        <ele>326.02</ele>
        <time>2013-12-06T11:51:06Z</time>
      </trkpt>
      <trkpt lat="41.623374869" lon="2.513690822">
        <ele>325.54</ele>
        <time>2013-12-06T11:51:08Z</time>
      </trkpt>
      <trkpt lat="41.623383335" lon="2.513568446">
        <ele>324.10</ele>
        <time>2013-12-06T11:51:12Z</time>
      </trkpt>
      <trkpt lat="41.623523899" lon="2.513341548">
        <ele>320.74</ele>
        <time>2013-12-06T11:51:20Z</time>
      </trkpt>
      <trkpt lat="41.623549296" lon="2.513323108">
        <ele>320.26</ele>
        <time>2013-12-06T11:51:21Z</time>
      </trkpt>
      <trkpt lat="41.623611909" lon="2.513190841">
        <ele>318.33</ele>
        <time>2013-12-06T11:51:25Z</time>
      </trkpt>
      <trkpt lat="41.623556756" lon="2.513081793">
        <ele>316.41</ele>
        <time>2013-12-06T11:51:29Z</time>
      </trkpt>
      <trkpt lat="41.623523983" lon="2.513105681">
        <ele>314.49</ele>
        <time>2013-12-06T11:51:31Z</time>
      </trkpt>
      <trkpt lat="41.623426502" lon="2.513225375">
        <ele>313.05</ele>
        <time>2013-12-06T11:51:38Z</time>
      </trkpt>
      <trkpt lat="41.623240926" lon="2.513207438">
        <ele>309.68</ele>
        <time>2013-12-06T11:51:45Z</time>
      </trkpt>
      <trkpt lat="41.623063900" lon="2.513258148">
        <ele>305.84</ele>
        <time>2013-12-06T11:51:50Z</time>
      </trkpt>
      <trkpt lat="41.622954014" lon="2.513366526">
        <ele>302.47</ele>
        <time>2013-12-06T11:51:54Z</time>
      </trkpt>
      <trkpt lat="41.622924426" lon="2.513382871">
        <ele>302.47</ele>
        <time>2013-12-06T11:51:55Z</time>
      </trkpt>
      <trkpt lat="41.622804145" lon="2.513414554">
        <ele>300.55</ele>
        <time>2013-12-06T11:51:58Z</time>
      </trkpt>
      <trkpt lat="41.622680261" lon="2.513479095">
        <ele>298.15</ele>
        <time>2013-12-06T11:52:01Z</time>
      </trkpt>
      <trkpt lat="41.622586383" lon="2.513661653">
        <ele>295.26</ele>
        <time>2013-12-06T11:52:07Z</time>
      </trkpt>
      <trkpt lat="41.622471384" lon="2.513789058">
        <ele>292.86</ele>
        <time>2013-12-06T11:52:11Z</time>
      </trkpt>
      <trkpt lat="41.622279103" lon="2.513860304">
        <ele>289.01</ele>
        <time>2013-12-06T11:52:17Z</time>
      </trkpt>
      <trkpt lat="41.622148680" lon="2.513920989">
        <ele>285.17</ele>
        <time>2013-12-06T11:52:22Z</time>
      </trkpt>
      <trkpt lat="41.622025634" lon="2.513990391">
        <ele>281.80</ele>
        <time>2013-12-06T11:52:27Z</time>
      </trkpt>
      <trkpt lat="41.621895212" lon="2.514080497">
        <ele>278.44</ele>
        <time>2013-12-06T11:52:32Z</time>
      </trkpt>
      <trkpt lat="41.621763197" lon="2.514153587">
        <ele>275.07</ele>
        <time>2013-12-06T11:52:36Z</time>
      </trkpt>
      <trkpt lat="41.621590613" lon="2.514186025">
        <ele>271.71</ele>
        <time>2013-12-06T11:52:41Z</time>
      </trkpt>
      <trkpt lat="41.621446528" lon="2.514241178">
        <ele>267.86</ele>
        <time>2013-12-06T11:52:46Z</time>
      </trkpt>
      <trkpt lat="41.621364051" lon="2.514420048">
        <ele>264.50</ele>
        <time>2013-12-06T11:52:51Z</time>
      </trkpt>
      <trkpt lat="41.621293391" lon="2.514610233">
        <ele>261.14</ele>
        <time>2013-12-06T11:52:55Z</time>
      </trkpt>
      <trkpt lat="41.621277214" lon="2.514654573">
        <ele>260.17</ele>
        <time>2013-12-06T11:52:56Z</time>
      </trkpt>
      <trkpt lat="41.621169423" lon="2.514830593">
        <ele>257.29</ele>
        <time>2013-12-06T11:53:00Z</time>
      </trkpt>
      <trkpt lat="41.621089962" lon="2.514928242">
        <ele>255.85</ele>
        <time>2013-12-06T11:53:03Z</time>
      </trkpt>
      <trkpt lat="41.620968089" lon="2.515167462">
        <ele>254.41</ele>
        <time>2013-12-06T11:53:08Z</time>
      </trkpt>
      <trkpt lat="41.620762062" lon="2.515454877">
        <ele>251.04</ele>
        <time>2013-12-06T11:53:15Z</time>
      </trkpt>
      <trkpt lat="41.620735994" lon="2.515502151">
        <ele>250.08</ele>
        <time>2013-12-06T11:53:16Z</time>
      </trkpt>
      <trkpt lat="41.620567434" lon="2.515725529">
        <ele>246.23</ele>
        <time>2013-12-06T11:53:22Z</time>
      </trkpt>
      <trkpt lat="41.620524938" lon="2.515771713">
        <ele>245.27</ele>
        <time>2013-12-06T11:53:23Z</time>
      </trkpt>
      <trkpt lat="41.620396025" lon="2.515960977">
        <ele>241.43</ele>
        <time>2013-12-06T11:53:26Z</time>
      </trkpt>
      <trkpt lat="41.620287395" lon="2.516182259">
        <ele>237.58</ele>
        <time>2013-12-06T11:53:30Z</time>
      </trkpt>
      <trkpt lat="41.620224363" lon="2.516249817">
        <ele>235.66</ele>
        <time>2013-12-06T11:53:32Z</time>
      </trkpt>
      <trkpt lat="41.620116069" lon="2.516309412">
        <ele>231.33</ele>
        <time>2013-12-06T11:53:37Z</time>
      </trkpt>
      <trkpt lat="41.620102155" lon="2.516308826">
        <ele>231.33</ele>
        <time>2013-12-06T11:53:38Z</time>
      </trkpt>
      <trkpt lat="41.619995789" lon="2.516288541">
        <ele>227.97</ele>
        <time>2013-12-06T11:53:42Z</time>
      </trkpt>
      <trkpt lat="41.619898056" lon="2.516230539">
        <ele>226.53</ele>
        <time>2013-12-06T11:53:45Z</time>
      </trkpt>
      <trkpt lat="41.619716252" lon="2.516295834">
        <ele>224.12</ele>
        <time>2013-12-06T11:53:52Z</time>
      </trkpt>
      <trkpt lat="41.619654310" lon="2.516390884">
        <ele>223.16</ele>
        <time>2013-12-06T11:53:55Z</time>
      </trkpt>
      <trkpt lat="41.619509638" lon="2.516494233">
        <ele>221.72</ele>
        <time>2013-12-06T11:54:02Z</time>
      </trkpt>
      <trkpt lat="41.619468651" lon="2.516650807">
        <ele>220.28</ele>
        <time>2013-12-06T11:54:06Z</time>
      </trkpt>
      <trkpt lat="41.619460520" lon="2.516721215">
        <ele>219.80</ele>
        <time>2013-12-06T11:54:08Z</time>
      </trkpt>
      <trkpt lat="41.619390615" lon="2.516823977">
        <ele>218.84</ele>
        <time>2013-12-06T11:54:14Z</time>
      </trkpt>
      <trkpt lat="41.619315262" lon="2.517002680">
        <ele>217.88</ele>
        <time>2013-12-06T11:54:22Z</time>
      </trkpt>
      <trkpt lat="41.619304198" lon="2.517157158">
        <ele>216.43</ele>
        <time>2013-12-06T11:54:28Z</time>
      </trkpt>
      <trkpt lat="41.619264887" lon="2.517441053">
        <ele>214.99</ele>
        <time>2013-12-06T11:54:36Z</time>
      </trkpt>
      <trkpt lat="41.619242088" lon="2.517657055">
        <ele>214.03</ele>
        <time>2013-12-06T11:54:42Z</time>
      </trkpt>
      <trkpt lat="41.619242758" lon="2.517698210">
        <ele>213.55</ele>
        <time>2013-12-06T11:54:47Z</time>
      </trkpt>
      <trkpt lat="41.619244602" lon="2.517696282">
        <ele>213.55</ele>
        <time>2013-12-06T11:54:55Z</time>
      </trkpt>
      <trkpt lat="41.619240244" lon="2.517707933">
        <ele>213.55</ele>
        <time>2013-12-06T11:55:02Z</time>
      </trkpt>
      <trkpt lat="41.619213422" lon="2.517809019">
        <ele>213.07</ele>
        <time>2013-12-06T11:55:08Z</time>
      </trkpt>
      <trkpt lat="41.619112671" lon="2.517965173">
        <ele>212.11</ele>
        <time>2013-12-06T11:55:14Z</time>
      </trkpt>
      <trkpt lat="41.618910919" lon="2.518149072">
        <ele>209.70</ele>
        <time>2013-12-06T11:55:21Z</time>
      </trkpt>
      <trkpt lat="41.618808827" lon="2.518330205">
        <ele>207.78</ele>
        <time>2013-12-06T11:55:26Z</time>
      </trkpt>
      <trkpt lat="41.618743616" lon="2.518615190">
        <ele>206.82</ele>
        <time>2013-12-06T11:55:31Z</time>
      </trkpt>
      <trkpt lat="41.618640938" lon="2.519115003">
        <ele>203.46</ele>
        <time>2013-12-06T11:55:38Z</time>
      </trkpt>
      <trkpt lat="41.618593999" lon="2.519274427">
        <ele>202.98</ele>
        <time>2013-12-06T11:55:40Z</time>
      </trkpt>
      <trkpt lat="41.618497859" lon="2.519459918">
        <ele>201.05</ele>
        <time>2013-12-06T11:55:43Z</time>
      </trkpt>
      <trkpt lat="41.618415465" lon="2.519502834">
        <ele>200.57</ele>
        <time>2013-12-06T11:55:45Z</time>
      </trkpt>
      <trkpt lat="41.617998968" lon="2.519567039">
        <ele>199.13</ele>
        <time>2013-12-06T11:55:53Z</time>
      </trkpt>
      <trkpt lat="41.617525055" lon="2.519628478">
        <ele>196.73</ele>
        <time>2013-12-06T11:56:01Z</time>
      </trkpt>
      <trkpt lat="41.616922229" lon="2.519708693">
        <ele>193.84</ele>
        <time>2013-12-06T11:56:10Z</time>
      </trkpt>
      <trkpt lat="41.616608159" lon="2.519827213">
        <ele>191.44</ele>
        <time>2013-12-06T11:56:15Z</time>
      </trkpt>
      <trkpt lat="41.616555688" lon="2.519858645">
        <ele>190.96</ele>
        <time>2013-12-06T11:56:16Z</time>
      </trkpt>
      <trkpt lat="41.616349074" lon="2.520041371">
        <ele>190.48</ele>
        <time>2013-12-06T11:56:21Z</time>
      </trkpt>
      <trkpt lat="41.616245222" lon="2.520262150">
        <ele>190.48</ele>
        <time>2013-12-06T11:56:28Z</time>
      </trkpt>
      <trkpt lat="41.616180933" lon="2.520396931">
        <ele>190.00</ele>
        <time>2013-12-06T11:56:33Z</time>
      </trkpt>
      <trkpt lat="41.616088984" lon="2.520638665">
        <ele>189.52</ele>
        <time>2013-12-06T11:56:41Z</time>
      </trkpt>
      <trkpt lat="41.616023269" lon="2.520905294">
        <ele>189.52</ele>
        <time>2013-12-06T11:56:49Z</time>
      </trkpt>
      <trkpt lat="41.615958142" lon="2.521201510">
        <ele>188.56</ele>
        <time>2013-12-06T11:56:56Z</time>
      </trkpt>
      <trkpt lat="41.615929644" lon="2.521501331">
        <ele>188.56</ele>
        <time>2013-12-06T11:57:02Z</time>
      </trkpt>
      <trkpt lat="41.615888908" lon="2.521828728">
        <ele>187.59</ele>
        <time>2013-12-06T11:57:09Z</time>
      </trkpt>
      <trkpt lat="41.615887147" lon="2.521875667">
        <ele>187.59</ele>
        <time>2013-12-06T11:57:10Z</time>
      </trkpt>
      <trkpt lat="41.615824954" lon="2.522381179">
        <ele>185.67</ele>
        <time>2013-12-06T11:57:18Z</time>
      </trkpt>
      <trkpt lat="41.615734932" lon="2.522972606">
        <ele>183.75</ele>
        <time>2013-12-06T11:57:26Z</time>
      </trkpt>
      <trkpt lat="41.615669050" lon="2.523531176">
        <ele>182.31</ele>
        <time>2013-12-06T11:57:33Z</time>
      </trkpt>
      <trkpt lat="41.615627895" lon="2.524058314">
        <ele>179.90</ele>
        <time>2013-12-06T11:57:40Z</time>
      </trkpt>
      <trkpt lat="41.615563606" lon="2.524712270">
        <ele>177.50</ele>
        <time>2013-12-06T11:57:48Z</time>
      </trkpt>
      <trkpt lat="41.615529072" lon="2.525056683">
        <ele>176.54</ele>
        <time>2013-12-06T11:57:52Z</time>
      </trkpt>
      <trkpt lat="41.615518763" lon="2.525818765">
        <ele>174.14</ele>
        <time>2013-12-06T11:58:01Z</time>
      </trkpt>
      <trkpt lat="41.615541813" lon="2.526295360">
        <ele>171.73</ele>
        <time>2013-12-06T11:58:07Z</time>
      </trkpt>
      <trkpt lat="41.615557403" lon="2.526440954">
        <ele>171.73</ele>
        <time>2013-12-06T11:58:09Z</time>
      </trkpt>
      <trkpt lat="41.615574670" lon="2.526934816">
        <ele>169.81</ele>
        <time>2013-12-06T11:58:16Z</time>
      </trkpt>
      <trkpt lat="41.615470148" lon="2.527590197">
        <ele>167.41</ele>
        <time>2013-12-06T11:58:25Z</time>
      </trkpt>
      <trkpt lat="41.615367637" lon="2.528103504">
        <ele>165.48</ele>
        <time>2013-12-06T11:58:32Z</time>
      </trkpt>
      <trkpt lat="41.615252302" lon="2.528621506">
        <ele>164.04</ele>
        <time>2013-12-06T11:58:41Z</time>
      </trkpt>
      <trkpt lat="41.615200250" lon="2.529011516">
        <ele>163.56</ele>
        <time>2013-12-06T11:58:48Z</time>
      </trkpt>
      <trkpt lat="41.615187929" lon="2.529286694">
        <ele>162.60</ele>
        <time>2013-12-06T11:58:53Z</time>
      </trkpt>
      <trkpt lat="41.615180972" lon="2.529865800">
        <ele>161.16</ele>
        <time>2013-12-06T11:59:02Z</time>
      </trkpt>
      <trkpt lat="41.615167729" lon="2.530507183">
        <ele>158.75</ele>
        <time>2013-12-06T11:59:11Z</time>
      </trkpt>
      <trkpt lat="41.615134285" lon="2.531027531">
        <ele>157.31</ele>
        <time>2013-12-06T11:59:18Z</time>
      </trkpt>
      <trkpt lat="41.615117521" lon="2.531234061">
        <ele>156.83</ele>
        <time>2013-12-06T11:59:21Z</time>
      </trkpt>
      <trkpt lat="41.615116348" lon="2.531420810">
        <ele>155.87</ele>
        <time>2013-12-06T11:59:24Z</time>
      </trkpt>
      <trkpt lat="41.615175775" lon="2.531627508">
        <ele>155.39</ele>
        <time>2013-12-06T11:59:28Z</time>
      </trkpt>
      <trkpt lat="41.615217014" lon="2.531883743">
        <ele>154.43</ele>
        <time>2013-12-06T11:59:32Z</time>
      </trkpt>
      <trkpt lat="41.615083910" lon="2.532605508">
        <ele>152.03</ele>
        <time>2013-12-06T11:59:43Z</time>
      </trkpt>
      <trkpt lat="41.614949212" lon="2.533082187">
        <ele>150.58</ele>
        <time>2013-12-06T11:59:51Z</time>
      </trkpt>
      <trkpt lat="41.614769588" lon="2.533707561">
        <ele>149.14</ele>
        <time>2013-12-06T12:00:01Z</time>
      </trkpt>
      <trkpt lat="41.614698845" lon="2.533952061">
        <ele>148.18</ele>
        <time>2013-12-06T12:00:05Z</time>
      </trkpt>
      <trkpt lat="41.614498601" lon="2.534515493">
        <ele>146.26</ele>
        <time>2013-12-06T12:00:14Z</time>
      </trkpt>
      <trkpt lat="41.614314283" lon="2.535083618">
        <ele>143.85</ele>
        <time>2013-12-06T12:00:23Z</time>
      </trkpt>
      <trkpt lat="41.614125607" lon="2.535636488">
        <ele>142.41</ele>
        <time>2013-12-06T12:00:32Z</time>
      </trkpt>
      <trkpt lat="41.613930224" lon="2.536202351">
        <ele>140.97</ele>
        <time>2013-12-06T12:00:41Z</time>
      </trkpt>
      <trkpt lat="41.613779266" lon="2.536530586">
        <ele>139.53</ele>
        <time>2013-12-06T12:00:48Z</time>
      </trkpt>
      <trkpt lat="41.613725538" lon="2.536625553">
        <ele>138.57</ele>
        <time>2013-12-06T12:00:53Z</time>
      </trkpt>
      <trkpt lat="41.613689245" lon="2.536695961">
        <ele>138.57</ele>
        <time>2013-12-06T12:00:59Z</time>
      </trkpt>
      <trkpt lat="41.613586985" lon="2.536874160">
        <ele>138.09</ele>
        <time>2013-12-06T12:01:06Z</time>
      </trkpt>
      <trkpt lat="41.613449606" lon="2.537098460">
        <ele>137.61</ele>
        <time>2013-12-06T12:01:13Z</time>
      </trkpt>
      <trkpt lat="41.613330415" lon="2.537251178">
        <ele>137.13</ele>
        <time>2013-12-06T12:01:17Z</time>
      </trkpt>
      <trkpt lat="41.612994636" lon="2.537620317">
        <ele>135.68</ele>
        <time>2013-12-06T12:01:27Z</time>
      </trkpt>
      <trkpt lat="41.612761284" lon="2.537894657">
        <ele>134.72</ele>
        <time>2013-12-06T12:01:34Z</time>
      </trkpt>
      <trkpt lat="41.612726667" lon="2.537934555">
        <ele>134.72</ele>
        <time>2013-12-06T12:01:35Z</time>
      </trkpt>
      <trkpt lat="41.612560705" lon="2.538143013">
        <ele>133.28</ele>
        <time>2013-12-06T12:01:40Z</time>
      </trkpt>
      <trkpt lat="41.612282510" lon="2.538501423">
        <ele>132.32</ele>
        <time>2013-12-06T12:01:48Z</time>
      </trkpt>
      <trkpt lat="41.612253844" lon="2.538552553">
        <ele>132.32</ele>
        <time>2013-12-06T12:01:49Z</time>
      </trkpt>
      <trkpt lat="41.612108082" lon="2.538876848">
        <ele>131.36</ele>
        <time>2013-12-06T12:01:55Z</time>
      </trkpt>
      <trkpt lat="41.611937259" lon="2.539109949">
        <ele>129.43</ele>
        <time>2013-12-06T12:02:02Z</time>
      </trkpt>
      <trkpt lat="41.611906665" lon="2.539075416">
        <ele>129.43</ele>
        <time>2013-12-06T12:02:06Z</time>
      </trkpt>
      <trkpt lat="41.611884789" lon="2.538851787">
        <ele>131.36</ele>
        <time>2013-12-06T12:02:13Z</time>
      </trkpt>
      <trkpt lat="41.611829217" lon="2.538784564">
        <ele>131.84</ele>
        <time>2013-12-06T12:02:15Z</time>
      </trkpt>
      <trkpt lat="41.611547836" lon="2.538765453">
        <ele>132.32</ele>
        <time>2013-12-06T12:02:22Z</time>
      </trkpt>
      <trkpt lat="41.611312472" lon="2.538821360">
        <ele>130.88</ele>
        <time>2013-12-06T12:02:27Z</time>
      </trkpt>
      <trkpt lat="41.611159251" lon="2.538844746">
        <ele>129.92</ele>
        <time>2013-12-06T12:02:30Z</time>
      </trkpt>
      <trkpt lat="41.610956325" lon="2.538927224">
        <ele>128.95</ele>
        <time>2013-12-06T12:02:34Z</time>
      </trkpt>
      <trkpt lat="41.610506468" lon="2.539143812">
        <ele>127.03</ele>
        <time>2013-12-06T12:02:43Z</time>
      </trkpt>
      <trkpt lat="41.610120314" lon="2.539370626">
        <ele>126.07</ele>
        <time>2013-12-06T12:02:50Z</time>
      </trkpt>
      <trkpt lat="41.610003470" lon="2.539441034">
        <ele>125.11</ele>
        <time>2013-12-06T12:02:52Z</time>
      </trkpt>
      <trkpt lat="41.609692250" lon="2.539634740">
        <ele>123.67</ele>
        <time>2013-12-06T12:02:58Z</time>
      </trkpt>
      <trkpt lat="41.609402320" lon="2.539809168">
        <ele>122.71</ele>
        <time>2013-12-06T12:03:04Z</time>
      </trkpt>
      <trkpt lat="41.609235018" lon="2.539955348">
        <ele>120.78</ele>
        <time>2013-12-06T12:03:09Z</time>
      </trkpt>
      <trkpt lat="41.609157066" lon="2.540152323">
        <ele>120.30</ele>
        <time>2013-12-06T12:03:14Z</time>
      </trkpt>
      <trkpt lat="41.609126723" lon="2.540251732">
        <ele>120.30</ele>
        <time>2013-12-06T12:03:17Z</time>
      </trkpt>
      <trkpt lat="41.609006946" lon="2.540339574">
        <ele>119.82</ele>
        <time>2013-12-06T12:03:24Z</time>
      </trkpt>
      <trkpt lat="41.608918517" lon="2.540504530">
        <ele>119.82</ele>
        <time>2013-12-06T12:03:30Z</time>
      </trkpt>
      <trkpt lat="41.608839895" lon="2.540472679">
        <ele>119.82</ele>
        <time>2013-12-06T12:03:37Z</time>
      </trkpt>
      <trkpt lat="41.608710143" lon="2.540335719">
        <ele>117.90</ele>
        <time>2013-12-06T12:03:42Z</time>
      </trkpt>
      <trkpt lat="41.608386098" lon="2.540387770">
        <ele>117.42</ele>
        <time>2013-12-06T12:03:49Z</time>
      </trkpt>
      <trkpt lat="41.608187447" lon="2.540414425">
        <ele>116.94</ele>
        <time>2013-12-06T12:03:55Z</time>
      </trkpt>
      <trkpt lat="41.608064652" lon="2.540448036">
        <ele>116.46</ele>
        <time>2013-12-06T12:04:02Z</time>
      </trkpt>
      <trkpt lat="41.607825265" lon="2.540461782">
        <ele>116.46</ele>
        <time>2013-12-06T12:04:08Z</time>
      </trkpt>
      <trkpt lat="41.607738513" lon="2.540462118">
        <ele>115.98</ele>
        <time>2013-12-06T12:04:10Z</time>
      </trkpt>
      <trkpt lat="41.607620076" lon="2.540571250">
        <ele>115.98</ele>
        <time>2013-12-06T12:04:14Z</time>
      </trkpt>
      <trkpt lat="41.607482864" lon="2.540786833">
        <ele>115.50</ele>
        <time>2013-12-06T12:04:19Z</time>
      </trkpt>
      <trkpt lat="41.607314723" lon="2.540819271">
        <ele>115.01</ele>
        <time>2013-12-06T12:04:23Z</time>
      </trkpt>
      <trkpt lat="41.606940220" lon="2.540736877">
        <ele>114.53</ele>
        <time>2013-12-06T12:04:31Z</time>
      </trkpt>
      <trkpt lat="41.606483490" lon="2.540530263">
        <ele>113.57</ele>
        <time>2013-12-06T12:04:41Z</time>
      </trkpt>
      <trkpt lat="41.606216443" lon="2.540375784">
        <ele>112.13</ele>
        <time>2013-12-06T12:04:48Z</time>
      </trkpt>
      <trkpt lat="41.606137988" lon="2.540319290">
        <ele>111.65</ele>
        <time>2013-12-06T12:04:54Z</time>
      </trkpt>
      <trkpt lat="41.606117872" lon="2.540322978">
        <ele>111.65</ele>
        <time>2013-12-06T12:05:07Z</time>
      </trkpt>
      <trkpt lat="41.606121057" lon="2.540337479">
        <ele>111.65</ele>
        <time>2013-12-06T12:05:22Z</time>
      </trkpt>
      <trkpt lat="41.606115357" lon="2.540337814">
        <ele>111.65</ele>
        <time>2013-12-06T12:05:39Z</time>
      </trkpt>
      <trkpt lat="41.606120218" lon="2.540324235">
        <ele>111.65</ele>
        <time>2013-12-06T12:05:51Z</time>
      </trkpt>
      <trkpt lat="41.606116279" lon="2.540304706">
        <ele>111.65</ele>
        <time>2013-12-06T12:06:05Z</time>
      </trkpt>
      <trkpt lat="41.606120386" lon="2.540294815">
        <ele>111.65</ele>
        <time>2013-12-06T12:06:18Z</time>
      </trkpt>
      <trkpt lat="41.606128349" lon="2.540315434">
        <ele>111.65</ele>
        <time>2013-12-06T12:06:31Z</time>
      </trkpt>
      <trkpt lat="41.606125834" lon="2.540315351">
        <ele>111.65</ele>
        <time>2013-12-06T12:06:43Z</time>
      </trkpt>
      <trkpt lat="41.606118291" lon="2.540309818">
        <ele>111.65</ele>
        <time>2013-12-06T12:06:54Z</time>
      </trkpt>
      <trkpt lat="41.606121727" lon="2.540313004">
        <ele>111.65</ele>
        <time>2013-12-06T12:07:12Z</time>
      </trkpt>
      <trkpt lat="41.606125164" lon="2.540323732">
        <ele>111.65</ele>
        <time>2013-12-06T12:07:24Z</time>
      </trkpt>
      <trkpt lat="41.606114351" lon="2.540296491">
        <ele>111.65</ele>
        <time>2013-12-06T12:07:40Z</time>
      </trkpt>
      <trkpt lat="41.606123487" lon="2.540317027">
        <ele>111.65</ele>
        <time>2013-12-06T12:07:55Z</time>
      </trkpt>
      <trkpt lat="41.606120302" lon="2.540315686">
        <ele>111.65</ele>
        <time>2013-12-06T12:07:59Z</time>
      </trkpt>
      <trkpt lat="41.606039165" lon="2.540356003">
        <ele>111.65</ele>
        <time>2013-12-06T12:08:04Z</time>
      </trkpt>
      <trkpt lat="41.605915951" lon="2.540408641">
        <ele>111.65</ele>
        <time>2013-12-06T12:08:12Z</time>
      </trkpt>
      <trkpt lat="41.605899607" lon="2.540431440">
        <ele>111.65</ele>
        <time>2013-12-06T12:08:19Z</time>
      </trkpt>
      <trkpt lat="41.605904804" lon="2.540441833">
        <ele>111.65</ele>
        <time>2013-12-06T12:08:32Z</time>
      </trkpt>
      <trkpt lat="41.605901283" lon="2.540456334">
        <ele>111.65</ele>
        <time>2013-12-06T12:08:43Z</time>
      </trkpt>
      <trkpt lat="41.605892985" lon="2.540442672">
        <ele>111.65</ele>
        <time>2013-12-06T12:08:54Z</time>
      </trkpt>
      <trkpt lat="41.605883933" lon="2.540447114">
        <ele>111.17</ele>
        <time>2013-12-06T12:09:05Z</time>
      </trkpt>
      <trkpt lat="41.605888794" lon="2.540458011">
        <ele>111.17</ele>
        <time>2013-12-06T12:09:13Z</time>
      </trkpt>
      <trkpt lat="41.605888626" lon="2.540444767">
        <ele>111.17</ele>
        <time>2013-12-06T12:09:22Z</time>
      </trkpt>
      <trkpt lat="41.605864570" lon="2.540461699">
        <ele>112.61</ele>
        <time>2013-12-06T12:09:33Z</time>
      </trkpt>
      <trkpt lat="41.605857530" lon="2.540484581">
        <ele>112.61</ele>
        <time>2013-12-06T12:09:49Z</time>
      </trkpt>
      <trkpt lat="41.605870270" lon="2.540481648">
        <ele>112.61</ele>
        <time>2013-12-06T12:09:58Z</time>
      </trkpt>
      <trkpt lat="41.605879155" lon="2.540469410">
        <ele>112.61</ele>
        <time>2013-12-06T12:10:09Z</time>
      </trkpt>
      <trkpt lat="41.605883514" lon="2.540477037">
        <ele>112.61</ele>
        <time>2013-12-06T12:10:12Z</time>
      </trkpt>
      <trkpt lat="41.605987198" lon="2.540575525">
        <ele>113.09</ele>
        <time>2013-12-06T12:10:19Z</time>
      </trkpt>
      <trkpt lat="41.606342842" lon="2.540688262">
        <ele>114.05</ele>
        <time>2013-12-06T12:10:29Z</time>
      </trkpt>
      <trkpt lat="41.606511653" lon="2.540757077">
        <ele>115.01</ele>
        <time>2013-12-06T12:10:34Z</time>
      </trkpt>
      <trkpt lat="41.606601088" lon="2.540996380">
        <ele>115.98</ele>
        <time>2013-12-06T12:10:40Z</time>
      </trkpt>
      <trkpt lat="41.606620367" lon="2.541063603">
        <ele>115.98</ele>
        <time>2013-12-06T12:10:42Z</time>
      </trkpt>
      <trkpt lat="41.606710556" lon="2.541396616">
        <ele>118.38</ele>
        <time>2013-12-06T12:10:51Z</time>
      </trkpt>
      <trkpt lat="41.606778952" lon="2.541659137">
        <ele>119.82</ele>
        <time>2013-12-06T12:10:58Z</time>
      </trkpt>
      <trkpt lat="41.606863107" lon="2.541893076">
        <ele>121.26</ele>
        <time>2013-12-06T12:11:05Z</time>
      </trkpt>
      <trkpt lat="41.606962935" lon="2.542139672">
        <ele>123.67</ele>
        <time>2013-12-06T12:11:13Z</time>
      </trkpt>
      <trkpt lat="41.607065194" lon="2.542331953">
        <ele>124.63</ele>
        <time>2013-12-06T12:11:21Z</time>
      </trkpt>
      <trkpt lat="41.607090508" lon="2.542367241">
        <ele>125.59</ele>
        <time>2013-12-06T12:11:28Z</time>
      </trkpt>
      <trkpt lat="41.607096626" lon="2.542372102">
        <ele>126.07</ele>
        <time>2013-12-06T12:11:42Z</time>
      </trkpt>
    </trkseg>
  </trk>
</gpx>
